GFSMW_250_spd_000.txt.gz
Wind_Speed
24 27 31 33 32 33 32 33 31 28 28 29 31 32 34 36 39 40 45 49 52 53 54 55 60 58 58 60 61 62 65 69 71 70 73 75 80 83 85 87 88 89 91
25 28 30 32 30 30 31 33 32 30 29 29 30 32 35 39 42 45 49 52 54 56 57 60 61 58 60 64 67 69 70 73 78 79 80 80 84 89 91 94 96 97 99
29 30 31 31 31 28 30 33 34 33 33 34 35 37 40 44 47 50 51 53 57 60 61 60 59 61 64 68 72 74 76 78 83 87 89 89 88 90 92 95 98 101 102
32 35 33 32 31 30 32 32 36 38 38 39 41 43 45 48 49 52 54 54 54 55 57 59 62 66 70 73 75 79 82 85 87 92 96 97 97 97 93 94 97 101 105
30 32 31 32 35 34 33 33 35 39 42 43 43 45 46 50 51 51 54 56 59 61 64 66 69 72 75 79 83 87 91 93 95 97 100 103 106 108 109 103 104 107 108
33 30 30 32 36 33 31 32 35 39 42 44 45 45 49 50 52 55 58 60 62 64 67 71 74 78 81 85 88 92 96 99 103 105 108 111 113 116 120 121 117 116 116
37 34 35 35 38 33 31 32 34 36 39 41 44 46 48 51 56 58 60 63 67 71 74 77 81 84 87 91 94 98 102 105 107 110 114 118 121 124 125 128 125 126 125
43 40 40 37 38 35 32 35 38 38 39 42 45 48 52 54 57 61 65 69 72 75 79 83 87 92 96 99 102 106 110 114 118 120 123 124 127 131 134 136 137 133 132
47 46 41 35 35 35 37 39 40 42 43 46 49 51 55 59 63 66 70 74 77 81 85 89 94 98 103 108 111 114 117 120 124 128 132 134 135 136 138 138 141 145 138
49 48 46 39 38 39 41 43 45 48 50 53 56 58 62 65 68 72 77 81 85 89 92 97 102 107 111 114 118 121 123 126 128 130 134 137 140 143 144 147 148 145 141
54 52 50 46 45 44 45 48 50 53 56 59 61 64 67 71 75 79 84 87 91 96 100 105 108 113 117 118 117 122 127 129 135 138 142 144 147 150 149 145 143 143 144
56 56 53 51 50 49 53 55 56 58 60 63 67 71 74 77 81 85 89 94 98 102 107 110 112 112 116 119 125 129 133 137 140 141 147 149 145 145 145 144 143 138 131
60 61 57 54 57 57 60 62 63 65 68 70 71 74 78 83 87 91 96 100 104 107 107 109 112 116 123 128 133 139 143 145 149 147 147 150 146 143 138 131 123 121 116
62 62 57 58 62 63 65 66 65 67 69 72 77 80 84 88 93 96 101 103 102 105 108 114 121 127 129 133 138 144 147 146 147 153 146 137 130 124 121 119 116 108 101
61 58 56 61 62 61 61 63 67 70 73 77 80 84 89 93 97 99 100 103 105 109 114 120 124 129 133 141 146 146 148 145 141 136 129 123 119 116 110 106 102 97 94
60 60 60 59 57 61 63 68 71 74 77 82 86 90 94 94 96 101 105 106 111 116 120 126 128 132 139 141 144 151 146 138 129 120 118 115 111 106 101 99 96 92 90
61 59 57 57 59 63 67 71 75 79 84 87 90 91 92 97 101 103 105 111 114 119 125 129 132 136 141 143 144 141 132 122 116 110 104 99 99 98 95 93 88 84 83
61 56 59 61 63 66 71 77 81 84 88 90 90 92 95 99 101 107 113 116 121 126 129 130 134 138 144 138 134 126 118 110 105 101 99 95 92 91 88 84 81 80 78
61 62 62 64 67 72 77 81 85 88 88 89 91 94 97 102 108 115 119 121 128 131 129 131 138 136 133 127 122 115 107 103 100 97 93 89 85 85 82 76 72 73 76
57 60 65 69 74 76 80 84 86 88 88 89 96 100 105 110 114 119 122 129 132 129 130 131 132 129 121 118 112 106 102 98 94 90 87 85 82 79 76 71 67 65 65
62 67 70 74 78 81 82 83 85 87 91 96 102 106 112 115 117 124 129 130 129 128 129 124 121 117 115 110 105 102 98 93 87 82 78 78 76 72 69 66 62 59 60
69 72 75 77 78 78 80 82 85 91 96 102 107 111 114 120 122 128 130 133 129 127 124 117 111 112 108 105 100 98 95 90 81 75 71 69 68 65 61 58 55 53 52
74 76 74 75 74 77 81 85 91 97 103 108 110 111 119 124 127 130 131 129 128 122 114 107 106 104 101 97 96 94 92 84 74 71 65 61 62 59 55 51 48 46 46
69 69 69 73 77 82 86 92 98 104 107 107 111 118 124 127 130 132 130 127 123 115 110 103 99 97 94 91 91 89 85 75 72 71 66 60 57 53 49 44 43 40 38
67 71 74 78 83 88 93 97 102 104 105 112 118 123 128 129 131 132 126 122 118 112 105 97 93 88 86 86 83 81 75 67 66 65 62 58 51 46 43 39 37 35 33
72 75 80 86 91 96 99 101 105 108 113 118 123 127 130 133 131 123 118 117 111 109 104 98 93 86 83 80 77 76 70 64 61 61 54 50 44 38 36 34 31 28 25

GFSMW_250_spd_003.txt.gz
Wind_Speed
20 20 22 22 22 25 27 30 32 30 28 28 27 28 28 30 32 34 37 41 43 45 47 51 55 58 59 60 61 62 61 62 62 63 66 70 74 78 80 84 88 90 92
23 23 23 22 24 26 27 30 29 29 28 29 29 30 29 31 33 35 38 41 45 48 51 54 57 59 61 61 60 61 63 67 71 72 74 75 78 83 86 89 91 94 97
21 24 24 23 24 28 31 32 32 31 30 31 32 33 35 37 39 41 44 47 50 51 54 54 53 56 58 61 64 67 69 70 76 80 81 81 83 84 89 93 97 100 104
24 27 28 27 27 28 30 32 34 33 33 33 35 37 39 41 44 46 47 48 50 53 53 56 59 62 64 66 69 72 75 77 80 85 91 94 94 93 89 97 101 105 108
28 30 34 31 29 29 32 33 33 34 34 34 35 37 40 43 46 48 49 51 53 54 58 61 64 67 69 71 75 78 81 85 88 91 94 98 104 109 110 102 108 111 116
35 30 33 35 34 33 34 34 34 34 34 36 37 37 40 43 45 48 50 52 55 59 62 65 68 70 73 77 81 85 88 91 96 100 103 107 110 115 119 121 117 119 119
41 37 31 35 37 37 37 38 36 34 37 39 36 37 40 43 46 49 52 56 59 63 66 69 72 75 78 83 87 92 97 101 104 108 113 118 123 125 127 129 128 127 125
42 41 35 33 38 41 42 42 41 41 41 39 40 41 44 47 51 55 58 61 65 69 73 76 79 83 87 91 95 99 103 108 111 117 122 123 124 127 131 135 138 137 133
44 47 43 38 38 42 45 47 48 45 45 46 46 47 51 55 59 61 64 67 70 74 78 81 85 90 94 98 101 106 111 114 118 119 122 124 128 134 140 144 144 149 140
47 49 49 49 46 46 49 53 53 52 51 51 51 53 57 61 64 66 69 73 77 80 83 87 91 96 100 104 108 111 113 116 117 122 126 133 140 144 148 152 151 146 139
51 50 52 51 52 53 53 56 59 61 60 58 59 61 63 67 70 72 75 78 81 85 90 93 97 102 106 108 109 111 113 117 122 129 136 141 146 150 151 147 146 143 132
53 54 54 54 57 58 59 60 63 64 64 65 67 69 71 72 72 76 79 83 88 92 95 99 103 104 107 109 108 113 119 124 130 137 143 148 151 148 147 142 129 118 115
56 56 58 59 59 61 63 64 65 68 69 70 71 73 73 73 77 80 84 88 92 96 99 102 104 108 110 110 118 123 126 132 139 145 147 145 145 140 128 115 112 108 103
57 59 61 64 64 66 68 67 69 71 71 69 72 72 72 75 79 85 89 93 95 98 102 106 108 109 113 119 125 128 133 140 143 144 147 142 132 117 113 110 104 97 94
60 61 64 67 69 71 73 73 72 72 66 66 68 71 75 80 85 88 94 98 100 103 104 105 109 114 121 126 127 132 135 140 143 146 137 125 116 114 107 101 96 91 87
65 65 66 69 71 74 72 69 69 63 64 69 72 76 81 86 90 95 98 100 102 103 104 109 115 120 123 127 134 135 140 144 145 134 120 116 112 106 102 96 91 88 83
65 67 69 71 74 73 68 65 65 65 69 73 77 82 86 92 95 98 98 99 101 103 110 116 119 125 129 133 135 139 142 137 130 121 116 112 104 99 95 91 89 89 87
67 68 70 73 71 66 63 67 69 70 74 78 84 88 92 94 94 95 98 100 106 113 116 118 123 129 134 133 135 137 135 130 122 118 111 102 97 94 91 88 85 86 84
67 71 71 68 65 65 62 65 70 76 81 85 90 91 90 90 93 98 103 109 113 117 119 123 125 131 135 136 137 133 125 120 116 110 103 96 91 90 86 82 76 75 73
70 64 55 55 57 61 66 71 78 83 87 90 87 84 89 92 98 103 110 114 118 119 119 126 130 135 135 135 131 124 117 113 106 101 96 91 89 85 79 72 67 67 64
54 54 57 58 62 67 73 79 83 86 84 80 84 88 94 98 104 109 113 116 116 121 125 129 134 136 134 130 123 117 113 106 99 95 90 85 84 79 74 66 61 58 55
52 54 59 63 69 75 80 81 81 76 79 83 90 95 101 106 109 112 117 120 124 129 132 133 132 131 128 121 113 111 106 100 94 90 82 78 75 72 69 63 57 50 46
57 62 67 72 76 76 77 72 75 78 85 91 97 103 106 110 114 117 120 127 130 133 131 129 127 124 118 110 107 101 98 93 90 85 78 74 69 66 63 54 48 43 41
65 69 72 72 73 69 71 75 81 86 92 98 103 105 109 114 118 122 127 131 133 130 127 125 121 112 108 103 97 93 91 87 84 81 75 67 65 59 55 48 40 38 36
68 69 71 66 68 72 77 82 88 93 99 103 106 109 114 118 122 128 132 133 131 128 125 117 110 105 99 94 91 87 85 80 77 73 64 60 57 51 45 39 36 36 32
65 62 66 70 75 80 84 89 94 98 102 106 111 114 117 122 127 131 133 131 126 122 116 111 107 100 94 91 84 82 78 75 70 65 57 53 47 42 37 33 34 32 26

GFSMW_250_spd_006.txt.gz
Wind_Speed
27 26 25 22 26 27 26 24 26 28 29 30 31 30 27 27 29 31 32 36 40 42 44 46 47 49 52 56 60 63 63 62 60 59 61 64 66 70 71 76 78 82 85
26 23 21 24 24 27 27 27 27 28 31 32 33 33 32 30 30 32 34 35 38 41 44 47 50 54 57 59 61 60 60 63 65 64 64 65 70 75 78 81 85 88 92
20 23 23 23 28 28 28 28 29 29 32 32 33 36 38 37 37 38 38 40 42 45 49 52 54 56 59 61 60 62 64 65 69 73 73 73 75 76 83 89 92 96 99
21 22 24 22 28 30 31 32 31 32 34 36 36 35 36 40 42 42 44 45 46 50 51 55 57 59 60 61 65 68 70 72 74 78 82 85 84 83 80 89 95 100 105
27 24 24 26 26 33 36 34 34 36 36 37 36 38 39 40 40 42 43 45 48 50 52 55 58 60 63 67 70 73 76 79 81 83 86 90 94 99 100 95 103 107 112
27 27 25 26 29 30 35 38 38 38 39 40 41 42 41 41 41 43 44 46 48 51 54 58 62 66 69 73 76 79 82 86 89 92 95 99 103 107 110 110 109 112 111
30 30 31 31 30 34 35 37 40 42 43 43 44 47 48 47 47 48 51 53 55 57 61 64 68 72 75 78 82 85 89 92 96 100 104 108 112 115 116 117 113 113 112
34 34 36 37 38 38 39 38 39 42 46 46 48 51 53 55 56 59 61 62 63 65 68 70 74 77 81 85 88 90 94 99 102 106 110 112 114 116 118 123 128 129 129
38 38 38 40 43 45 46 47 47 47 48 50 52 54 56 60 64 66 67 68 70 71 73 77 81 84 86 89 91 97 100 104 107 111 112 113 115 119 126 132 138 141 136
41 42 43 44 46 49 51 52 52 52 53 54 56 58 62 66 67 70 73 75 76 78 81 85 87 87 89 92 97 100 104 108 110 111 112 117 122 127 131 137 139 146 151
45 46 47 49 50 51 54 56 58 59 59 59 60 62 64 67 71 74 78 81 84 85 88 88 88 90 93 96 102 106 107 109 110 114 120 122 128 133 137 142 145 147 150
49 50 52 54 55 56 57 58 61 63 65 65 66 69 74 75 75 79 80 82 82 85 83 89 91 95 98 102 104 105 107 109 114 118 124 130 135 139 145 145 146 144 130
52 54 56 57 59 59 60 62 64 66 68 71 71 73 74 76 77 80 79 78 81 85 89 92 96 101 103 103 104 105 110 115 121 126 131 137 142 143 143 144 139 124 114
58 59 59 62 63 63 64 66 68 70 71 71 72 75 76 76 77 74 76 83 86 88 93 99 102 101 102 103 106 111 116 122 127 132 137 142 144 145 140 132 119 113 107
63 64 64 67 67 66 67 69 72 72 72 72 76 75 74 73 72 77 83 86 89 95 100 100 97 100 103 108 113 118 121 126 132 138 141 143 142 137 126 115 113 106 100
68 68 69 70 68 69 71 73 74 73 73 75 75 72 72 79 82 81 86 93 97 100 94 95 98 103 109 115 119 123 129 133 137 138 139 139 133 119 113 112 104 100 96
71 72 71 70 70 71 73 72 72 73 75 71 71 73 76 78 83 88 93 95 90 90 94 98 103 110 116 119 125 131 135 137 138 137 137 129 119 112 109 100 97 96 92
72 72 70 70 71 71 69 70 73 74 68 67 69 74 80 84 88 92 87 84 90 94 99 104 111 117 122 128 132 136 138 138 137 135 128 118 112 106 97 92 92 89 85
71 69 68 67 67 67 70 72 69 65 67 73 75 79 84 88 85 82 85 90 96 101 107 114 118 125 129 133 138 139 138 136 133 127 119 112 104 96 89 86 84 83 77
64 62 63 65 66 68 67 67 67 68 71 75 80 85 85 81 81 87 91 98 101 108 115 120 124 127 132 137 139 137 134 128 119 115 110 103 97 89 86 82 78 73 69
60 62 63 64 62 64 62 62 67 73 77 81 83 84 81 84 88 94 98 103 109 115 119 123 128 134 138 139 137 134 128 117 111 108 102 96 89 85 80 76 70 63 59
56 58 60 61 58 59 64 70 75 79 81 82 81 80 86 89 94 99 105 111 114 118 124 129 134 138 138 136 131 123 116 110 105 99 95 88 84 79 74 69 62 55 51
56 55 54 57 63 68 71 77 79 79 79 77 82 85 90 95 101 107 112 117 122 125 129 133 136 137 135 128 120 112 108 105 98 93 88 85 79 72 67 60 52 48 44
55 58 62 68 71 75 75 75 74 73 77 81 85 91 97 103 109 113 118 123 126 131 134 136 134 130 122 115 110 103 101 98 91 86 84 79 72 64 58 53 46 43 37
62 65 68 70 69 68 67 68 73 76 81 86 92 98 104 109 115 120 124 127 133 136 136 133 127 115 109 105 100 97 93 88 81 79 75 70 62 55 49 44 41 35 31
60 63 65 61 60 64 68 72 77 82 88 94 100 106 110 115 119 122 127 132 135 135 131 122 111 107 102 98 95 90 86 80 74 73 67 60 52 48 42 39 33 28 26

GFSMW_250_spd_009.txt.gz
Wind_Speed
34 35 35 33 28 29 29 29 33 34 35 35 33 32 33 33 32 33 36 37 39 38 38 39 42 45 47 49 49 53 56 61 63 64 65 67 65 69 69 70 72 75 77
30 34 33 30 28 26 29 31 31 34 35 34 33 34 36 36 36 38 38 39 42 42 41 42 44 46 48 52 55 59 62 65 67 66 66 66 71 74 75 77 79 82 84
26 27 25 21 24 23 31 33 34 36 36 37 37 38 38 37 38 39 41 43 45 46 47 48 50 53 56 59 60 62 64 65 69 70 70 71 73 74 80 84 87 89 92
27 24 21 22 22 24 23 30 36 39 39 40 39 40 39 38 39 42 43 44 45 46 47 51 53 56 58 60 62 63 65 67 70 74 78 81 82 82 80 86 91 94 98
28 26 25 26 25 26 25 28 27 32 39 41 43 41 40 41 42 43 45 47 48 48 49 51 55 58 61 63 65 67 71 74 77 80 83 85 89 93 93 89 96 99 104
29 28 27 27 29 29 29 29 30 32 33 36 40 44 45 45 46 47 47 47 50 53 57 59 62 65 68 70 72 75 78 81 83 87 91 93 94 96 99 101 101 103 106
29 29 30 30 31 32 33 34 35 35 38 40 42 43 44 46 48 49 51 54 57 60 62 64 67 69 72 76 79 81 83 87 92 94 94 96 100 104 107 111 112 110 107
34 34 34 34 35 36 38 40 42 43 45 47 48 48 48 51 53 54 55 57 59 62 65 69 72 75 78 81 85 89 90 92 92 94 97 100 106 109 113 115 116 113 112
35 37 36 37 38 39 42 45 47 48 50 52 54 56 57 58 61 62 63 65 67 70 71 73 76 78 80 83 85 86 88 90 95 98 101 108 109 109 112 117 122 130 128
35 36 37 40 42 44 46 49 52 53 54 56 58 60 62 63 65 66 69 71 73 75 76 78 78 80 83 85 84 87 93 95 100 104 108 105 107 112 118 122 127 132 141
37 39 40 42 44 47 49 52 54 56 58 61 63 64 65 67 69 70 72 73 75 79 80 79 79 81 82 86 89 92 96 102 106 103 103 109 115 119 122 127 133 137 142
42 43 46 47 49 51 53 56 60 62 64 66 68 70 70 71 73 75 74 75 78 80 79 79 80 84 89 92 93 99 103 100 97 104 110 115 119 123 128 132 137 139 139
46 47 49 51 54 56 59 62 65 67 69 71 72 72 74 75 76 76 76 79 80 79 79 81 87 88 91 97 99 97 94 101 106 112 116 120 126 129 133 136 139 139 136
50 52 55 57 60 62 65 67 70 72 74 75 76 77 77 77 77 76 79 79 80 80 83 86 90 94 97 97 93 96 102 107 113 118 122 127 132 135 137 139 137 132 120
58 60 62 63 65 67 70 72 75 76 78 78 79 79 79 77 77 80 80 79 81 83 87 90 94 97 94 94 99 104 108 114 119 124 129 133 136 139 138 133 122 114 108
63 64 66 68 70 72 74 78 80 80 79 80 80 78 76 78 80 80 80 81 85 88 91 95 92 91 97 102 107 112 117 123 127 130 133 137 141 136 128 118 111 106 101
66 68 70 73 75 78 81 81 81 80 80 79 77 76 79 79 79 81 83 85 88 92 91 90 91 98 104 109 115 121 126 130 133 135 137 138 135 124 114 108 100 98 97
71 73 76 78 80 82 84 82 81 79 77 77 77 78 77 78 80 82 85 90 91 89 88 93 99 105 112 118 124 128 131 134 137 140 138 131 120 111 105 97 92 89 90
77 78 80 83 84 82 79 78 76 75 76 76 76 77 78 80 83 88 91 89 86 88 95 100 106 113 120 126 130 133 136 139 141 138 129 118 109 100 96 88 83 83 82
81 82 81 78 76 74 73 73 74 73 74 74 75 75 79 85 88 89 85 86 90 94 100 107 115 121 127 132 134 138 140 138 133 122 114 108 99 94 88 82 78 75 74
78 75 72 70 68 70 70 68 70 71 71 71 76 82 86 88 85 83 87 91 94 101 108 114 121 128 132 135 140 141 140 130 116 110 103 98 92 86 82 79 75 70 66
65 63 63 65 65 66 65 66 67 70 75 80 83 85 83 79 82 88 92 97 103 109 115 121 127 131 136 140 139 137 127 115 106 100 96 89 84 80 77 73 69 64 59
60 62 62 62 61 62 65 70 73 77 79 80 81 76 79 84 90 94 98 104 110 117 122 126 130 136 140 138 133 121 113 105 98 93 88 83 79 74 72 67 61 57 51
53 54 55 58 63 67 70 71 74 76 76 73 75 80 86 91 97 101 106 112 117 122 127 132 136 138 136 126 115 108 101 97 91 86 82 78 73 69 64 60 54 49 44
54 56 60 64 67 69 71 72 74 70 71 76 81 87 92 98 103 109 115 119 122 126 132 136 136 128 117 111 104 98 92 86 81 77 74 71 68 63 58 51 46 42 37
59 61 65 68 71 72 67 64 67 72 77 82 88 94 100 105 111 115 119 124 127 131 132 130 122 113 108 102 97 92 86 80 74 71 68 65 59 54 49 44 40 35 31

GFSMW_250_spd_012.txt.gz
Wind_Speed
34 33 34 35 34 35 35 32 35 37 33 35 35 37 39 39 37 39 38 38 37 38 40 44 45 45 45 47 48 49 50 53 54 56 59 63 67 69 72 73 75 76 77
33 33 33 34 35 34 37 36 35 31 34 35 35 37 39 39 40 41 41 41 40 41 42 44 44 45 48 49 52 54 57 59 61 62 65 68 73 74 76 76 78 79 81
35 36 33 29 29 31 32 31 28 28 32 36 38 37 39 40 39 40 41 42 42 43 44 45 46 47 49 50 51 55 56 61 65 67 67 68 70 72 77 80 84 86 88
36 37 31 28 29 28 27 27 27 26 27 29 30 33 38 42 42 43 44 46 46 47 48 48 50 50 50 52 56 59 62 64 67 71 75 76 76 78 75 81 87 90 93
38 36 28 30 32 31 29 27 26 26 26 28 30 31 34 35 38 41 43 45 47 49 49 52 54 55 56 58 60 63 65 67 70 72 76 80 84 87 87 84 90 93 95
39 32 29 31 30 31 30 30 29 29 30 32 34 35 37 39 41 43 45 47 50 52 54 55 57 59 62 64 66 69 71 73 75 77 79 82 86 88 89 86 86 89 95
37 33 31 31 32 31 32 32 33 34 35 38 39 41 43 46 48 50 52 54 56 59 61 61 63 65 67 69 71 74 76 78 80 81 83 85 87 88 92 95 95 95 99
37 33 32 34 36 36 35 37 37 37 39 43 45 47 49 51 53 56 58 61 62 64 65 67 69 70 72 72 75 78 81 81 82 83 83 86 92 97 99 104 107 102 100
36 35 34 35 38 38 37 39 40 41 44 47 49 51 54 58 60 63 65 66 68 70 71 73 74 75 77 77 80 82 83 82 83 86 91 94 96 102 109 110 110 111 105
37 36 36 35 37 36 37 39 41 46 48 50 53 57 60 63 66 68 71 74 75 75 77 78 80 80 80 83 82 83 83 84 88 92 95 101 106 107 106 108 113 118 123
38 37 37 37 37 38 40 43 46 49 52 54 58 62 65 69 71 74 77 79 79 80 82 83 82 83 86 86 84 85 86 89 93 98 102 105 103 104 110 114 118 124 131
40 40 41 40 40 43 45 48 51 55 57 60 64 67 71 74 78 79 81 82 83 84 84 84 85 87 89 88 88 88 90 95 99 105 102 102 106 112 116 120 125 131 135
44 43 44 44 45 48 50 53 57 61 63 65 69 72 76 80 82 83 84 85 86 86 86 86 89 90 91 90 91 92 96 103 103 102 104 109 114 118 123 128 133 134 134
46 47 49 50 52 53 56 60 64 67 69 71 74 78 82 85 86 86 87 87 87 87 89 90 91 92 93 92 94 99 101 100 102 107 113 118 123 127 131 134 136 132 124
50 52 52 54 56 60 64 67 69 71 73 76 80 83 87 90 89 89 88 88 88 90 91 91 93 94 94 98 100 98 98 103 108 114 121 126 131 134 137 137 127 117 112
54 55 58 60 63 67 70 72 73 75 79 82 85 89 91 91 90 89 88 88 91 92 92 92 91 97 99 98 96 100 103 110 117 122 128 132 136 138 133 121 115 113 110
59 60 62 65 69 72 74 75 78 81 84 86 90 92 91 89 88 88 89 90 92 91 90 94 97 95 93 97 101 106 112 118 125 130 133 136 135 126 115 112 110 108 105
65 67 69 71 73 74 77 80 83 86 88 92 92 89 87 87 87 88 89 88 88 92 95 94 91 93 98 102 108 114 120 125 131 136 137 130 120 115 111 106 101 96 93
67 69 71 72 75 79 82 85 88 90 92 88 84 83 83 85 84 86 88 91 93 94 90 91 95 98 103 109 114 120 125 130 135 136 130 120 114 109 105 96 87 85 84
68 71 74 77 80 83 86 88 87 83 80 81 80 80 81 83 85 88 90 92 90 88 94 96 100 106 110 116 122 127 131 132 130 125 117 114 108 102 94 86 81 77 75
73 76 79 82 84 84 82 79 76 75 76 77 77 80 83 84 86 89 90 87 90 95 99 103 108 113 118 124 129 134 134 128 117 111 106 103 98 91 85 81 75 70 67
77 79 81 83 78 76 72 72 72 73 74 74 78 81 82 86 88 85 86 92 96 101 107 110 114 120 125 131 134 133 126 117 108 102 99 93 88 84 78 73 69 65 60
78 75 72 69 67 68 69 70 70 71 73 76 80 84 85 80 81 86 91 98 104 108 112 117 121 125 130 133 131 122 115 107 101 97 91 86 80 74 71 67 63 58 53
65 61 62 65 64 65 66 69 70 72 76 81 82 75 77 82 87 93 99 104 110 113 119 123 127 130 131 127 120 111 103 98 93 89 85 78 73 67 64 60 56 51 45
58 58 57 60 62 66 67 69 73 77 78 73 72 77 82 87 94 100 106 111 117 121 124 128 131 128 122 116 107 101 94 88 85 80 75 70 66 60 56 52 47 43 37
53 55 60 64 66 67 70 74 77 71 69 73 77 82 88 95 101 106 112 120 123 127 131 133 127 119 113 104 98 93 89 83 79 74 69 64 59 55 50 45 41 35 32

GFSMW_250_spd_015.txt.gz
Wind_Speed
38 37 38 40 41 40 39 39 39 34 34 35 38 39 36 38 39 40 41 41 43 43 42 42 43 44 44 45 45 46 47 46 47 50 54 57 60 62 65 69 72 74 77
36 35 38 37 36 34 35 33 32 33 34 36 36 36 40 42 41 42 43 44 43 44 44 45 46 48 49 51 51 52 54 55 53 54 55 58 64 64 68 73 75 76 79
37 38 38 36 33 33 34 31 32 33 32 32 32 31 33 36 37 37 38 40 42 44 44 46 48 50 51 52 53 55 56 59 61 61 62 65 67 69 74 78 82 83 86
38 41 39 37 35 33 31 26 26 26 27 29 30 31 34 34 33 33 34 37 39 41 43 45 48 50 52 54 56 57 58 60 64 67 69 69 69 71 70 78 85 89 91
41 43 41 38 37 35 33 31 31 29 29 29 30 32 34 34 35 37 38 41 42 43 45 48 50 52 55 57 60 61 64 66 67 70 73 75 78 80 77 75 84 90 94
44 45 42 40 39 37 32 30 31 31 31 31 34 35 38 40 41 43 44 46 50 52 54 57 59 61 63 64 66 68 69 72 74 75 77 78 81 86 88 87 87 88 92
47 45 44 43 42 38 33 32 32 32 33 35 37 38 41 43 44 45 47 50 53 57 60 63 65 67 68 70 72 74 75 77 79 81 83 86 90 91 92 92 89 86 88
48 46 45 46 42 39 37 35 34 35 38 39 41 41 43 46 48 50 52 55 58 62 65 69 72 73 74 76 77 79 81 82 84 86 89 91 94 96 97 94 91 88 92
47 46 47 48 43 41 38 37 38 39 39 40 41 44 47 50 53 56 58 61 64 68 71 76 78 80 80 81 82 83 84 86 88 91 94 96 96 95 96 99 102 104 97
48 48 48 46 44 40 38 39 39 39 41 43 45 48 51 55 58 60 64 67 72 76 79 83 86 86 85 86 86 86 88 90 94 96 96 95 96 98 103 106 108 109 109
49 49 50 47 44 41 41 42 41 42 45 48 50 54 57 62 64 66 69 74 78 82 86 90 92 90 90 90 89 89 92 96 96 95 94 97 102 105 106 107 110 114 119
49 48 47 44 43 43 45 45 46 47 50 53 57 59 63 68 70 73 76 81 85 89 92 95 94 92 92 91 93 94 95 94 92 95 101 103 103 104 107 111 115 120 126
52 51 49 46 44 46 49 49 51 52 55 58 63 65 70 74 76 79 83 87 91 95 98 96 93 93 94 94 96 95 92 94 99 100 98 99 104 108 114 119 124 129 132
54 52 50 47 47 50 53 54 56 57 61 65 68 73 76 79 81 86 89 93 97 99 97 94 94 95 96 96 95 95 96 96 96 97 102 105 111 115 121 126 131 132 132
54 54 53 50 51 53 56 58 61 63 66 70 74 79 82 83 88 91 94 98 100 98 95 94 95 96 97 97 95 95 93 94 99 103 108 113 119 124 129 131 130 124 118
55 56 55 54 57 59 60 62 65 68 72 76 80 83 84 89 92 97 99 100 96 92 93 95 96 97 98 97 97 94 95 100 106 109 114 121 126 129 130 126 117 114 109
56 56 56 58 60 61 63 66 69 73 77 81 82 85 89 93 97 100 98 93 92 93 93 95 96 97 99 96 96 100 105 109 113 117 123 128 130 127 118 112 109 107 106
55 56 58 60 62 64 67 70 74 78 79 81 86 90 94 98 99 93 89 90 91 92 95 96 99 97 96 98 103 107 111 116 121 126 131 131 126 116 110 104 102 100 96
55 57 60 62 64 67 71 74 75 78 83 86 90 94 97 93 87 86 89 88 90 94 98 98 94 96 101 106 111 114 118 122 126 131 131 122 113 108 104 99 93 90 86
57 60 61 64 67 70 73 76 80 83 87 90 94 91 85 84 85 85 86 89 93 97 94 93 97 102 108 113 117 120 123 127 130 127 120 113 107 103 97 90 84 80 76
61 63 64 67 70 73 77 81 84 87 91 89 83 81 81 82 83 86 88 94 93 90 94 97 103 110 116 119 122 126 131 131 124 118 111 106 100 93 86 81 75 70 69
64 66 69 71 75 78 81 85 87 86 80 78 77 79 81 83 84 88 92 88 89 94 98 104 111 117 122 125 128 133 131 124 116 108 104 97 90 84 78 73 68 64 59
68 71 74 76 79 82 83 84 76 75 74 75 78 80 82 83 87 88 85 90 94 99 105 110 115 121 125 129 130 126 120 113 107 103 96 88 82 77 70 65 61 57 52
72 74 76 78 80 76 71 70 71 72 74 77 78 79 82 85 82 84 89 94 101 107 112 116 121 125 128 125 119 113 106 102 98 93 87 81 75 69 64 58 53 49 44
71 71 68 65 65 66 67 68 69 71 73 75 78 81 79 78 84 90 96 103 109 113 117 123 127 126 121 114 108 102 99 93 88 83 78 74 67 61 56 51 45 40 37
58 59 61 62 63 65 66 67 70 72 76 77 74 73 77 82 89 96 103 110 114 121 127 131 127 119 114 105 99 98 93 86 81 76 71 66 60 54 48 42 37 33 29

GFSMW_250_spd_018.txt.gz
Wind_Speed
56 51 47 41 40 40 43 44 44 45 45 45 46 47 44 42 43 44 42 44 46 46 48 48 50 52 50 51 52 51 51 52 54 56 58 60 60 63 64 67 68 70 73
57 50 45 39 39 38 41 41 41 43 42 41 39 39 40 41 43 42 40 40 39 39 39 41 44 44 45 47 48 50 51 51 53 57 59 62 65 65 67 70 73 75 79
57 48 42 39 38 37 36 36 37 37 36 35 36 37 38 40 39 37 38 38 40 39 38 40 41 42 43 46 48 51 54 56 56 57 60 61 65 69 74 77 80 81 84
58 47 43 39 38 36 35 34 36 35 34 33 32 34 36 36 36 37 38 39 38 39 41 43 44 46 48 51 53 55 58 62 64 66 67 68 68 69 70 79 85 89 90
58 45 43 40 40 38 36 38 36 36 33 31 33 35 36 37 38 41 41 41 42 43 44 46 49 51 54 56 58 60 63 65 69 70 73 75 76 77 74 72 80 87 93
57 47 45 42 43 39 37 40 39 38 37 36 37 37 39 39 41 42 44 45 44 45 49 51 53 56 58 61 64 69 70 74 74 75 76 78 81 83 84 82 81 81 86
56 49 45 45 44 41 40 43 43 41 39 37 38 40 40 42 44 46 47 47 49 52 55 58 61 63 66 70 73 77 79 83 84 84 84 85 85 84 85 86 86 89 93
55 48 46 45 45 43 42 45 45 44 43 40 41 42 43 46 46 48 50 51 54 57 61 64 67 69 73 76 81 84 88 91 90 88 87 87 87 90 94 95 94 87 85
56 50 47 48 47 44 45 48 47 47 45 44 44 46 48 48 49 51 53 56 60 63 68 71 74 77 80 83 88 92 95 94 91 90 90 91 94 95 95 95 96 96 89
54 50 49 49 48 47 48 50 48 48 48 48 49 49 50 51 52 55 58 61 65 69 74 78 80 83 87 92 96 99 96 93 92 93 95 96 96 96 98 99 98 99 99
54 50 48 48 49 50 51 51 51 51 50 49 51 52 53 54 57 61 64 67 71 77 81 84 87 90 94 99 102 100 94 93 95 97 97 96 97 97 97 97 99 103 110
53 49 48 49 51 52 52 52 52 53 52 52 54 55 57 60 63 67 70 74 79 84 88 90 93 97 102 105 100 95 95 97 97 99 97 98 96 96 99 103 108 114 119
52 50 50 51 51 53 53 52 53 52 53 55 58 60 62 65 69 72 76 81 86 90 92 95 99 104 106 100 96 96 98 98 98 98 96 95 97 103 109 114 118 122 125
52 51 50 51 52 54 53 52 52 53 56 59 61 64 67 70 74 77 82 87 91 93 97 101 105 107 100 97 98 98 99 99 99 96 99 103 108 113 118 122 125 127 128
52 51 50 50 53 53 52 54 56 58 60 62 64 67 71 75 78 83 88 92 94 98 102 106 107 98 97 98 98 98 98 97 96 102 106 113 118 122 126 128 127 125 119
53 51 50 52 54 55 57 58 60 62 63 66 69 72 76 79 83 87 92 94 98 102 107 105 97 98 97 98 99 97 94 99 103 109 115 121 125 128 128 127 121 115 107
49 48 49 53 56 58 59 62 63 65 68 71 74 76 79 82 87 90 95 99 103 107 101 97 96 97 98 99 97 96 100 106 113 118 123 127 130 127 121 113 108 104 101
49 49 51 54 56 59 61 63 66 68 70 73 76 78 82 86 90 94 99 103 104 97 96 96 97 97 99 95 97 102 109 116 121 125 131 130 124 118 109 102 99 96 90
49 50 51 54 56 59 61 64 67 69 73 75 78 82 86 90 94 98 103 98 94 95 96 96 96 97 95 99 104 111 117 123 126 132 130 123 113 105 101 96 91 87 82
52 53 54 55 56 57 59 62 67 72 74 78 81 86 89 94 98 99 91 91 92 94 93 95 94 94 100 106 113 119 122 126 129 126 122 114 106 100 94 87 82 79 75
54 55 56 57 59 61 64 68 70 73 77 81 85 90 94 97 92 88 88 90 90 92 92 90 95 100 108 114 119 125 130 129 122 117 110 105 100 94 87 81 76 72 69
55 56 58 60 62 65 68 70 74 77 81 85 89 93 91 86 85 85 87 88 88 87 88 94 101 109 115 121 125 130 129 121 115 109 104 97 91 85 80 77 72 66 61
56 58 61 63 66 68 71 74 78 82 86 89 88 82 81 81 82 83 86 85 84 88 94 100 106 113 120 126 129 125 117 112 108 103 96 89 83 80 75 69 64 59 55
58 60 63 65 68 72 75 79 82 83 82 77 78 78 78 79 82 82 80 83 88 94 100 106 112 118 125 126 118 111 108 102 99 95 88 83 79 75 70 63 57 53 48
62 64 67 69 72 75 77 76 75 72 73 73 73 75 76 77 75 77 82 89 95 100 105 110 117 122 121 114 108 102 98 94 90 84 80 77 73 66 60 55 51 45 40
65 68 70 70 68 67 66 66 68 69 70 72 72 71 70 71 76 83 90 96 101 107 112 119 121 118 113 106 99 96 92 87 81 78 76 72 65 59 53 49 44 39 35

GFSMW_250_spd_021.txt.gz
Wind_Speed
77 74 68 63 58 52 52 50 48 52 58 65 65 61 60 59 58 51 53 52 47 47 46 44 42 40 41 42 43 43 43 46 49 52 54 55 58 61 64 66 68 69 71
75 75 71 65 59 53 49 47 45 42 41 42 43 45 46 47 49 48 48 46 46 44 41 42 41 43 43 43 45 47 47 49 51 53 55 58 61 62 66 70 73 75 77
73 74 72 67 60 54 49 47 45 43 40 39 41 43 45 45 45 44 43 43 41 40 42 42 42 44 46 46 48 51 53 55 56 58 60 62 67 71 79 81 81 82 84
71 73 71 67 61 54 49 46 44 43 38 37 39 41 40 40 40 40 39 39 39 41 42 45 46 47 48 50 53 57 60 62 65 67 69 71 74 76 77 86 89 88 87
71 72 72 68 61 52 48 46 45 41 37 38 38 37 37 37 35 37 39 40 43 44 44 47 50 50 52 55 58 61 64 68 71 74 77 80 83 86 85 82 85 87 89
70 73 72 67 60 54 50 47 44 39 39 39 39 41 40 39 40 41 42 44 45 46 49 52 54 55 56 59 63 67 70 74 78 81 83 86 91 96 97 92 87 81 82
71 73 70 67 60 55 50 48 44 40 42 42 43 43 43 44 43 44 46 47 48 51 53 55 57 60 62 65 69 74 77 82 85 88 91 96 101 102 97 89 84 82 85
70 70 70 66 59 54 52 50 45 42 43 45 45 46 47 47 47 49 49 50 53 55 57 59 61 66 68 72 76 82 87 90 93 96 100 105 104 95 93 91 92 88 87
69 68 70 66 58 55 53 50 45 44 46 48 48 48 50 50 51 52 53 55 58 59 61 63 68 72 75 78 84 90 93 97 101 104 110 106 97 96 99 99 95 90 81
72 71 70 62 58 56 52 50 47 47 47 49 50 51 52 52 53 55 57 59 61 63 65 69 73 77 81 86 91 96 99 104 108 113 107 100 100 101 99 99 98 96 96
75 73 69 61 57 55 52 51 48 48 49 51 53 54 53 53 55 58 60 64 66 68 71 75 79 82 88 92 98 101 105 110 115 109 102 104 102 100 101 98 99 102 108
70 69 66 60 57 56 53 51 50 51 52 53 54 55 56 56 59 62 64 67 71 74 76 80 83 88 93 99 102 107 111 116 110 105 105 103 102 100 98 101 106 113 120
69 68 63 60 58 55 52 52 51 52 53 54 56 56 57 59 62 65 68 71 74 76 80 84 89 94 99 103 108 112 116 111 107 107 102 102 99 101 105 112 117 122 127
69 67 62 59 55 54 52 52 52 52 53 55 56 58 60 62 65 68 72 75 78 81 85 91 94 98 103 107 112 116 110 108 107 103 102 100 104 109 115 121 126 130 131
67 64 60 56 54 54 52 51 51 52 54 55 58 60 63 66 69 72 76 80 83 87 91 94 98 103 107 111 115 107 108 105 103 100 103 109 114 119 125 130 131 131 123
63 60 58 54 52 50 49 49 51 53 56 59 61 64 67 70 73 77 80 84 87 91 94 98 102 106 111 112 106 107 103 102 99 103 110 117 122 127 131 132 130 122 108
60 57 52 50 48 46 47 49 52 54 58 60 64 67 71 73 77 81 83 87 91 94 98 101 106 110 108 105 105 100 99 100 106 113 118 124 128 131 130 125 118 109 102
56 53 51 49 47 46 47 51 54 57 59 63 66 69 72 75 78 81 85 89 93 97 101 106 108 103 104 101 98 96 100 107 115 121 127 130 130 129 121 112 106 102 96
54 51 49 47 46 48 50 53 55 57 60 63 67 70 72 75 79 83 88 92 96 101 105 103 100 101 98 96 95 100 106 113 120 126 131 131 126 118 108 102 99 94 88
50 48 48 48 48 50 52 53 56 59 62 65 68 71 74 78 83 87 91 96 101 101 97 98 98 94 91 95 100 107 112 118 124 130 130 124 116 107 102 97 89 85 81
47 46 46 47 49 51 54 57 60 62 66 69 72 75 79 83 87 91 96 97 94 93 95 94 91 89 95 100 107 113 120 125 128 126 119 111 105 102 96 89 82 77 75
46 46 47 49 51 55 58 60 62 65 69 72 75 79 83 87 91 92 90 89 91 92 89 86 90 96 102 107 112 120 126 129 124 117 109 102 99 93 86 81 76 72 66
46 48 51 53 54 57 60 63 65 68 71 74 79 83 86 87 85 85 87 88 85 81 82 87 94 100 107 112 119 126 127 123 117 108 101 97 90 83 79 74 69 63 58
49 51 53 56 58 59 61 64 67 71 75 78 81 82 79 79 83 83 81 76 76 81 87 92 98 105 111 118 124 123 119 113 105 98 95 87 81 77 74 70 63 57 53
49 51 54 57 59 61 65 69 72 74 77 77 73 74 77 78 75 69 69 75 80 86 91 97 103 109 115 121 118 113 107 99 94 91 84 79 75 70 65 59 56 52 46
51 54 57 60 63 66 68 71 70 67 66 69 72 74 71 65 65 69 75 80 86 91 98 103 109 116 120 114 109 104 97 91 89 82 77 74 69 65 58 54 50 46 42

GFSMW_250_spd_024.txt.gz
Wind_Speed
68 68 68 72 74 75 72 65 61 60 57 55 53 50 51 56 62 68 70 70 69 68 59 54 51 49 47 44 43 44 45 48 50 51 51 54 57 59 63 66 68 70 73
65 70 70 70 72 72 72 68 62 58 52 50 48 47 50 52 55 58 60 58 56 52 51 48 48 46 43 43 43 46 49 51 53 54 57 60 62 64 67 71 74 77 81
58 66 71 70 70 71 70 68 63 59 52 48 45 44 47 47 46 46 47 47 49 48 47 47 43 43 42 44 47 50 51 53 55 57 59 61 64 67 77 82 83 85 89
55 58 68 70 68 71 70 66 64 59 52 48 45 44 48 46 46 45 46 45 45 45 45 43 43 43 46 49 52 54 56 59 61 63 65 68 69 71 74 87 93 95 99
51 55 65 71 68 68 70 68 62 59 53 49 47 45 48 46 45 44 43 42 42 42 42 43 45 48 51 54 57 59 62 65 66 70 72 75 77 81 79 79 90 98 105
52 57 61 68 68 66 68 67 64 60 53 49 48 46 46 45 45 43 41 41 43 44 45 47 50 53 56 59 62 64 68 69 71 75 78 82 85 91 93 93 95 97 107
57 58 58 64 68 66 67 67 65 59 52 50 49 47 45 46 45 45 44 46 47 48 50 52 55 58 61 65 68 69 72 73 78 81 85 88 93 97 100 103 105 107 101
57 57 60 61 67 65 65 67 65 58 52 50 49 47 46 47 48 47 48 49 50 51 53 56 60 63 67 70 72 74 77 80 84 88 92 97 100 105 109 112 115 106 99
57 60 60 60 66 65 66 67 63 58 53 51 49 48 48 49 50 50 51 50 51 55 57 60 64 67 70 74 77 80 83 86 90 94 98 102 108 113 116 120 116 109 102
57 59 60 60 65 64 65 66 62 57 53 52 50 49 50 51 52 52 52 53 55 57 61 64 68 72 74 78 80 84 86 91 95 100 103 109 114 118 122 116 116 111 103
56 60 62 63 65 64 62 63 60 56 54 53 51 49 51 53 53 54 55 57 59 62 65 68 72 75 78 81 85 88 93 97 101 105 109 115 118 122 116 116 109 107 108
56 58 59 61 62 62 62 63 60 55 53 53 51 51 53 53 54 56 58 59 62 66 68 72 75 78 82 86 90 94 97 101 106 111 115 119 122 115 114 108 107 110 116
52 55 59 57 61 61 62 61 57 55 54 53 52 51 52 53 56 58 60 63 66 69 72 75 79 83 87 92 95 97 102 107 111 115 119 119 114 110 106 108 114 119 123
56 57 56 55 63 61 60 57 56 55 53 51 50 51 54 56 58 61 64 66 69 71 75 79 83 88 92 95 98 102 106 112 115 119 115 114 107 104 109 115 121 125 128
55 57 56 59 59 58 58 56 55 53 50 49 50 53 55 58 61 64 66 68 72 76 80 83 88 91 93 97 101 105 111 115 117 112 111 105 103 110 117 123 127 131 133
52 52 55 58 57 57 55 54 53 51 48 49 52 54 57 60 63 65 68 72 76 79 83 87 90 92 95 100 105 109 114 113 110 108 102 104 111 117 123 129 133 135 124
46 51 55 54 55 54 52 51 51 50 49 51 54 57 60 63 64 67 71 74 77 80 84 87 91 95 100 105 109 112 106 108 103 100 106 111 117 124 129 132 132 123 111
43 51 52 53 52 51 50 49 48 48 50 52 56 58 60 63 66 69 73 75 79 82 86 90 95 100 104 108 105 104 104 97 99 107 113 117 124 131 132 125 117 111 103
45 50 51 52 50 48 47 46 45 47 50 53 55 58 61 64 68 72 75 79 83 86 91 95 100 104 105 100 103 96 93 99 106 114 119 125 129 130 120 112 107 102 98
44 49 49 48 46 45 44 45 46 49 52 54 57 60 63 67 71 75 79 82 87 90 95 100 102 96 98 94 88 93 98 104 110 118 126 130 129 118 111 105 100 97 90
45 47 46 44 44 43 44 46 48 52 54 56 60 63 67 71 75 78 82 86 89 94 98 95 93 92 85 87 93 99 105 110 116 124 129 126 116 111 106 101 95 86 81
45 44 44 43 43 44 46 49 52 53 55 59 62 66 70 74 78 81 85 89 93 92 88 90 85 83 88 93 98 105 111 118 124 127 123 115 111 104 99 93 84 79 74
43 43 44 45 44 45 47 50 53 56 59 62 66 71 73 76 81 85 88 88 84 85 81 77 81 87 94 99 105 112 118 124 126 122 116 108 100 95 87 81 78 72 65
41 43 43 43 45 46 49 53 56 59 63 67 70 72 76 80 83 82 81 82 79 73 74 79 85 91 98 104 111 117 123 123 118 112 102 95 90 83 79 76 70 63 58
40 42 43 44 47 49 53 56 60 62 65 69 72 76 76 75 76 77 75 70 69 73 78 84 91 96 103 110 116 120 117 112 104 94 91 86 79 75 71 64 60 57 52
40 43 46 48 51 53 56 59 62 66 69 72 69 68 70 73 71 67 65 67 73 78 83 90 95 103 110 116 117 114 112 100 91 89 83 77 73 69 63 58 53 49 47

GFSMW_250_spd_027.txt.gz
Wind_Speed
58 57 55 59 66 70 71 70 71 71 68 67 63 58 56 53 53 53 51 49 50 56 60 63 64 66 68 67 59 55 54 53 50 48 48 52 54 57 60 61 62 64 66
59 59 59 56 66 71 72 69 70 70 68 67 64 59 54 52 53 49 48 48 51 55 58 61 62 62 58 54 53 52 51 50 49 51 54 57 58 60 64 67 69 71 74
57 58 58 53 61 68 72 71 68 68 67 66 63 60 54 51 50 47 46 49 51 54 55 56 53 50 52 52 51 50 48 50 52 57 58 61 64 66 72 75 75 77 81
58 59 56 53 53 63 68 70 68 66 66 66 64 60 54 51 51 47 47 48 49 50 49 47 49 52 49 50 49 48 51 53 57 60 63 66 68 70 72 82 86 87 91
61 61 55 51 53 59 64 67 67 65 65 66 64 60 55 53 50 49 49 51 52 51 48 47 49 48 48 48 49 53 55 58 62 64 68 72 74 75 75 76 86 92 96
64 61 56 52 52 55 58 64 66 64 64 64 64 61 55 52 51 51 51 51 52 49 47 46 47 49 50 53 55 57 60 64 66 69 73 76 78 82 82 81 83 86 95
65 62 54 53 53 54 55 58 65 64 63 64 64 61 57 53 52 52 51 52 52 49 50 51 50 52 54 55 58 61 64 68 72 74 78 81 83 86 87 89 89 90 96
65 59 52 55 54 56 55 54 60 62 63 64 63 61 58 54 52 52 51 53 52 51 53 53 53 54 57 59 62 65 70 73 76 79 83 86 88 91 94 96 96 97 102
64 60 54 53 56 58 59 53 56 61 62 63 64 61 58 54 52 53 53 54 54 54 56 55 57 59 60 63 66 70 74 77 81 84 88 90 93 97 100 103 106 107 106
59 56 50 51 56 57 57 53 54 60 61 63 63 61 58 54 52 53 54 55 56 57 57 58 60 62 64 67 71 74 78 82 85 88 92 95 99 103 106 109 113 117 119
58 56 47 50 55 57 57 53 52 59 60 62 62 61 57 54 53 54 55 57 58 58 59 61 63 66 68 72 74 78 82 86 90 93 97 100 103 107 111 115 119 122 116
55 55 49 51 56 58 56 52 51 59 61 61 61 59 56 54 54 55 57 58 58 60 61 64 66 69 73 75 79 82 86 91 94 98 100 103 107 112 116 120 121 115 113
57 55 49 50 54 54 54 52 51 57 59 59 60 58 56 55 55 57 57 58 59 60 63 66 70 73 76 78 82 86 91 94 97 99 103 108 112 117 120 116 114 107 111
58 52 51 51 51 52 52 52 48 57 58 58 59 57 56 56 56 57 57 57 59 62 65 70 73 75 79 83 86 90 93 97 100 105 108 112 117 117 113 108 106 112 118
54 51 52 51 50 51 50 47 49 57 57 57 58 56 55 56 57 56 56 58 60 64 68 71 75 79 82 86 89 92 97 101 106 110 114 116 112 109 102 108 114 121 126
51 49 51 48 46 46 46 43 46 54 55 56 56 56 56 55 56 56 56 58 62 66 71 76 79 82 85 88 92 96 101 106 109 114 113 109 99 104 109 115 123 130 131
51 51 52 48 47 44 40 39 47 53 54 56 56 54 53 54 55 56 57 61 65 71 74 78 81 83 87 92 97 101 105 109 111 108 102 98 103 110 115 122 129 134 133
45 47 47 46 43 39 39 40 49 53 53 52 51 51 52 53 54 57 60 64 69 72 76 79 83 87 91 96 100 105 109 106 104 95 99 103 110 118 124 128 131 128 117
32 35 34 35 35 35 37 42 48 49 49 48 49 50 51 53 56 58 63 67 71 75 78 82 86 92 95 100 105 105 102 95 93 99 106 111 118 126 128 129 121 113 106
19 24 27 27 28 30 36 41 45 44 44 44 46 48 51 54 57 61 66 71 74 78 82 87 91 94 101 104 101 99 86 92 98 105 112 120 126 129 127 116 107 104 101
11 16 19 23 26 30 34 39 40 41 42 43 46 49 52 56 61 66 70 73 77 82 87 90 95 99 98 96 87 85 91 96 104 110 118 125 129 125 112 106 103 100 93
2 11 18 23 26 30 34 37 39 40 42 45 48 51 55 60 65 69 73 77 82 85 89 95 96 94 90 79 85 91 98 105 111 117 125 129 123 112 104 102 98 89 83
5 12 17 23 28 32 36 39 42 43 45 47 51 56 61 65 69 72 77 81 83 88 91 89 89 82 81 86 92 97 105 111 119 126 129 122 110 104 100 93 84 80 75
8 13 17 23 30 35 40 43 43 45 49 53 56 60 64 68 72 75 78 83 86 84 84 82 75 78 84 91 97 103 110 118 124 126 119 107 101 96 89 81 77 72 68
13 18 25 28 37 42 45 46 48 51 54 57 60 64 67 71 74 79 82 79 79 80 75 72 77 83 90 96 102 108 116 121 118 112 103 97 92 83 76 72 67 65 61
18 21 26 34 40 43 46 49 52 55 58 62 65 68 71 75 78 76 75 77 75 68 70 76 82 89 95 100 107 116 121 114 108 99 93 87 78 74 71 67 61 56 53

GFSMW_250_spd_030.txt.gz
Wind_Speed
55 60 61 64 61 59 61 62 60 61 61 64 66 68 69 65 60 60 57 56 57 53 53 53 54 56 55 56 60 63 65 65 66 65 58 58 57 56 55 57 59 62 64
57 58 61 61 62 63 62 62 62 59 59 62 64 66 67 66 62 59 58 58 55 52 54 53 52 51 53 56 60 61 63 63 59 59 58 57 55 55 58 61 64 66 69
67 62 63 63 62 60 63 64 64 61 59 60 62 62 66 67 63 60 59 59 56 56 54 52 52 53 53 54 54 55 54 55 58 58 56 55 55 57 63 66 69 71 74
72 69 66 66 64 60 61 64 64 63 61 61 62 63 63 65 62 59 60 61 58 55 55 52 54 54 54 53 52 53 55 55 55 56 56 57 59 61 65 73 76 78 81
81 75 71 66 67 62 60 61 61 59 62 64 65 64 63 62 60 61 63 63 59 58 57 56 56 57 56 55 54 53 50 52 54 56 59 62 64 66 68 74 81 82 87
81 81 77 68 66 63 59 59 58 57 61 64 66 67 63 60 58 62 62 63 61 59 58 58 58 58 57 55 54 52 53 56 58 60 63 66 69 72 74 76 80 85 92
79 79 75 70 65 63 61 61 58 56 58 61 63 66 64 53 59 63 64 64 62 60 59 59 59 59 59 57 55 56 58 59 60 63 67 70 74 77 80 81 83 86 91
76 74 76 71 66 62 59 59 56 54 56 57 58 62 62 58 62 63 63 63 62 60 60 60 61 61 60 59 59 60 61 63 66 69 72 75 78 82 84 86 87 90 95
85 78 75 70 67 63 57 58 54 52 54 53 54 59 62 60 61 66 66 65 63 61 62 62 62 62 62 62 64 63 65 67 71 73 77 81 83 86 88 91 94 95 94
95 87 82 74 68 64 59 56 50 51 52 50 50 56 61 61 60 66 67 66 65 63 63 62 62 63 64 65 66 67 69 72 75 79 82 85 88 91 93 96 99 101 102
86 82 78 73 66 63 60 57 51 50 51 50 48 53 60 62 61 66 67 66 64 63 63 63 62 64 66 66 67 70 73 76 80 83 86 89 92 95 98 101 104 108 111
76 70 70 70 64 62 60 57 51 49 50 50 50 50 58 62 63 65 66 66 65 64 64 63 64 64 67 68 70 72 76 80 83 86 89 93 96 100 102 106 109 112 117
72 65 66 66 61 58 55 51 48 50 52 51 49 49 55 63 64 64 67 67 65 64 64 65 65 66 67 70 73 76 80 83 86 90 93 96 99 103 107 110 114 119 117
66 60 62 60 57 52 50 46 46 49 50 48 49 50 52 61 63 65 67 67 65 64 64 65 66 67 69 72 75 79 82 86 90 92 96 99 103 107 111 117 118 113 108
59 54 57 56 53 50 45 44 46 46 47 48 49 50 50 59 63 64 65 65 63 63 65 65 66 68 72 75 78 81 86 89 93 96 100 104 109 113 118 115 109 104 112
51 49 51 53 51 46 43 43 45 47 45 46 47 47 49 57 62 62 63 62 61 63 64 65 67 71 74 77 80 85 89 93 96 101 106 110 115 116 111 100 107 114 121
45 44 48 50 47 43 41 45 46 44 43 45 46 46 48 55 58 59 60 60 61 61 63 66 69 73 77 80 84 88 93 97 102 107 111 116 112 103 101 107 115 122 128
42 44 44 44 42 38 41 43 42 41 39 40 43 45 47 52 54 55 57 58 60 62 65 68 72 76 80 84 88 92 96 102 107 112 116 109 97 102 108 114 122 127 131
43 41 42 42 42 41 43 44 42 40 39 40 42 41 44 48 51 53 55 57 60 63 67 70 75 79 83 88 92 97 102 107 112 113 107 98 102 110 118 122 127 131 133
36 40 40 41 43 44 40 40 37 35 36 37 34 37 42 45 48 51 55 58 62 65 69 73 78 83 87 92 97 102 106 110 108 102 97 102 110 118 123 127 131 129 118
16 21 27 32 33 33 33 31 30 27 25 27 32 37 41 43 47 51 55 59 63 67 72 77 82 87 92 96 101 106 109 103 97 95 101 109 117 122 126 131 126 113 106
16 14 12 14 16 16 15 15 17 20 23 28 32 35 39 44 48 53 57 62 66 71 77 82 86 90 94 99 104 103 99 92 94 100 108 116 122 126 130 122 111 104 99
10 9 7 6 6 8 10 13 16 21 25 30 34 38 43 47 52 57 61 66 71 76 81 85 90 95 99 98 95 90 89 94 100 108 117 122 126 127 117 108 103 97 89
7 7 5 1 3 7 12 16 20 24 29 34 39 43 48 53 58 62 67 72 76 80 85 90 95 95 91 85 83 90 94 100 107 115 121 124 123 112 105 100 93 86 81
6 6 5 6 9 13 16 20 25 30 34 40 45 51 56 60 65 69 73 77 81 85 89 90 84 77 77 83 88 94 99 104 111 117 121 116 107 101 96 88 81 77 72
10 11 13 15 17 20 23 27 32 37 42 47 53 59 63 67 71 74 78 81 84 85 78 71 73 77 82 87 92 98 105 109 114 116 109 101 96 92 85 80 74 68 62

GFSMW_250_spd_033.txt.gz
Wind_Speed
64 62 60 61 61 58 58 61 62 66 63 60 59 57 59 60 61 64 66 70 70 68 66 64 63 59 58 58 58 56 53 52 53 55 58 59 60 63 64 62 59 58 60
67 66 65 65 63 63 58 59 62 64 64 62 60 58 56 57 57 60 62 67 68 68 68 65 64 62 59 56 57 54 53 54 53 53 54 57 59 58 57 59 58 59 61
71 70 69 66 66 65 61 57 59 63 64 62 62 60 58 57 56 60 62 64 64 65 67 67 65 62 61 57 57 55 55 56 56 55 55 52 56 56 56 56 57 60 63
73 72 71 68 67 68 68 63 60 60 62 61 58 61 60 58 59 61 62 63 64 66 68 69 66 65 63 60 58 57 57 59 58 59 56 57 53 52 55 59 62 64 68
79 77 75 72 71 70 70 71 66 60 61 63 57 58 59 59 60 61 63 62 64 68 70 69 67 66 64 62 61 60 60 60 60 59 58 59 58 58 59 63 67 69 72
87 84 81 80 78 74 69 70 68 64 62 64 59 57 56 57 57 58 62 66 65 68 71 70 69 67 65 64 63 62 63 64 62 62 62 63 63 63 64 65 70 73 79
95 91 86 85 81 78 74 70 70 68 65 63 60 57 56 56 55 56 57 63 65 68 70 72 70 68 68 66 65 65 64 65 65 66 66 67 67 69 71 71 74 76 82
97 94 92 88 84 80 73 71 74 72 68 62 60 55 57 55 55 53 53 58 64 69 71 72 70 69 70 68 67 66 66 67 68 69 69 70 72 73 76 78 79 81 85
97 98 95 92 87 84 76 72 73 71 67 64 60 55 56 54 55 54 53 59 63 67 70 72 73 73 72 70 68 68 68 69 71 71 73 74 76 78 80 82 85 87 88
87 88 89 89 82 78 71 69 69 69 67 62 57 57 56 54 52 52 52 58 64 68 71 71 73 73 73 72 69 69 72 72 73 74 76 78 80 82 84 87 90 93 93
86 85 81 80 76 72 68 64 62 62 64 59 58 57 57 55 53 51 51 54 61 66 71 73 75 75 74 73 71 72 74 74 76 77 78 81 84 86 89 91 93 95 97
91 91 85 85 80 73 69 66 64 64 60 58 57 56 58 57 56 52 50 52 62 67 69 73 75 76 75 74 73 73 75 76 78 79 82 84 86 89 92 94 96 99 102
81 91 86 84 81 75 71 70 69 67 63 58 53 54 59 58 56 57 52 50 56 65 70 71 72 73 74 74 73 74 75 78 80 82 85 87 90 93 95 98 101 104 108
65 76 77 78 77 67 65 65 68 65 58 56 52 57 59 58 59 56 53 53 55 61 69 71 70 71 72 73 73 75 77 79 82 84 87 90 93 97 100 102 106 110 114
45 60 61 63 56 50 51 53 56 55 54 50 52 54 53 55 56 57 54 56 58 59 65 69 69 70 72 73 74 76 79 81 84 86 90 93 97 100 104 107 111 116 122
29 46 45 43 40 40 45 47 48 49 47 45 49 51 51 51 54 56 56 56 58 57 58 65 67 68 70 72 74 76 79 82 85 89 93 97 100 104 107 112 117 123 126
23 36 36 33 32 39 41 43 43 43 42 45 44 45 46 48 50 56 51 52 54 54 55 60 63 67 69 71 73 77 80 84 88 92 96 100 104 108 111 116 122 122 121
29 34 29 26 32 36 38 38 40 40 42 42 39 34 43 47 50 48 50 51 49 47 51 56 61 64 67 69 74 78 82 86 91 95 100 104 107 112 117 121 119 116 117
25 25 29 33 34 35 36 38 39 39 40 41 36 40 52 46 49 49 48 46 43 45 50 55 59 63 66 73 77 81 85 89 94 99 103 107 112 118 120 114 110 116 121
23 27 30 31 32 33 33 32 34 35 36 37 39 41 46 47 45 45 41 39 41 46 51 55 60 65 70 75 79 83 88 92 97 103 108 113 118 116 108 109 116 119 124
20 21 23 24 26 27 27 26 30 37 36 38 45 42 41 39 36 34 35 39 44 48 52 58 63 68 73 77 83 88 93 98 102 108 113 116 107 104 110 116 120 124 127
16 18 20 23 24 26 29 33 37 37 36 34 32 29 28 28 31 34 38 42 47 52 58 63 68 72 77 83 89 94 99 104 108 113 108 102 105 111 116 120 124 127 123
14 15 16 15 16 18 20 21 21 20 18 19 20 23 26 30 34 39 44 49 54 59 64 69 74 79 83 89 94 101 105 108 105 100 100 105 111 116 121 123 126 118 104
13 15 14 11 10 9 9 9 10 12 15 19 22 27 31 36 41 46 52 57 61 66 71 76 81 86 91 95 100 103 102 97 95 100 106 112 116 121 123 123 110 100 93
11 10 9 8 9 11 12 13 15 17 20 24 28 33 39 44 50 56 60 64 68 73 78 83 87 91 95 97 95 91 91 94 99 104 111 116 120 123 116 103 96 91 83
7 7 8 10 12 13 15 17 19 23 27 31 35 40 46 52 57 62 67 70 74 78 81 85 86 85 82 81 85 90 96 100 105 111 115 118 117 105 97 92 86 79 75

GFSMW_250_spd_036.txt.gz
Wind_Speed
71 69 66 65 63 65 63 58 56 53 56 54 55 56 55 57 58 59 58 59 61 65 66 67 68 70 72 72 70 69 67 62 59 56 55 56 54 54 54 53 54 56 57
68 72 74 70 66 66 67 64 61 56 58 56 54 54 51 56 59 58 58 57 59 61 63 65 68 67 71 72 72 71 70 66 61 58 56 55 56 57 55 56 58 55 58
76 77 73 78 73 68 69 69 67 64 58 61 56 50 51 55 58 59 61 60 59 59 59 62 64 67 69 71 71 71 70 68 63 61 58 56 58 59 60 60 59 58 58
81 81 79 77 81 74 72 69 69 69 66 62 59 54 52 53 55 59 58 58 59 60 61 63 63 69 69 71 70 68 68 67 66 63 61 60 60 61 62 63 60 62 61
86 85 84 79 83 80 75 72 70 69 69 65 64 59 59 55 56 58 57 55 57 60 63 62 64 67 69 70 75 72 70 70 69 67 64 64 64 63 62 65 64 64 67
92 93 92 87 86 85 80 75 71 69 68 67 68 63 65 56 58 60 56 54 54 54 58 61 62 68 68 70 74 75 74 73 71 70 68 67 69 68 66 65 68 69 73
100 102 99 94 88 90 85 80 75 73 72 70 70 65 66 61 62 63 58 56 54 51 54 56 61 65 70 71 73 76 76 75 74 72 72 70 71 71 70 69 70 72 76
105 100 95 94 92 90 90 87 81 75 76 72 72 70 60 63 63 64 60 58 54 50 52 52 55 63 68 72 75 76 77 76 75 75 74 73 74 75 74 75 74 76 78
96 93 93 92 93 93 90 90 85 79 82 77 79 71 60 65 65 61 60 59 55 52 54 54 57 61 67 70 74 77 78 79 79 79 78 77 77 78 78 79 80 80 78
90 88 86 87 91 91 91 90 88 83 82 79 77 68 65 67 63 60 58 58 56 55 56 55 55 58 68 70 73 75 76 79 80 81 81 82 81 82 82 83 85 85 84
86 88 86 81 82 90 90 88 87 85 80 81 71 69 70 65 62 61 57 58 58 57 58 59 56 57 62 70 75 76 79 80 80 82 82 83 83 84 86 87 88 90 91
59 67 74 77 81 83 81 80 82 83 80 76 72 70 63 59 59 59 57 58 57 58 62 58 57 59 63 66 72 77 79 82 84 85 86 87 87 87 87 89 91 93 95
51 53 68 71 77 80 80 77 68 63 61 60 60 59 53 49 53 56 55 56 59 61 60 58 59 60 63 63 68 75 80 80 80 82 83 86 86 87 88 90 92 96 98
39 43 51 63 70 71 82 77 63 56 55 56 56 52 51 49 51 52 54 57 59 60 62 61 62 65 65 64 66 70 73 78 79 80 80 83 85 86 88 91 94 97 100
27 31 34 48 54 63 73 67 63 60 57 54 51 51 50 51 53 53 56 57 58 59 57 61 65 67 68 67 66 68 68 70 74 77 79 81 83 85 88 91 95 99 102
14 16 23 28 40 49 53 59 59 56 54 53 52 53 53 52 50 54 54 55 56 58 60 60 63 64 66 67 66 64 61 64 69 74 77 79 82 85 89 93 97 102 106
2 7 11 17 22 25 34 44 48 50 52 53 51 48 46 46 48 49 51 53 56 55 57 59 61 63 66 67 62 59 59 63 67 72 75 79 83 88 91 96 101 107 112
22 21 19 19 19 21 25 30 35 38 37 36 36 36 38 40 41 44 48 51 48 52 56 60 63 63 62 58 56 57 59 63 68 73 78 82 87 92 96 100 105 111 117
23 21 21 20 20 22 24 26 28 27 27 28 31 32 30 25 31 44 50 52 56 59 63 63 60 56 54 54 54 58 63 67 72 78 83 88 93 98 102 105 110 117 124
19 21 21 22 23 22 21 20 20 21 22 24 26 27 30 31 39 53 62 62 62 65 61 56 52 51 53 56 61 64 68 73 79 85 90 95 98 102 107 110 115 120 120
18 17 16 16 15 13 13 12 13 17 21 24 28 30 30 42 39 46 52 57 56 52 50 51 53 55 59 62 66 71 76 81 86 92 96 101 105 109 113 115 114 111 112
15 11 9 9 7 6 9 11 13 21 26 29 30 29 36 46 46 43 41 41 44 48 51 54 57 60 65 69 74 79 84 88 91 97 102 106 110 110 108 107 111 113 117
5 18 10 10 11 11 14 13 23 27 29 27 24 30 39 43 37 37 40 44 48 51 55 60 64 68 71 76 80 85 90 94 97 101 102 100 100 102 108 110 113 118 120
3 2 7 9 15 17 16 22 29 30 26 26 25 26 28 31 35 38 41 46 52 57 62 66 70 74 77 81 84 87 90 91 91 92 96 100 104 110 112 117 118 114 102
2 1 5 7 9 10 11 12 15 17 19 22 24 27 29 32 36 41 47 54 59 64 68 71 73 76 78 78 79 80 82 86 90 95 101 108 111 115 115 108 99 92 86
7 9 9 9 10 10 11 13 16 18 21 22 23 26 30 35 41 47 53 60 64 67 69 69 69 68 68 71 77 82 88 92 97 103 108 111 111 104 97 91 85 80 75

GFSMW_250_spd_039.txt.gz
Wind_Speed
73 69 72 73 71 72 70 70 67 63 65 64 60 55 54 51 53 53 51 53 54 55 58 59 61 61 61 62 65 67 70 72 74 75 76 75 74 68 67 64 61 60 59
77 75 74 73 71 71 71 73 71 68 65 65 65 59 55 51 53 54 52 51 52 54 55 58 61 62 61 59 61 65 67 69 72 74 75 76 75 72 69 68 65 63 61
80 76 75 74 71 71 74 75 73 69 72 69 66 61 59 55 56 55 55 51 53 54 54 57 63 63 63 61 61 63 65 66 67 69 70 72 73 73 71 71 70 67 65
80 78 77 75 74 75 77 79 80 77 73 71 73 68 63 62 61 59 58 52 55 47 46 53 57 59 61 63 66 65 66 67 69 68 67 68 69 71 71 71 72 71 70
83 82 81 81 80 79 80 80 82 83 78 76 73 77 68 64 65 60 57 58 53 52 53 57 59 60 63 64 66 67 69 69 69 70 69 68 69 73 73 75 75 75 74
83 84 85 85 85 85 85 85 84 85 82 78 72 77 75 68 65 63 56 56 58 59 59 62 59 57 59 62 65 64 66 68 70 73 74 72 71 72 74 76 77 78 81
88 88 90 91 92 93 93 91 89 88 87 81 76 74 75 73 66 62 60 62 63 61 62 62 61 56 56 61 59 61 62 66 69 73 76 78 78 78 78 78 80 81 82
95 95 95 98 100 102 100 99 96 92 92 89 80 76 77 76 71 66 63 62 64 65 64 65 62 57 56 58 56 58 61 63 66 71 75 79 81 82 82 82 82 82 82
97 98 98 101 105 107 107 105 103 98 94 90 88 76 76 74 71 67 65 66 66 64 63 63 63 58 58 56 59 59 61 63 67 72 76 78 80 82 84 85 86 85 85
95 97 101 107 108 107 106 100 99 102 94 90 81 71 75 76 71 70 69 67 67 63 63 64 64 60 59 60 60 61 63 65 67 70 74 79 81 84 86 86 86 87 86
90 92 94 99 101 101 96 93 84 84 81 75 74 69 70 70 73 72 68 66 64 63 62 61 63 64 62 62 62 64 65 65 66 69 73 76 80 84 88 90 91 91 91
84 83 83 88 88 85 79 74 84 83 78 71 69 70 69 73 75 72 67 64 63 62 59 60 63 63 63 64 65 66 68 68 68 70 73 74 77 79 81 85 89 90 91
62 59 64 68 62 56 56 60 66 75 77 70 66 66 68 70 70 66 64 63 62 58 57 58 63 64 65 65 66 69 71 71 73 75 75 75 76 77 76 77 78 83 88
41 42 50 41 43 45 42 50 58 67 72 65 61 62 64 64 63 61 61 56 53 53 56 58 58 63 65 65 69 69 71 74 75 76 75 75 75 74 72 71 73 76 82
32 33 33 31 32 34 29 40 49 55 62 62 56 54 53 49 49 49 47 49 49 48 51 57 60 57 66 67 69 70 72 75 75 74 75 73 68 66 67 68 72 77 82
21 17 15 19 18 21 24 31 44 49 53 56 48 43 39 38 39 41 44 46 44 47 52 56 57 64 57 65 67 69 69 71 72 74 71 67 65 66 69 72 76 81 85
17 8 4 6 6 5 10 19 32 38 41 49 45 41 37 37 38 38 40 44 45 47 50 48 50 62 68 72 67 71 72 71 69 66 66 67 69 72 75 78 83 89 94
27 26 22 18 18 17 16 19 24 32 40 45 44 38 36 35 35 37 36 39 42 43 47 52 57 63 63 67 71 73 75 70 67 67 70 72 76 80 83 87 92 97 102
31 30 30 31 31 31 29 27 29 32 36 37 36 34 34 30 26 27 32 34 33 44 54 57 57 61 67 72 77 78 70 68 71 74 77 80 83 87 90 93 96 100 106
29 31 33 33 31 29 27 25 22 23 27 26 24 22 22 18 22 27 36 33 41 56 57 55 60 68 73 78 71 69 70 73 77 82 85 87 89 93 96 97 99 101 102
22 23 24 25 24 24 24 21 19 18 18 15 10 18 20 21 28 32 32 46 47 52 56 62 66 65 65 67 69 71 75 79 83 86 89 91 93 94 94 95 98 102 104
14 17 15 16 17 14 13 15 11 13 17 24 27 22 25 30 35 38 42 44 39 41 48 56 59 63 65 68 71 76 79 82 84 87 89 88 89 92 96 101 105 107 110
12 10 8 8 10 10 7 8 5 8 16 18 20 21 26 29 33 36 42 43 46 52 57 59 62 64 67 72 77 80 80 79 79 82 85 88 93 98 103 106 109 112 109
5 4 7 7 4 3 5 7 14 18 14 13 19 21 25 32 33 34 37 39 42 48 55 59 62 68 72 75 72 71 73 77 82 87 92 97 102 105 108 109 106 100 94
3 3 0 4 10 12 15 17 17 21 24 25 26 26 26 29 33 36 38 42 47 52 57 61 66 70 67 65 68 73 79 84 90 96 102 106 106 105 101 95 91 86 81
5 6 4 4 6 8 10 11 12 13 15 18 21 24 28 31 34 39 45 50 54 57 60 64 66 61 63 69 75 81 87 92 99 104 105 102 99 94 87 82 77 73 67

GFSMW_250_spd_042.txt.gz
Wind_Speed
76 77 77 78 77 76 75 72 70 67 69 68 65 66 65 61 61 61 63 63 62 57 55 54 55 56 56 58 60 62 63 64 64 64 65 67 69 70 72 73 74 74 75
78 78 78 79 79 81 82 82 77 73 68 67 68 67 68 64 64 62 63 65 63 58 57 56 54 53 56 59 60 61 62 64 66 64 66 66 66 66 69 71 73 73 74
82 84 83 82 84 87 88 88 83 78 75 68 67 67 66 65 65 68 65 64 63 55 58 59 59 58 60 63 61 57 59 62 64 66 68 68 68 66 67 68 69 70 72
87 89 90 91 91 90 90 88 85 81 78 74 68 69 70 70 67 65 64 65 65 61 60 60 59 57 60 60 58 63 67 70 68 65 67 67 69 69 69 70 71 71 72
93 95 95 94 94 91 89 89 89 89 85 79 72 70 72 73 74 74 70 67 64 59 58 61 61 60 60 60 61 63 66 67 68 66 66 68 67 68 69 71 72 73 75
100 99 98 96 94 95 96 95 93 92 90 86 79 75 72 74 72 74 75 70 66 66 70 70 68 68 66 67 67 68 68 69 66 64 62 62 63 64 66 70 74 77 79
94 95 95 95 95 96 96 95 93 92 92 90 86 80 75 75 75 74 76 71 69 65 69 71 73 71 71 69 69 70 69 69 66 63 60 61 62 62 65 69 72 76 81
93 93 94 95 96 98 97 97 97 95 95 93 92 88 83 80 78 78 79 76 70 67 70 68 70 72 71 69 70 69 70 72 66 62 61 62 63 65 67 68 70 72 77
90 92 94 95 98 100 101 100 100 100 100 99 98 95 88 84 83 81 84 79 74 74 71 71 70 70 68 68 68 69 70 72 67 64 64 66 66 66 67 69 70 72 73
84 88 92 95 96 98 100 102 103 102 102 100 96 96 90 86 84 84 86 80 78 75 74 72 69 67 67 67 68 69 71 71 68 66 68 69 69 70 71 74 75 75 76
78 81 84 89 96 99 101 103 102 103 101 99 100 98 97 91 86 82 82 79 75 72 71 69 66 65 67 68 67 70 71 69 70 71 71 71 72 75 71 72 75 77 78
77 81 83 90 95 97 99 100 102 102 102 99 96 92 87 83 77 74 71 67 66 67 69 65 65 64 65 66 69 69 69 70 71 74 73 73 75 76 75 76 77 78 80
71 72 72 74 79 81 82 80 84 88 87 83 87 85 85 82 78 75 66 62 62 60 60 63 60 62 64 67 68 69 67 71 76 73 70 72 74 74 76 79 79 81 79
58 63 65 56 55 59 60 63 65 59 60 60 68 67 67 67 74 72 63 56 54 54 57 59 60 61 65 65 59 67 71 77 75 73 73 74 74 81 81 80 78 75 74
51 54 47 39 40 43 45 46 46 44 44 48 50 53 53 59 62 57 53 49 49 53 56 56 58 61 61 60 64 67 69 76 76 73 72 76 81 86 79 74 73 75 78
36 35 31 27 29 27 25 25 27 30 36 36 34 39 44 45 44 44 46 46 49 52 54 54 52 55 56 59 64 71 71 73 70 74 75 82 82 76 76 77 80 83 87
31 27 17 10 9 10 11 14 16 18 19 23 28 33 36 34 36 37 37 38 41 41 41 44 46 50 56 62 66 68 67 69 73 75 79 79 78 79 83 87 90 93 95
29 26 22 16 12 9 10 14 16 17 16 21 27 34 32 30 28 26 26 28 32 36 39 41 47 53 58 65 62 60 66 67 71 74 81 85 86 88 90 92 93 96 99
27 27 24 26 26 25 24 24 25 23 22 27 33 32 27 23 23 25 28 30 33 33 41 42 51 56 58 56 55 59 65 72 76 82 82 85 89 92 95 96 96 93 94
20 26 27 28 31 32 29 27 28 30 31 31 30 25 23 23 25 27 28 30 33 37 42 46 51 53 55 59 64 67 70 76 80 81 85 89 91 94 94 89 90 94 100
10 19 21 21 26 29 29 28 25 30 26 20 15 22 24 25 29 30 31 32 36 43 47 49 52 56 59 63 64 68 72 75 80 85 89 92 90 87 91 96 100 103 106
6 9 12 12 12 14 21 20 19 20 19 20 21 17 18 22 27 29 31 31 31 33 41 47 51 59 61 60 63 67 72 77 83 88 90 84 88 93 98 102 106 110 113
2 2 6 2 4 6 8 7 13 12 9 10 12 12 12 17 21 27 31 32 35 44 44 46 48 52 57 61 65 70 75 80 83 80 84 88 94 98 103 107 109 108 103
12 9 9 10 1 6 3 4 7 2 2 10 13 17 16 20 23 26 31 35 38 42 46 50 53 57 61 65 70 75 78 75 79 84 90 95 100 103 106 107 101 92 89
9 8 6 5 8 8 8 8 9 9 8 6 9 12 15 19 24 28 33 38 42 47 50 53 58 64 67 71 72 69 72 78 84 90 95 101 104 103 100 92 87 81 77
10 9 7 5 5 4 5 5 7 9 10 12 16 20 23 26 30 34 38 42 46 51 57 61 61 59 57 60 67 71 76 82 89 96 101 103 101 93 86 80 75 69 63

GFSMW_250_spd_045.txt.gz
Wind_Speed
82 79 79 79 79 78 75 77 76 75 75 76 74 72 73 73 72 74 72 75 75 71 70 68 64 63 62 60 60 60 60 59 59 57 59 61 61 60 63 65 67 68 68
80 82 79 78 78 78 79 79 79 78 77 78 79 78 79 76 73 72 72 72 74 74 71 68 63 60 60 59 60 63 64 64 63 62 59 57 60 65 67 67 67 67 68
78 80 81 80 78 79 81 82 82 82 80 80 83 82 83 83 79 72 70 71 71 71 67 62 61 62 64 64 63 64 66 65 63 64 65 64 64 64 66 65 65 66 66
78 79 81 81 82 81 83 85 89 89 88 88 87 88 89 88 87 78 73 72 74 71 68 65 63 58 63 64 65 68 70 68 66 68 72 71 70 71 68 66 65 62 63
83 85 87 88 89 90 91 92 94 95 96 96 94 94 95 94 89 81 78 76 71 72 75 69 68 69 67 65 69 70 72 72 73 75 74 75 76 74 72 69 67 64 62
86 88 90 92 95 97 99 99 100 101 102 103 102 101 98 91 87 84 83 80 76 70 72 71 70 74 74 75 73 78 81 80 77 77 77 78 77 76 72 70 65 65 65
92 94 96 98 100 103 105 106 107 109 109 108 106 103 97 91 86 83 82 81 80 76 73 73 73 71 72 74 75 76 79 80 78 78 77 78 78 77 74 72 69 67 67
100 102 105 106 108 110 112 113 113 115 111 108 105 101 98 94 90 86 83 83 79 79 76 72 72 73 73 76 74 75 77 80 79 79 78 77 77 77 75 74 72 68 69
99 102 105 107 108 107 107 108 108 106 105 104 103 99 96 94 92 89 86 84 84 83 83 79 74 76 76 76 77 76 76 77 79 78 77 76 77 76 76 75 75 74 70
88 90 92 95 98 100 101 103 104 104 103 102 101 100 100 99 97 94 90 85 85 87 88 85 82 76 76 76 79 79 77 77 77 76 75 76 76 76 78 77 78 77 75
85 88 89 89 90 91 93 96 95 96 96 95 95 95 96 94 93 91 89 87 86 86 88 87 85 80 79 78 78 79 78 74 74 74 75 77 78 81 81 80 78 82 76
79 79 79 81 84 87 90 90 91 92 89 91 94 97 97 96 94 95 92 86 83 84 85 85 85 80 76 77 76 75 73 68 70 73 76 77 81 84 80 81 83 83 82
72 75 76 79 79 82 83 82 81 82 83 84 86 88 90 94 94 94 91 85 81 79 78 80 74 72 69 68 69 68 64 66 71 72 76 79 81 85 83 84 83 79 79
64 61 64 66 67 60 60 62 68 70 73 77 82 83 84 85 86 80 76 76 74 73 73 71 63 59 59 61 61 59 62 67 72 74 76 79 83 87 84 86 84 84 83
43 52 56 54 56 55 54 56 56 58 61 61 61 64 65 65 68 68 69 72 70 69 62 61 59 54 57 58 58 60 61 64 69 74 79 80 83 83 88 87 84 85 84
40 48 48 43 44 38 34 34 37 41 44 44 45 46 46 46 49 48 47 45 46 50 52 53 55 52 55 56 57 62 64 65 72 79 79 79 80 85 83 82 85 84 89
37 40 40 40 35 27 20 20 23 23 21 20 20 22 25 26 23 25 28 31 35 37 37 43 46 47 50 54 60 64 65 68 74 78 77 80 80 80 82 85 84 90 95
32 34 33 32 21 19 12 8 5 5 5 7 9 11 12 13 16 18 19 20 24 28 32 35 41 45 54 53 54 58 60 66 72 77 79 79 81 81 82 84 88 93 100
26 29 28 28 20 15 16 17 16 16 12 18 26 25 26 23 19 18 18 18 20 24 29 33 35 41 46 49 55 60 65 68 69 71 72 73 76 81 85 89 93 98 102
22 26 20 24 21 18 19 22 22 25 27 30 30 26 21 18 17 16 18 21 23 26 29 35 44 46 51 54 57 58 61 66 67 69 74 78 82 85 89 93 97 100 101
19 20 16 16 19 18 14 15 22 23 21 20 21 22 19 15 12 14 17 20 26 31 34 39 43 44 44 46 53 61 65 66 70 71 75 79 83 87 91 94 96 99 104
14 11 15 11 11 13 15 12 10 9 13 12 9 6 8 8 10 13 18 23 26 29 31 33 39 45 48 52 57 60 64 67 71 76 81 84 87 89 92 95 101 105 111
12 12 8 9 8 6 8 10 8 8 6 1 3 4 3 4 10 15 17 22 25 27 32 36 40 44 50 55 60 63 66 71 76 78 76 80 85 90 95 100 106 110 114
12 10 6 5 5 5 2 5 2 5 4 6 3 6 10 13 16 19 24 27 30 34 37 41 46 50 53 58 63 66 65 64 68 75 80 84 90 95 101 107 111 112 108
10 10 12 11 9 7 4 4 5 1 4 4 6 9 13 16 20 24 26 29 33 37 40 44 49 54 57 55 55 60 66 70 74 81 88 93 97 102 106 107 103 95 89
15 12 9 10 11 11 11 10 9 9 11 12 14 16 19 23 26 29 31 34 38 43 45 46 46 47 52 56 59 66 71 76 82 88 92 97 102 103 97 91 86 80 72

GFSMW_250_spd_048.txt.gz
Wind_Speed
83 81 79 78 79 80 81 81 79 79 78 78 79 79 77 77 73 73 70 71 69 71 71 73 74 76 77 75 72 70 65 61 60 61 63 62 61 61 61 60 58 58 61
82 84 81 78 78 80 81 81 81 80 78 79 80 80 79 76 78 76 76 75 74 73 76 75 76 79 72 66 67 64 62 62 64 66 66 66 63 65 62 62 65 66 66
80 81 77 77 77 78 80 82 84 83 82 80 81 79 80 80 81 80 82 84 83 79 76 78 77 79 71 67 66 68 67 69 71 70 68 64 70 68 70 72 73 73 74
77 78 78 78 78 80 81 82 83 83 83 82 82 83 83 83 85 87 87 87 86 84 81 80 78 76 73 72 72 73 74 75 76 76 74 73 74 75 74 73 75 76 76
75 77 80 79 78 79 82 84 86 86 88 89 88 87 88 89 90 91 93 92 91 90 86 80 80 74 76 75 74 75 73 72 72 73 76 77 75 74 74 75 78 77 76
78 80 81 82 83 84 86 88 89 91 92 94 95 95 96 95 95 97 98 99 99 98 93 90 81 77 74 76 75 75 76 75 75 74 75 76 76 76 75 77 80 80 80
83 83 85 87 87 90 92 94 97 99 101 101 102 102 103 103 100 101 103 103 103 102 96 95 90 80 75 74 75 77 79 78 77 77 79 80 78 77 78 78 80 80 81
89 90 91 91 93 96 99 101 102 104 106 108 109 109 109 108 108 108 109 109 107 101 99 93 82 80 78 77 76 77 77 75 74 75 77 79 79 80 80 82 82 82 82
92 94 97 99 101 104 107 109 111 114 116 116 117 117 120 120 116 113 108 101 96 93 88 88 86 80 71 76 75 78 77 75 74 77 79 81 82 82 83 83 84 82 80
96 99 101 102 104 106 109 112 114 114 114 114 114 112 109 107 106 104 101 99 98 96 95 92 92 86 80 83 82 83 81 80 80 79 82 83 84 84 83 83 84 85 83
80 81 83 86 90 94 97 100 103 104 105 104 104 103 101 98 97 97 96 95 96 95 92 91 91 90 89 89 86 80 78 79 81 84 87 87 87 85 84 82 82 88 87
72 75 79 82 86 90 91 93 95 97 97 98 100 98 96 95 94 92 89 86 86 84 83 81 82 84 83 81 79 80 80 81 82 83 83 85 83 81 82 82 84 87 89
71 73 75 75 76 80 84 87 89 90 85 84 86 86 87 89 92 90 87 85 85 85 82 81 82 83 81 80 79 81 82 79 80 81 81 81 78 79 80 82 87 88 89
58 60 63 68 72 77 77 76 76 72 67 68 71 75 75 72 70 72 75 76 76 78 80 80 79 77 74 73 73 73 72 70 73 76 75 72 74 77 79 83 86 90 90
50 52 53 58 59 59 60 58 56 55 54 53 55 58 63 65 66 66 68 69 71 72 74 73 69 68 63 64 68 66 67 63 64 65 66 69 74 78 82 84 88 90 92
42 42 43 40 49 53 51 48 41 38 36 35 35 36 40 44 49 54 56 57 59 62 64 66 67 68 66 62 61 59 57 57 57 60 66 70 76 80 84 88 87 86 91
31 33 31 37 46 44 41 35 27 21 21 22 24 26 27 28 31 31 34 37 39 41 42 44 47 50 59 50 47 48 50 53 57 63 67 71 77 81 81 80 84 87 91
29 27 29 33 36 37 36 34 28 22 22 18 9 2 3 5 5 11 15 16 13 20 25 27 26 27 30 33 39 45 51 55 59 64 70 75 75 72 75 79 83 87 88
25 25 26 29 27 30 29 26 18 13 18 20 22 19 20 20 21 18 15 17 14 11 11 11 13 18 24 32 38 46 52 57 62 64 64 67 70 71 74 77 82 86 90
22 26 23 23 20 25 25 25 14 12 13 11 18 20 22 19 17 17 16 15 12 7 7 10 16 23 29 33 42 49 53 56 58 62 64 67 70 74 78 83 88 92 95
19 23 21 18 17 16 19 16 17 14 11 11 11 12 12 12 11 10 8 5 6 7 9 14 18 23 30 35 41 45 50 53 56 62 66 70 75 79 83 87 89 90 93
18 18 16 19 14 11 12 13 13 15 15 13 11 11 12 13 12 11 10 10 10 12 17 21 25 30 36 39 41 46 51 58 64 70 73 75 78 80 82 85 90 94 100
17 15 13 17 16 11 11 12 12 13 7 7 11 8 6 9 10 11 12 14 16 20 24 28 31 34 38 43 46 50 54 59 65 71 72 73 77 82 87 92 96 101 105
18 16 11 10 11 10 9 10 13 11 9 9 7 8 10 11 13 15 18 20 23 25 26 30 33 37 42 47 51 55 57 60 64 71 75 78 83 87 92 96 100 104 108
18 17 16 13 12 11 10 10 10 10 11 11 12 12 13 15 17 19 21 24 27 31 34 37 40 43 45 46 49 54 59 64 70 76 80 84 88 92 95 98 103 105 100
20 19 18 17 16 16 16 15 14 14 15 16 16 16 18 21 24 27 29 31 33 35 36 38 39 42 45 49 54 59 65 70 76 81 84 87 90 93 98 97 92 85 81

GFSMW_250_spd_051.txt.gz
Wind_Speed
80 81 78 75 73 73 74 76 77 77 78 76 76 77 78 79 77 77 78 78 77 75 73 71 71 68 67 70 70 72 75 74 73 71 70 71 69 68 68 68 64 59 61
82 82 80 78 76 77 78 79 80 81 81 80 79 78 80 81 81 79 79 79 78 78 77 75 76 75 75 73 74 74 77 77 74 72 73 73 73 72 74 72 70 69 70
84 83 80 79 81 81 81 80 80 82 84 83 81 79 80 80 82 82 84 83 80 80 79 77 75 76 76 77 77 77 77 75 75 75 72 72 75 79 79 76 75 71 71
81 81 81 80 82 83 83 83 84 85 84 83 82 83 83 82 84 85 85 84 83 84 84 82 78 80 80 80 81 81 79 79 79 76 74 73 73 76 73 73 71 71 72
82 78 79 79 80 81 83 84 85 85 84 84 85 86 87 86 86 87 88 90 89 88 88 86 80 82 85 86 83 81 84 80 76 75 72 73 75 76 72 70 72 76 76
83 82 82 81 81 82 83 83 85 85 87 88 89 90 91 92 92 92 93 94 94 95 94 93 92 91 91 89 82 79 79 83 81 80 77 78 76 74 74 71 72 75 76
80 80 81 84 85 86 86 87 88 90 91 92 93 94 95 96 95 96 97 98 98 98 98 99 99 98 95 90 83 78 75 77 77 77 75 74 75 75 76 75 76 76 79
78 80 81 84 87 89 89 91 93 95 97 99 100 101 101 102 103 104 104 105 105 107 108 107 106 104 102 93 87 76 75 76 78 76 75 74 78 76 79 79 80 81 82
88 88 89 89 90 92 95 96 99 101 103 105 106 108 110 111 112 113 113 112 112 114 115 113 112 107 102 94 89 78 71 68 75 75 75 76 71 74 78 82 82 85 88
89 89 90 90 92 95 98 101 104 107 111 113 115 117 118 118 118 119 117 116 114 112 108 106 102 99 98 96 93 90 86 84 80 83 78 83 86 84 86 87 87 88 89
90 91 93 95 99 102 103 102 102 102 103 105 106 106 105 104 103 102 103 104 103 103 102 102 101 101 99 99 97 94 91 88 89 90 87 87 88 89 91 91 88 89 89
93 90 87 85 83 83 84 86 89 91 93 96 99 100 100 101 100 98 96 94 92 91 91 92 93 93 93 93 94 94 93 91 90 89 87 87 86 85 85 86 87 87 88
75 75 73 73 72 74 76 76 79 79 82 88 92 93 91 88 88 89 87 83 82 83 85 87 86 85 85 84 83 82 79 79 78 79 80 80 82 84 86 87 88 86 84
66 67 65 66 63 58 58 64 67 73 76 79 78 74 74 76 74 74 73 70 70 70 71 73 75 78 79 78 78 77 76 75 76 76 77 77 77 78 77 81 80 83 82
61 58 52 47 46 50 56 60 60 60 59 61 58 52 51 54 56 59 63 64 66 64 64 66 66 69 70 70 71 71 70 71 69 68 66 71 71 79 72 74 78 76 80
44 38 39 42 43 45 47 46 40 37 39 43 44 35 28 29 32 34 39 45 52 56 58 59 59 61 63 64 63 62 65 66 67 65 62 64 67 66 68 70 72 75 79
32 32 37 35 37 37 34 36 36 38 38 38 35 28 25 22 21 20 21 25 30 32 38 45 52 56 57 62 62 62 63 67 69 64 62 63 62 63 64 69 75 78 79
24 29 32 33 27 28 28 28 26 28 32 36 33 32 27 22 17 14 11 10 9 11 16 21 26 31 40 42 46 50 51 43 43 45 48 54 57 62 68 71 73 76 77
23 28 29 30 24 25 26 21 22 21 22 25 26 25 26 26 22 17 17 16 13 12 9 1 6 9 11 17 21 25 32 35 37 42 48 55 59 62 63 66 70 75 80
25 31 26 26 23 22 24 20 17 17 17 21 21 23 24 24 22 20 21 22 23 21 18 17 13 9 6 10 16 22 27 29 37 43 48 52 57 61 65 69 74 79 83
23 24 23 23 21 19 21 17 16 17 16 14 17 19 20 18 19 19 19 20 21 21 20 19 18 17 17 20 23 26 32 37 43 47 51 56 61 67 72 76 80 83 86
26 22 22 22 19 19 21 20 18 16 18 22 17 13 15 18 19 20 21 20 20 21 20 21 22 23 25 27 29 33 37 42 46 51 56 62 67 71 75 77 81 84 87
25 23 21 21 19 17 17 19 20 19 14 14 17 16 15 18 20 21 22 21 20 19 20 21 23 26 29 32 35 39 43 48 52 56 60 65 70 75 78 82 86 89 92
21 23 21 21 19 18 17 17 18 18 18 14 15 16 15 16 16 16 17 19 21 23 25 27 30 32 34 36 38 40 44 49 54 58 64 70 76 81 85 87 90 93 95
24 22 21 20 20 19 19 17 17 18 19 19 17 15 12 13 16 19 22 24 26 28 29 31 32 34 36 39 42 46 49 54 59 65 71 77 82 86 88 90 93 96 96
27 24 22 22 22 22 21 20 19 20 20 19 17 14 15 18 21 24 26 26 27 28 30 33 35 38 40 42 45 48 51 56 61 67 74 82 86 90 90 92 91 85 79

GFSMW_250_spd_054.txt.gz
Wind_Speed
80 78 76 77 79 78 76 77 76 77 80 80 77 75 75 77 78 79 79 80 79 79 79 81 80 79 77 78 73 72 72 73 74 72 72 72 72 74 75 72 72 68 71
84 81 80 79 76 77 78 80 82 83 85 84 82 81 79 81 81 80 81 83 84 85 83 81 81 82 81 80 78 75 74 74 73 74 72 72 74 75 74 74 74 75 72
86 84 83 82 81 82 82 83 85 86 86 85 85 83 83 83 85 85 86 87 86 85 83 83 83 83 82 80 79 78 79 78 79 79 79 76 79 76 76 72 73 75 75
90 89 87 85 85 84 86 86 90 88 87 85 85 87 88 89 90 90 90 89 88 87 86 87 86 86 85 86 84 81 82 81 81 80 80 79 79 78 75 76 75 75 77
90 89 90 90 89 89 87 87 86 86 86 89 87 89 88 89 90 89 90 90 90 90 89 90 91 90 89 88 88 88 87 87 85 82 83 85 83 79 78 79 77 74 74
94 92 91 91 91 92 90 89 87 84 84 89 92 91 90 91 91 92 93 95 96 96 96 96 95 94 94 92 89 88 88 88 89 90 92 90 82 78 79 77 77 73 74
94 92 91 89 86 84 82 83 83 89 93 91 90 92 93 94 95 96 97 98 99 100 101 101 100 97 96 96 95 94 95 95 97 95 91 87 82 83 81 78 78 79 80
89 87 84 83 83 84 86 87 89 92 91 92 92 93 95 97 99 100 101 103 105 106 108 108 107 107 105 103 104 103 102 102 98 95 89 90 82 80 80 79 81 80 83
81 80 82 82 86 85 86 88 91 93 92 93 97 101 103 105 107 108 109 110 111 113 115 116 115 115 116 116 114 109 107 102 99 94 89 86 80 82 77 81 81 82 79
86 87 86 85 87 89 91 94 95 98 100 100 103 105 108 111 114 116 117 119 121 119 118 119 117 116 114 112 111 108 105 100 95 92 87 83 73 75 87 90 88 85 91
88 89 89 90 91 93 94 96 97 100 102 105 108 109 111 110 110 110 111 111 110 110 111 110 109 109 109 108 107 104 103 100 98 95 93 89 88 95 96 93 97 94 95
83 86 91 90 90 94 98 100 103 103 103 98 97 98 99 99 99 99 99 99 100 100 100 99 102 104 105 106 106 106 103 101 99 95 93 91 93 94 95 99 100 103 102
86 90 93 94 97 102 100 99 96 91 86 84 82 83 86 88 88 86 84 86 87 89 90 90 90 90 93 95 94 92 90 89 86 84 83 84 84 82 84 84 85 86 88
92 87 87 89 87 82 81 80 77 74 70 69 71 68 69 75 77 75 72 72 73 73 74 73 74 77 81 82 83 83 82 80 82 82 79 78 78 78 77 83 82 84 84
72 70 69 72 72 69 66 63 59 58 61 58 55 43 38 41 43 45 48 49 49 48 47 49 52 55 62 70 73 74 74 73 72 74 75 75 76 73 70 81 80 81 82
63 65 60 57 58 55 49 48 50 51 49 46 40 33 37 36 37 35 30 30 30 31 33 32 34 41 49 55 62 65 68 68 67 66 67 68 71 73 75 76 78 78 78
54 52 50 45 39 40 39 44 43 39 37 36 34 30 32 36 35 34 31 30 23 20 18 19 21 26 35 43 48 54 57 59 59 58 61 63 66 68 71 73 76 79 81
46 40 34 31 34 37 37 37 37 32 31 34 29 27 28 27 28 29 31 30 29 27 25 18 11 8 17 29 41 45 50 50 53 58 53 61 61 64 65 64 64 64 64
33 29 29 32 39 35 35 34 34 28 29 29 29 27 27 25 24 25 24 24 25 27 25 22 26 26 20 11 7 12 21 28 38 43 43 40 40 45 48 51 56 60 65
27 28 30 34 38 38 32 33 30 24 25 26 24 24 24 21 20 23 21 20 22 22 22 23 23 22 19 14 12 12 13 16 20 24 29 37 42 46 50 55 62 67 72
25 26 27 26 32 32 30 29 28 24 25 27 28 22 21 21 20 20 20 21 22 24 24 23 20 19 18 18 19 20 22 24 28 32 38 43 49 54 59 64 69 74 78
27 27 28 27 26 29 28 29 26 24 24 25 23 22 22 21 19 19 19 21 22 23 24 25 26 27 28 29 29 31 32 34 37 41 45 50 55 60 65 69 73 78 84
29 29 32 27 27 27 28 26 25 22 21 23 22 20 21 22 21 18 18 21 23 24 24 24 24 25 27 29 31 32 34 36 39 43 48 53 58 62 69 74 80 84 86
33 30 32 28 28 28 28 28 27 25 24 23 22 21 22 22 21 20 21 23 25 25 26 26 26 27 29 31 32 35 37 40 43 47 51 55 60 66 72 78 83 89 93
28 30 32 30 29 29 28 29 29 28 26 25 25 24 23 23 21 22 24 26 28 29 30 31 31 31 33 35 37 39 41 44 47 50 55 61 68 74 79 83 86 86 82
28 26 30 30 30 30 31 29 30 29 28 27 25 24 24 23 23 25 26 30 32 32 33 34 35 36 37 39 42 45 47 51 55 60 65 71 75 78 80 77 75 74 75

GFSMW_250_spd_057.txt.gz
Wind_Speed
80 77 76 75 74 73 73 73 74 74 72 76 76 75 72 78 81 85 86 87 88 89 88 88 87 85 83 82 84 83 81 79 77 77 78 74 72 76 76 74 75 75 73
82 80 79 76 76 76 77 78 81 80 78 78 78 79 83 84 86 87 90 93 94 94 92 89 90 89 89 89 86 86 83 81 80 80 79 76 76 77 77 75 76 75 75
87 84 82 81 81 82 83 82 81 82 83 84 86 86 89 91 93 96 97 99 98 96 96 91 90 91 90 90 89 88 86 85 82 82 81 79 79 81 80 77 77 77 77
90 88 87 85 84 84 84 85 86 87 89 89 91 93 94 97 101 104 106 103 96 92 92 92 95 92 91 90 91 89 88 89 86 88 84 85 83 83 82 80 80 77 79
92 92 93 90 89 89 89 89 89 89 91 94 97 99 101 102 103 101 99 97 99 95 99 97 94 94 94 93 94 93 92 92 92 89 89 89 84 80 81 79 80 83 88
97 95 94 93 93 93 92 92 91 92 94 96 98 100 101 103 99 99 97 94 99 102 99 100 101 99 99 97 98 98 96 96 95 92 90 87 84 82 84 89 90 91 85
101 99 98 96 95 94 94 94 95 96 97 99 100 102 103 102 98 97 97 99 101 101 101 103 105 106 105 104 102 101 100 98 98 96 93 95 95 94 94 96 94 85 87
101 99 97 95 94 94 96 97 98 100 101 105 105 102 101 98 98 97 98 102 101 104 106 106 109 113 116 117 115 111 108 108 109 107 105 104 104 101 99 96 88 76 83
102 99 98 98 98 98 100 101 103 104 105 102 97 97 94 97 97 97 104 107 110 112 114 116 119 123 126 126 125 123 120 119 117 115 111 104 100 97 94 89 82 75 75
106 105 103 103 101 100 99 100 99 96 94 93 93 93 97 99 101 108 111 116 118 120 120 119 118 117 120 120 121 119 117 114 110 107 104 99 95 92 89 83 75 79 76
108 107 104 103 103 101 99 97 94 93 93 94 95 97 100 103 107 113 118 112 110 111 111 109 108 108 110 112 113 114 114 112 109 108 104 99 95 91 89 84 81 83 84
95 96 97 96 98 95 90 92 91 95 92 94 96 99 104 108 115 108 103 99 101 102 99 93 89 89 93 98 103 106 107 107 105 106 106 103 99 96 94 92 91 91 94
80 80 83 87 88 90 89 88 89 90 94 95 100 105 110 100 95 87 81 82 87 86 97 88 83 78 79 84 88 90 94 98 101 99 98 94 93 89 86 86 86 84 85
83 84 84 87 88 85 86 88 89 92 98 104 106 92 87 81 71 70 70 73 74 65 62 62 60 59 60 60 63 67 73 83 88 89 88 86 84 80 77 75 75 77 81
84 85 85 84 87 89 93 98 101 96 87 83 75 72 69 64 60 54 51 48 50 53 53 47 48 45 45 46 49 48 51 56 68 76 78 78 76 74 72 72 72 74 76
83 83 79 81 84 80 76 74 71 69 69 64 60 61 59 54 51 46 47 47 47 48 46 45 41 35 30 29 31 31 31 34 40 51 59 66 67 66 68 71 71 72 71
75 77 74 68 67 66 63 61 60 59 57 50 54 53 53 47 41 43 42 38 40 38 38 37 37 34 25 19 16 16 18 23 29 38 46 56 62 65 67 67 67 66 68
66 66 64 59 59 56 56 52 52 50 47 48 50 49 46 40 37 35 32 29 30 34 32 32 33 33 33 27 22 15 13 14 19 28 37 44 50 56 58 57 57 57 53
63 60 57 52 49 47 46 45 49 47 44 47 46 42 37 31 34 29 27 28 27 28 29 30 32 33 30 26 24 20 16 12 10 9 9 13 18 24 31 36 41 46 52
51 50 45 43 38 37 39 41 48 47 44 43 39 38 34 33 30 27 25 28 28 27 29 29 29 28 27 26 26 24 23 21 20 20 22 25 29 34 39 44 49 55 60
40 37 34 30 32 33 36 40 44 42 39 38 37 36 35 33 28 25 26 29 29 28 29 30 31 32 31 29 27 26 25 25 25 26 28 31 34 38 44 50 55 61 67
33 31 31 31 32 35 37 40 40 37 36 35 32 31 29 30 29 29 29 30 28 28 30 31 31 31 31 30 30 29 28 29 30 31 33 36 39 44 48 53 59 65 71
32 31 31 32 35 37 37 35 36 35 33 33 32 29 28 28 28 31 31 31 29 29 29 31 33 34 34 35 35 34 33 34 36 38 39 42 46 51 56 61 66 72 77
35 33 33 38 36 36 35 35 34 33 33 34 33 32 31 31 30 32 33 33 31 30 31 34 34 35 35 36 37 37 38 41 42 44 47 52 56 60 64 68 73 78 79
32 34 36 32 33 36 35 34 34 33 32 33 34 34 34 34 33 34 34 34 33 32 33 36 37 37 39 39 39 41 44 46 49 52 55 59 62 66 71 75 78 75 68
35 36 30 29 30 35 34 34 34 33 33 34 35 37 36 35 36 36 37 37 35 34 36 37 38 40 41 41 43 46 47 50 54 58 62 66 70 74 79 81 77 67 66

GFSMW_250_spd_060.txt.gz
Wind_Speed
85 84 80 78 78 79 78 77 79 79 74 71 70 68 71 74 76 78 77 80 81 83 87 90 92 93 96 98 99 100 96 93 88 85 85 80 79 77 80 78 77 75 72
80 76 78 78 77 77 76 77 76 76 75 72 72 73 78 80 81 81 82 84 87 89 90 91 96 100 102 101 102 102 94 89 91 91 87 81 80 81 81 80 79 78 76
84 81 80 79 76 77 76 76 75 75 77 78 79 80 79 82 87 88 89 93 95 95 97 98 100 104 103 106 107 99 91 93 93 90 87 87 84 84 83 82 81 81 79
87 86 84 83 80 79 79 79 80 80 81 82 83 84 86 85 88 94 96 98 100 103 104 105 106 108 108 108 99 96 94 92 89 92 93 93 88 86 85 85 83 82 81
90 88 87 86 85 83 83 84 85 86 86 88 89 89 92 93 95 97 101 103 105 106 111 114 114 113 112 108 106 98 97 95 93 95 98 98 96 91 89 87 86 84 82
94 93 92 90 89 89 88 88 89 90 90 91 92 94 96 98 98 102 102 105 107 109 112 113 115 117 112 108 104 106 106 104 103 101 100 100 101 101 97 91 88 88 87
99 98 96 94 93 93 93 92 92 92 92 94 96 98 98 99 101 102 105 107 110 113 113 114 109 111 111 112 113 112 116 118 114 111 110 111 113 114 111 105 103 99 95
101 101 99 98 98 97 96 96 97 98 98 99 98 98 99 102 104 106 106 111 113 111 113 113 111 110 112 117 121 124 124 123 121 116 114 112 109 110 108 105 104 105 100
105 103 101 101 101 100 101 100 100 101 101 101 103 104 102 104 106 106 110 107 112 111 112 110 109 112 120 126 125 121 118 117 115 113 111 110 106 103 102 100 98 95 89
111 108 106 105 104 103 102 102 102 103 103 103 104 106 107 108 110 113 111 110 106 105 106 108 114 116 123 117 113 109 107 105 102 101 103 104 103 101 101 102 97 90 83
112 112 110 109 108 106 106 106 107 108 107 107 109 111 111 112 112 110 107 105 104 104 105 112 118 110 111 104 97 94 95 101 101 97 99 102 100 100 97 96 95 90 84
113 112 110 109 108 107 107 107 107 108 109 110 110 112 108 103 101 98 99 101 102 105 112 106 99 91 97 90 94 87 83 81 79 78 81 85 91 95 95 90 86 88 90
113 113 111 111 110 109 110 109 110 110 109 106 101 96 94 92 94 96 99 103 108 99 90 83 78 80 91 88 80 72 63 61 63 63 63 67 73 81 84 86 85 80 79
101 103 105 106 105 103 102 101 96 94 90 88 89 90 91 93 98 101 103 94 86 77 72 70 70 72 75 76 72 61 56 51 48 48 50 53 55 60 69 74 76 77 77
84 85 84 84 84 81 79 79 81 83 84 85 86 90 94 98 95 86 80 73 68 65 61 64 62 56 58 57 56 52 49 45 40 35 34 35 38 43 50 59 63 68 67
75 75 75 74 73 75 76 79 80 82 84 88 91 89 85 81 74 71 66 61 59 56 55 52 51 50 49 47 48 47 47 40 31 24 21 21 21 23 29 40 48 53 61
72 73 75 76 78 75 75 79 81 84 85 81 80 76 72 67 60 59 58 57 52 48 44 43 45 45 47 45 42 41 42 40 36 28 24 21 19 18 21 28 36 44 51
71 74 74 75 77 77 78 79 83 81 77 71 69 67 60 53 53 54 52 50 46 42 42 41 41 41 41 42 40 39 34 30 29 28 26 22 18 16 16 20 25 30 36
70 73 78 80 80 78 82 75 69 66 64 61 58 56 50 49 49 50 46 43 44 39 40 39 39 39 38 37 38 40 41 39 34 29 26 22 19 17 18 21 24 29 34
69 67 68 71 74 73 71 66 58 53 50 49 52 53 46 45 44 45 43 42 38 37 38 36 38 36 36 37 37 36 35 34 33 32 31 31 31 30 30 32 35 38 43
62 63 61 58 55 52 51 47 44 44 44 47 51 49 46 41 40 39 38 37 37 38 37 36 36 35 35 36 38 37 37 37 37 36 37 37 38 38 39 41 44 48 52
49 49 43 40 40 37 36 39 41 43 46 48 45 44 42 38 36 36 36 36 36 38 38 37 36 35 35 37 38 39 39 38 37 38 41 42 43 46 48 52 54 57 60
38 37 37 33 31 33 37 40 42 44 44 43 44 40 38 37 36 37 38 38 38 39 40 38 37 37 37 38 39 41 41 40 42 44 45 46 49 52 54 57 61 63 67
34 33 31 31 33 35 37 42 42 41 41 40 38 37 36 36 37 38 38 40 41 41 41 40 39 40 40 40 41 43 44 43 45 47 48 50 53 56 60 62 67 69 73
32 32 33 35 35 36 37 40 39 38 40 36 36 35 35 36 37 39 40 40 42 43 43 42 42 43 43 43 44 47 47 49 49 51 51 54 56 60 64 69 73 76 79
35 37 37 37 36 38 37 36 37 40 38 37 34 34 35 36 38 39 40 42 43 44 45 45 45 45 46 47 49 50 51 52 53 54 56 59 62 66 69 73 77 80 83

GFSMW_250_spd_063.txt.gz
Wind_Speed
88 86 83 81 80 81 81 79 77 78 78 77 76 74 75 76 78 74 70 76 77 78 76 80 82 84 87 89 91 94 97 99 102 104 105 107 104 95 90 86 77 74 76
85 82 82 82 82 83 82 82 81 80 78 76 73 71 72 73 71 73 76 73 75 76 80 83 85 89 93 97 98 101 103 106 109 112 112 111 102 95 94 86 84 81 79
84 81 81 82 82 82 81 81 80 79 77 74 73 71 70 71 75 78 79 81 81 82 85 87 91 95 99 102 105 107 108 112 114 117 119 115 106 98 94 92 91 89 87
85 83 83 83 83 80 79 79 77 76 74 74 74 76 77 78 79 80 85 87 88 91 93 93 97 101 104 107 109 111 114 117 117 118 114 110 104 101 99 99 96 96 91
89 86 86 84 83 82 80 78 78 77 78 78 79 80 83 82 82 84 87 92 95 97 100 104 105 106 108 111 116 117 119 117 120 113 107 104 106 107 108 106 108 108 107
93 91 88 87 87 85 83 82 82 83 83 84 85 85 85 86 88 89 89 93 96 101 104 107 111 115 116 119 119 121 122 124 117 111 108 107 109 111 113 117 116 114 110
98 96 93 90 89 88 88 86 86 87 87 87 88 88 89 91 93 94 95 95 99 102 106 109 112 117 120 123 125 128 126 125 121 121 116 112 108 105 102 100 97 98 100
98 97 96 94 94 95 94 92 92 92 92 92 93 92 94 96 97 97 100 101 102 106 110 114 115 119 122 122 125 123 119 123 122 119 110 103 99 92 88 88 95 94 94
103 100 98 97 96 95 94 95 95 96 95 95 96 98 98 97 96 98 101 105 107 111 113 116 119 118 116 115 110 115 117 119 117 106 103 97 91 90 91 94 82 98 94
110 107 104 102 99 98 98 98 98 98 98 98 99 99 99 101 102 105 106 108 112 114 117 117 116 111 107 107 109 111 112 107 105 97 95 94 89 89 93 88 91 90 95
114 112 108 105 104 104 103 102 102 102 101 102 102 102 103 105 106 107 111 111 113 115 115 113 107 106 104 106 108 98 98 95 92 87 86 86 83 79 75 70 70 76 84
115 114 113 112 111 110 108 108 107 107 106 106 107 108 107 109 110 110 112 113 112 107 99 99 99 101 104 97 92 86 83 85 87 85 80 70 63 59 56 54 52 59 68
112 112 111 111 111 110 109 109 109 108 107 107 109 110 109 109 111 111 109 103 94 92 93 96 99 97 90 84 81 74 73 74 77 78 75 63 54 50 46 44 44 46 52
111 111 111 111 111 111 111 112 111 111 110 108 109 112 111 107 100 96 87 87 88 91 96 93 86 81 77 75 68 65 63 67 69 69 63 60 57 48 41 36 34 35 39
108 109 109 108 107 106 104 105 105 107 105 102 95 91 87 83 80 81 84 87 91 91 85 80 73 70 68 63 56 57 57 58 57 57 56 50 44 41 31 27 22 21 23
96 99 99 98 96 92 90 90 88 84 81 79 75 75 76 77 81 85 86 85 85 80 75 66 64 63 57 53 52 51 53 53 49 46 48 49 48 40 31 27 22 17 13
82 83 84 84 83 80 79 76 72 72 73 72 73 77 78 79 82 84 85 82 73 67 62 60 59 52 52 48 48 48 48 47 45 45 43 43 42 42 38 34 30 24 19
72 69 69 69 68 66 64 66 69 71 70 72 76 79 81 82 83 83 75 68 60 57 55 55 51 50 49 46 45 45 46 43 42 42 40 40 39 37 35 31 29 27 26
69 65 60 60 59 61 62 64 68 74 76 80 79 81 84 83 77 70 63 53 51 51 50 49 48 45 44 44 43 44 46 44 43 43 40 38 39 40 39 38 38 38 38
65 68 64 59 61 63 65 69 69 74 72 78 82 77 76 71 64 58 53 50 47 46 46 44 44 43 44 43 43 43 44 44 44 44 43 42 42 43 42 42 42 42 42
54 59 64 67 65 65 67 68 71 74 71 68 65 64 59 57 52 50 48 46 43 43 40 40 43 43 43 43 43 43 45 45 45 44 44 44 44 45 45 45 47 47 49
50 51 53 55 57 59 60 61 60 55 53 54 52 51 51 49 48 47 47 44 42 42 41 43 45 45 44 44 43 44 46 47 47 48 49 49 50 50 50 50 51 53 55
52 53 54 53 51 50 49 44 45 44 45 45 46 48 46 44 45 43 43 42 42 42 43 45 46 47 46 46 45 45 47 48 50 51 52 53 54 54 55 56 56 58 61
50 49 49 47 45 41 40 39 38 39 40 44 46 44 40 40 40 42 42 41 41 42 43 45 47 48 48 49 48 48 48 50 52 54 55 57 58 59 60 60 61 63 66
46 47 46 41 39 39 35 36 38 37 39 46 45 40 40 39 38 39 39 40 42 43 44 46 47 49 50 50 50 50 50 51 53 55 58 59 62 63 63 64 66 68 71
38 39 38 39 37 35 36 37 37 39 42 43 42 41 39 38 39 38 38 39 40 41 43 45 47 49 50 50 51 51 52 53 56 59 61 63 65 65 66 68 70 72 75

GFSMW_250_spd_066.txt.gz
Wind_Speed
84 83 81 79 80 80 79 78 78 76 74 73 73 74 75 75 75 75 76 76 76 75 73 76 77 77 77 78 81 84 88 91 95 97 99 103 105 106 112 111 110 110 102
84 82 82 81 81 81 82 81 79 78 77 77 76 76 75 75 76 76 76 76 74 74 75 75 76 80 82 84 88 90 92 96 100 105 108 108 110 114 116 118 116 106 94
89 85 82 82 81 80 80 80 80 79 78 78 79 79 79 80 79 78 76 75 73 74 75 76 79 84 88 90 92 95 99 101 105 109 113 117 118 120 119 116 108 100 98
89 88 88 86 84 83 81 80 80 80 79 77 75 74 75 77 79 77 77 77 78 80 81 82 84 86 90 93 96 100 103 107 110 114 119 122 124 124 117 104 104 105 105
90 88 87 88 87 87 85 82 81 81 80 81 81 80 78 75 74 74 77 78 82 85 88 90 92 92 93 97 101 104 108 113 116 118 122 124 124 120 115 108 103 105 100
96 94 92 90 89 88 86 85 85 83 82 82 81 81 80 79 79 79 81 84 87 89 93 95 96 98 100 103 105 110 113 115 120 123 126 126 121 118 115 104 92 91 87
101 100 96 95 92 90 89 87 86 85 85 86 85 85 85 85 85 87 88 89 91 92 95 99 102 104 106 110 113 114 116 119 123 125 124 120 115 114 105 98 88 80 80
106 104 101 99 98 96 93 91 90 87 86 85 85 86 86 87 89 90 91 93 95 96 98 101 106 107 112 113 113 117 120 123 124 119 115 109 107 105 99 90 81 77 81
111 109 106 104 102 100 97 95 94 92 91 91 91 91 91 91 92 93 94 96 99 102 103 106 107 111 111 113 118 119 121 119 116 111 105 102 99 97 92 84 80 82 85
113 114 112 108 105 103 101 99 99 97 96 96 95 95 95 94 95 96 98 100 102 104 105 109 109 110 114 115 116 117 111 110 105 104 97 92 89 89 86 83 83 79 71
104 111 113 112 109 107 104 102 101 99 98 97 96 96 96 97 98 100 101 103 105 108 107 109 112 114 115 116 108 104 101 101 100 94 86 82 79 84 87 84 80 69 58
100 101 105 111 112 111 108 105 103 102 101 100 100 99 100 101 101 103 105 108 110 112 112 115 114 116 110 99 97 96 98 94 89 81 74 70 73 76 81 81 75 63 56
108 100 98 102 109 112 111 110 108 106 105 104 104 105 105 106 107 109 108 110 112 113 115 114 107 95 92 90 92 93 89 83 76 70 65 66 67 68 68 66 64 62 52
103 102 99 98 100 105 108 108 109 109 109 109 107 108 109 109 109 110 111 113 114 108 101 94 87 86 86 90 91 83 78 72 66 61 61 60 61 62 60 55 54 51 47
90 96 101 103 98 97 100 102 105 106 106 107 108 107 107 107 109 110 107 99 92 87 83 81 82 84 85 87 78 74 67 65 58 57 58 56 57 56 56 53 47 45 42
85 88 92 95 98 98 98 98 100 103 104 104 105 106 106 105 102 97 88 82 78 76 77 81 82 83 82 74 69 66 62 56 54 55 55 54 55 52 51 50 49 45 39
78 80 84 86 88 89 90 92 93 96 97 98 98 94 91 87 84 77 75 75 75 77 82 85 83 82 71 65 63 61 55 52 51 53 52 52 52 50 49 49 48 45 41
71 74 77 79 81 82 84 84 85 86 85 84 78 75 73 69 70 73 74 76 78 82 81 80 70 65 60 58 58 54 50 49 52 51 52 52 51 50 49 49 50 49 47
66 68 70 72 73 74 74 72 68 64 60 59 60 60 63 67 69 74 77 78 78 78 71 63 57 54 53 54 54 48 46 47 50 51 52 52 52 51 51 50 51 51 50
60 62 65 66 68 71 65 61 58 57 55 55 60 63 65 68 73 75 74 74 68 61 55 52 51 51 49 51 48 46 46 48 50 52 53 53 53 54 55 54 54 53 53
54 56 58 60 61 64 63 61 56 57 60 59 60 62 68 69 75 72 66 61 54 50 51 50 51 50 49 50 49 47 48 50 52 52 53 54 55 56 57 58 58 58 59
50 50 50 49 50 55 62 65 63 64 66 67 64 69 66 62 59 58 55 50 48 47 50 49 50 49 49 50 50 49 50 52 53 53 54 54 55 56 57 58 60 61 63
43 43 44 43 42 44 46 49 52 53 52 53 56 54 52 52 51 50 47 47 44 46 49 48 48 47 47 49 50 51 52 53 54 56 56 57 57 58 58 60 63 65 66
44 42 42 43 43 47 47 48 51 52 51 49 45 45 45 46 49 49 46 42 43 45 45 45 45 46 48 50 51 53 53 54 55 55 57 57 57 58 59 62 65 67 68
47 45 45 46 46 48 47 47 48 46 47 43 42 41 43 47 49 49 44 41 43 43 43 43 43 44 46 48 50 52 53 54 56 57 58 58 58 60 62 64 65 66 67
45 46 49 51 54 51 49 51 51 45 42 40 40 42 45 47 48 47 44 42 42 44 42 42 42 43 44 46 47 49 51 52 53 54 56 57 59 60 61 62 64 67 71

GFSMW_250_spd_069.txt.gz
Wind_Speed
86 83 82 81 81 81 80 79 78 78 77 76 76 75 73 73 73 73 73 73 73 74 75 76 75 76 76 76 77 76 78 81 85 87 91 93 95 98 101 104 110 113 116
86 84 82 81 83 83 83 82 81 79 77 76 76 76 77 76 74 74 75 76 77 77 76 75 75 74 73 75 78 80 82 86 91 93 95 96 98 102 106 112 115 118 121
88 86 84 82 82 82 82 82 81 81 80 79 78 78 77 76 77 78 78 79 78 78 78 77 76 76 76 79 82 85 89 92 95 100 103 105 104 107 111 116 121 123 119
93 90 89 87 85 83 82 81 79 79 79 78 78 78 78 79 79 78 79 79 79 79 77 78 78 76 79 82 87 92 96 99 101 104 107 110 113 113 114 120 121 116 110
99 96 91 90 89 88 86 84 81 79 78 78 78 78 79 79 80 80 82 84 84 85 85 84 86 86 87 89 92 96 99 101 103 107 109 113 117 120 124 125 118 115 108
103 101 97 94 93 92 90 88 85 83 82 81 80 80 80 80 79 80 82 83 85 86 86 88 91 92 92 93 96 98 100 103 106 107 110 114 119 123 125 123 117 106 100
105 103 102 99 95 94 92 90 88 86 85 85 85 85 83 83 83 82 82 83 83 85 88 89 91 92 95 97 99 101 104 104 107 111 117 121 123 124 117 114 105 100 94
106 105 103 101 99 97 96 94 92 90 88 87 86 85 85 85 85 85 86 87 89 88 89 90 93 96 99 103 105 106 106 108 112 119 120 123 119 111 107 103 99 92 86
109 110 108 106 104 102 100 98 96 95 94 93 92 90 89 89 89 88 88 89 90 92 93 95 98 100 102 104 106 107 110 115 119 121 121 113 105 104 99 94 90 86 79
107 109 108 108 108 107 105 103 101 100 99 98 97 96 95 95 94 95 95 95 96 98 99 100 100 101 103 105 108 110 115 118 120 117 105 101 100 96 89 84 80 76 76
96 100 102 102 105 108 109 108 106 104 103 102 101 100 99 98 98 98 98 99 100 99 99 100 101 103 105 108 110 114 116 116 107 98 96 96 94 88 80 76 71 71 72
92 92 89 91 95 100 105 108 108 109 109 107 106 105 104 102 100 100 99 99 99 101 101 103 104 105 108 111 114 113 110 102 94 92 91 90 82 78 74 68 66 66 68
95 91 86 86 87 89 93 94 97 99 100 103 105 107 108 108 106 106 105 105 105 105 105 106 108 110 111 112 110 104 100 91 89 89 90 86 75 71 66 62 64 63 62
104 98 95 92 89 90 89 88 90 94 96 98 97 98 99 102 104 105 106 107 105 106 106 108 109 110 108 106 101 94 89 87 89 90 86 75 69 66 62 59 60 59 58
117 112 112 112 106 100 99 101 102 101 101 102 101 98 98 98 97 99 101 102 104 106 107 105 104 103 99 94 86 84 86 87 89 79 72 68 66 61 56 59 59 58 57
90 92 93 95 106 113 113 112 109 108 109 106 103 102 104 106 100 97 103 108 103 100 98 98 93 90 82 80 82 83 86 86 75 70 66 63 60 56 57 59 59 58 57
79 81 83 86 88 91 93 93 93 91 89 89 92 94 97 99 98 99 94 91 90 88 87 83 76 74 77 79 82 82 79 70 65 64 61 59 55 54 56 58 58 57 58
71 73 77 80 82 82 82 81 81 81 81 81 82 82 82 80 83 84 79 80 77 72 67 68 72 74 79 79 78 71 65 60 60 58 56 53 54 54 55 57 57 58 58
66 68 69 72 71 70 71 72 71 73 73 73 73 73 72 71 71 66 61 60 60 62 67 70 74 77 76 71 65 59 58 57 57 55 55 55 55 55 57 58 58 58 59
61 63 64 65 64 65 66 67 68 68 66 69 68 65 59 54 52 54 54 59 62 66 67 74 74 67 61 57 56 57 56 56 55 55 55 56 57 58 58 59 59 59 60
56 58 61 63 63 62 64 65 65 63 59 60 61 56 51 55 55 56 59 61 65 69 71 63 57 55 55 54 54 54 54 54 54 55 57 58 59 59 59 60 59 60 61
49 50 51 54 56 58 59 60 61 62 60 60 58 57 56 54 55 58 64 63 66 65 59 52 53 52 52 51 52 52 52 52 53 55 56 58 58 60 61 61 61 61 62
46 46 48 48 47 47 48 49 50 51 48 47 57 58 54 58 63 61 57 60 56 53 50 51 48 48 49 50 49 49 50 51 53 55 57 59 59 61 62 62 62 62 62
44 41 42 41 41 44 45 44 42 39 39 42 46 50 53 53 53 56 56 52 49 49 49 46 43 46 47 47 47 48 48 49 50 52 53 55 57 58 59 59 59 60 62
45 45 43 42 40 39 39 40 40 40 42 44 46 50 51 51 51 51 50 47 48 48 48 46 44 46 46 45 44 45 45 45 46 49 51 53 54 55 55 56 59 60 62
45 48 48 45 42 42 42 42 43 44 47 50 52 52 52 51 50 48 47 47 49 49 48 44 42 41 41 40 39 40 41 43 44 46 49 51 52 54 55 59 62 66 69

GFSMW_250_spd_072.txt.gz
Wind_Speed
90 90 85 85 82 79 78 76 74 73 71 70 71 71 72 71 72 71 70 72 73 73 73 74 75 74 74 76 77 78 80 77 78 80 84 86 87 90 94 98 101 104 105
89 87 85 82 83 84 83 81 79 77 76 75 75 75 76 76 76 76 76 75 75 75 75 76 76 77 78 79 80 79 79 80 86 87 86 85 91 96 97 101 103 105 110
91 88 86 84 82 82 83 84 83 82 81 80 79 78 79 79 78 77 76 76 77 77 77 78 79 79 78 79 80 81 84 87 87 89 92 93 93 96 101 103 107 111 117
98 94 91 88 86 85 84 83 82 82 83 82 81 81 80 80 79 79 80 79 78 78 77 78 79 80 80 82 84 84 85 85 89 92 96 98 98 102 99 105 109 115 117
104 100 97 93 91 88 86 85 84 83 81 79 79 80 80 78 77 77 77 77 77 78 79 79 80 82 82 82 84 86 87 90 92 96 99 101 104 103 107 107 111 116 114
110 104 100 97 96 93 90 88 86 85 83 80 79 79 78 79 79 79 79 80 80 81 82 84 85 85 87 88 88 89 91 93 95 99 101 103 103 106 109 112 117 117 106
111 108 106 103 99 97 94 92 91 89 87 85 83 83 83 82 82 82 82 83 84 85 85 87 88 88 88 89 89 91 94 96 98 101 100 102 106 109 112 117 116 115 102
106 111 112 109 105 101 99 98 96 94 92 89 87 86 85 85 85 85 86 85 85 85 85 86 87 88 90 92 95 97 99 100 102 101 105 107 109 113 117 116 117 103 99
105 102 108 110 109 107 105 102 100 99 97 95 93 91 90 88 88 88 88 88 89 90 90 90 92 94 96 97 100 101 102 103 104 106 107 110 113 117 116 114 106 100 91
106 104 102 103 107 108 106 104 102 101 101 100 98 97 95 94 93 93 94 94 95 96 97 97 98 100 100 101 102 103 103 105 108 109 112 114 115 112 111 103 99 93 88
105 100 100 99 101 104 106 107 106 104 104 103 102 101 100 100 100 101 101 101 101 102 102 103 104 104 105 105 107 108 109 111 111 113 113 111 108 105 99 96 91 89 80
101 99 97 98 99 99 102 104 104 104 103 104 104 104 105 105 106 107 106 106 106 106 107 108 108 107 107 106 107 108 107 108 110 110 106 102 95 93 93 90 88 81 73
89 90 92 90 90 92 93 94 97 100 104 105 104 104 105 104 105 107 108 108 108 106 107 105 104 104 100 99 101 101 103 105 105 99 94 90 87 89 89 88 80 73 68
81 84 88 84 85 88 88 86 88 92 91 92 93 95 97 98 99 99 103 103 102 100 98 96 98 98 97 102 102 100 100 95 92 87 85 82 85 85 85 79 72 67 65
104 95 87 92 90 80 83 85 82 84 84 87 87 88 86 88 87 88 89 93 95 97 101 102 101 98 100 101 97 92 90 86 81 78 79 83 84 84 76 71 66 64 59
96 107 103 102 91 86 85 85 86 88 90 92 90 92 94 94 93 93 92 96 101 98 98 94 91 92 90 85 84 83 80 75 76 79 81 83 82 74 68 65 63 59 57
85 86 88 92 94 94 93 93 94 93 93 95 95 97 97 99 98 98 102 104 95 90 86 85 83 76 77 75 78 71 71 74 78 80 82 78 71 64 62 62 62 58 57
71 75 77 76 76 77 79 79 81 81 82 82 86 86 86 86 87 89 87 84 82 79 70 70 72 71 72 66 65 69 74 76 79 74 70 66 63 62 62 62 60 58 59
67 68 70 70 70 70 71 71 73 74 74 76 78 79 80 79 77 77 75 71 65 65 64 63 60 58 61 65 66 71 76 76 68 65 64 61 63 62 60 60 59 59 60
59 62 65 66 68 68 69 69 69 69 70 70 70 70 69 68 67 63 59 62 59 55 53 54 56 57 63 68 71 71 67 66 63 62 60 60 60 59 59 58 58 59 60
56 58 59 62 62 63 65 66 66 66 63 62 62 63 61 59 57 56 56 53 51 49 54 55 56 61 64 65 64 60 62 61 59 57 56 57 57 56 56 57 58 60 62
47 48 49 51 53 56 59 59 59 59 58 58 59 59 58 57 54 51 54 51 53 55 54 53 57 64 64 61 55 54 53 54 55 55 54 54 52 52 53 54 56 57 58
43 44 45 43 42 44 46 50 51 54 55 56 59 59 60 59 62 59 55 57 57 53 53 60 60 62 59 54 52 49 51 51 51 51 50 49 49 50 50 51 51 52 54
46 45 44 45 44 41 42 43 43 43 44 44 46 47 50 52 51 46 47 52 54 54 56 59 60 56 54 52 51 49 47 43 41 41 42 44 45 47 48 49 52 55 59
45 44 46 45 45 41 39 38 40 43 45 45 45 44 44 44 42 42 46 51 51 52 56 57 55 52 52 52 49 46 42 42 43 44 47 50 51 53 55 57 59 62 64
40 41 42 44 46 44 42 40 39 38 39 40 41 41 40 40 42 45 49 51 55 56 57 57 53 50 51 52 49 44 43 44 46 48 50 52 55 58 59 61 62 64 66

GFSMW_250_spd_075.txt.gz
Wind_Speed
92 90 88 87 81 80 76 67 63 63 66 70 69 67 66 65 65 63 61 61 61 64 65 69 71 71 73 74 74 73 76 78 78 76 78 79 83 86 88 89 90 93 96
96 93 92 90 88 82 79 77 74 70 69 68 69 69 70 69 68 67 67 67 68 70 72 73 75 75 75 75 76 78 78 78 80 80 80 81 85 89 90 90 92 95 98
98 97 94 92 88 86 85 83 79 78 74 72 71 71 72 73 73 72 72 72 74 75 76 77 76 75 77 79 78 77 77 78 81 82 84 86 86 85 87 94 97 100 103
102 99 97 93 90 87 86 85 83 83 83 81 78 76 76 77 77 76 76 77 77 77 75 77 80 78 77 76 77 78 80 82 85 87 90 87 85 85 89 94 99 103 105
109 105 102 98 94 91 89 87 86 85 83 81 81 81 79 79 79 79 78 78 78 78 77 77 77 77 77 79 81 82 83 84 84 85 86 88 92 96 99 101 103 102 107
109 110 106 104 101 97 94 90 88 86 86 84 81 79 79 78 78 78 77 77 77 77 77 77 78 80 81 82 83 83 84 86 87 89 93 96 100 102 104 106 105 108 111
104 107 111 108 107 103 97 93 90 89 88 86 84 82 81 81 81 82 81 81 81 80 81 82 83 83 85 86 86 88 89 92 94 96 98 101 102 104 107 110 113 113 112
104 105 110 113 111 107 103 101 96 94 92 91 88 86 85 84 83 83 83 83 83 84 85 86 88 87 89 90 91 93 96 98 98 100 100 103 108 108 108 112 112 107 107
103 103 104 105 111 112 110 106 103 100 97 96 93 91 90 89 88 88 88 89 89 89 90 91 91 93 94 95 96 98 99 101 104 107 109 110 109 109 109 107 105 103 94
105 104 103 104 103 109 112 111 108 106 104 101 99 97 95 95 94 93 93 94 94 95 95 96 97 98 98 99 101 102 104 106 108 110 109 112 106 106 106 108 102 97 94
101 104 106 102 101 100 101 108 111 108 105 104 103 102 101 100 99 98 97 97 98 99 100 100 101 102 103 104 105 106 108 111 110 104 107 108 105 105 105 103 98 94 90
99 102 104 102 101 99 96 97 99 106 113 112 110 108 106 105 105 104 104 104 104 104 104 104 104 105 107 108 108 107 108 107 108 107 103 104 105 102 98 93 92 88 85
97 97 95 98 96 98 97 95 93 93 95 102 109 111 111 110 110 108 107 107 106 107 106 108 110 109 109 108 110 107 108 106 99 97 100 97 97 90 88 89 88 84 85
97 99 98 93 90 86 87 89 90 91 92 94 95 97 98 100 102 105 106 106 108 107 106 106 105 103 102 102 98 94 96 98 99 94 94 89 85 86 85 84 81 82 82
92 90 90 91 90 85 81 82 84 84 86 86 84 87 88 90 90 92 94 94 95 95 95 95 96 98 93 92 96 96 94 97 90 89 87 82 83 83 80 79 79 81 75
81 82 83 82 85 87 76 75 73 75 75 75 74 76 79 81 82 85 85 88 89 90 94 90 88 90 96 94 92 91 88 86 85 80 79 80 76 78 78 79 76 72 66
78 79 84 85 89 91 87 81 78 79 80 81 85 86 81 80 81 85 85 86 85 87 88 89 89 88 95 88 89 83 80 77 76 75 72 73 75 78 76 70 65 64 62
76 78 80 81 81 81 79 76 75 71 72 75 76 78 81 81 81 80 82 83 81 82 85 85 83 84 83 80 76 71 68 70 65 65 71 75 75 70 66 64 62 59 60
67 70 72 73 74 74 72 70 68 68 70 71 73 72 72 73 74 75 74 74 74 76 78 78 76 74 69 64 64 65 61 60 63 68 70 71 68 65 58 56 56 56 56
59 63 65 65 66 66 65 64 63 64 64 63 63 64 65 65 66 66 66 67 68 69 69 64 61 59 58 60 57 57 55 60 63 69 68 64 62 57 56 56 54 52 51
47 49 53 56 57 59 61 61 61 61 61 62 62 62 63 63 64 64 63 64 62 55 53 53 55 56 53 50 53 56 55 59 64 66 62 60 55 53 52 48 46 45 45
38 40 42 45 47 48 49 52 55 56 57 58 59 58 59 58 57 56 56 54 53 52 53 53 53 51 52 54 54 54 59 61 64 59 58 53 49 44 42 42 45 47 49
37 37 39 39 38 39 40 39 39 42 46 49 52 54 55 54 54 53 53 55 54 49 54 57 55 56 52 56 53 57 60 61 59 56 53 49 46 45 46 48 49 51 53
39 40 39 39 40 41 41 41 40 38 39 41 43 44 46 48 51 54 56 58 57 56 61 59 55 48 48 51 55 57 59 59 56 56 53 50 49 49 50 50 51 54 57
39 41 42 42 43 44 43 42 41 39 39 40 41 42 42 42 42 43 44 45 50 53 53 48 44 46 50 53 57 60 60 58 55 56 54 52 50 52 53 54 56 60 61
37 38 38 39 40 42 42 43 42 42 38 38 37 38 41 43 45 46 47 46 47 46 43 43 44 48 51 55 59 60 60 57 55 56 55 54 53 55 57 58 60 63 67

GFSMW_250_spd_078.txt.gz
Wind_Speed
99 95 90 85 82 80 79 74 73 66 60 62 63 66 66 64 65 64 62 62 63 63 64 64 63 63 62 66 68 70 74 69 73 72 76 77 78 79 81 84 87 90 92
101 99 94 90 87 84 83 80 74 64 60 62 63 65 65 67 70 69 67 67 68 68 67 67 67 67 68 71 73 72 71 73 76 77 76 76 79 83 87 90 92 93 93
103 103 99 95 91 88 86 83 80 77 77 71 66 64 65 66 68 70 71 72 72 70 69 71 72 72 74 75 71 72 74 78 80 79 79 80 83 86 88 93 96 95 99
102 104 103 99 96 94 91 88 85 84 82 80 79 76 73 73 71 71 71 69 70 71 71 72 72 71 71 73 75 78 78 79 80 82 84 87 88 90 90 92 97 101 104
99 102 105 104 99 96 95 93 89 88 88 88 87 86 84 83 80 75 73 73 72 71 74 76 75 74 75 78 79 80 80 81 83 86 89 92 93 93 94 95 101 103 106
97 98 103 106 106 102 98 96 95 92 92 91 90 88 87 85 83 82 82 82 81 81 80 78 78 78 80 81 81 80 83 85 87 89 91 93 94 97 101 103 104 107 110
98 99 100 106 108 107 105 102 98 96 93 92 91 89 87 86 85 86 85 84 84 83 81 81 80 81 81 80 82 83 86 88 90 92 94 97 99 101 104 107 109 111 114
97 99 101 103 109 111 109 106 103 99 97 96 95 93 91 90 89 89 88 88 86 84 83 83 84 84 85 87 88 89 91 93 95 98 99 101 105 107 107 111 111 116 111
96 97 100 103 105 112 112 109 107 105 103 101 99 97 95 94 93 92 90 90 89 88 88 88 89 88 88 90 90 94 97 98 101 103 105 108 108 111 113 115 114 114 112
98 100 100 102 105 107 112 113 112 110 108 106 104 102 99 98 97 96 95 94 94 94 95 94 93 93 93 94 98 101 102 103 106 108 108 110 111 113 116 115 114 111 105
98 100 101 102 104 107 108 109 112 114 113 112 110 109 107 105 103 101 99 98 99 99 99 98 98 98 99 100 101 103 106 108 105 108 112 110 113 116 113 113 111 104 95
95 96 97 100 102 104 107 109 109 109 109 110 112 113 112 111 109 108 105 104 104 103 102 102 103 104 104 104 105 105 107 109 111 112 113 116 110 110 108 104 102 98 91
90 91 94 97 99 100 101 102 105 107 107 106 107 109 111 112 114 113 112 110 108 108 107 106 107 107 109 109 110 110 113 115 116 116 114 107 108 103 102 102 93 90 88
89 89 91 93 96 94 95 97 98 99 102 104 104 105 106 108 111 114 116 117 115 114 113 113 112 113 114 112 112 112 113 115 112 106 102 105 98 101 96 92 87 86 85
86 87 88 89 90 89 90 92 92 95 97 97 97 98 99 100 98 100 102 101 102 105 106 107 106 107 109 107 104 105 105 99 99 101 96 99 97 91 87 85 83 84 83
80 82 84 86 86 85 85 86 88 89 88 88 87 88 90 91 87 91 92 91 94 93 97 98 92 97 99 99 97 96 91 90 92 96 96 90 84 83 81 79 80 79 79
73 76 79 80 81 81 80 80 79 79 79 80 82 81 79 77 77 82 85 93 94 94 87 92 98 100 96 91 88 88 91 95 91 84 84 83 80 76 76 74 75 75 70
69 73 75 76 78 79 78 78 77 79 82 81 82 78 75 76 78 79 80 82 86 85 84 83 83 82 82 83 86 90 85 80 80 78 74 71 71 72 69 71 72 68 62
64 66 68 71 73 75 77 77 77 78 77 74 71 69 70 73 76 77 78 79 78 78 78 78 81 84 84 82 76 76 76 73 69 67 65 66 65 65 65 68 65 59 56
59 61 64 65 66 68 69 70 72 72 72 69 68 67 68 69 70 70 71 70 70 71 70 71 71 71 70 71 69 68 67 65 62 61 59 59 60 62 65 64 57 53 49
48 52 55 59 61 63 66 67 66 65 65 65 64 64 63 63 63 62 62 62 63 65 65 66 66 65 64 63 61 61 60 57 59 58 59 59 58 62 63 57 53 49 49
39 40 41 44 47 51 55 57 59 60 61 62 62 62 63 64 63 61 61 62 63 65 64 62 62 61 57 56 56 56 55 54 53 56 58 57 59 61 61 55 54 51 51
38 38 39 39 41 43 44 45 46 47 47 50 53 56 57 59 59 58 58 59 59 58 58 57 54 55 54 53 54 57 55 57 60 52 54 58 59 61 60 56 55 54 55
40 41 41 40 40 41 42 43 43 43 44 45 46 46 46 49 51 53 55 56 56 56 57 56 54 56 58 54 56 61 61 57 51 50 57 59 62 61 58 56 56 57 57
40 40 41 43 43 43 43 43 44 46 46 46 45 44 44 45 47 47 47 48 50 52 53 55 58 59 61 60 59 54 50 46 47 54 59 62 65 62 58 56 58 59 59
40 40 41 42 43 43 43 44 46 46 47 47 46 44 43 44 44 45 47 46 46 46 45 46 46 49 51 55 52 48 46 47 52 57 62 64 65 64 58 57 60 61 60

GFSMW_250_spd_081.txt.gz
Wind_Speed
95 91 88 87 85 81 79 76 73 71 67 61 58 56 58 58 59 60 61 60 61 62 62 62 62 63 64 66 67 68 70 70 70 71 71 73 77 78 81 82 83 85 87
99 95 93 91 89 86 83 80 79 75 72 71 67 61 62 62 60 61 63 66 65 65 65 65 67 67 69 70 70 72 71 72 70 69 73 74 79 80 80 85 88 90 91
103 101 99 98 95 92 89 86 82 79 77 74 72 70 69 63 63 64 62 62 64 65 66 68 70 71 73 74 73 69 65 68 73 76 77 77 78 80 83 88 92 95 96
104 103 103 101 101 97 93 91 88 84 81 80 79 78 76 76 71 68 65 65 66 66 66 66 67 68 68 66 65 68 72 76 77 77 80 81 81 82 85 90 95 97 101
102 103 106 105 104 101 99 95 93 91 88 85 84 81 82 80 72 69 69 69 67 67 69 70 71 71 71 71 73 77 80 81 83 83 83 84 84 87 90 91 96 99 104
101 100 104 106 105 104 103 101 100 98 96 90 88 84 81 81 80 80 83 84 85 84 83 83 83 83 81 82 84 85 86 85 83 84 86 88 90 92 94 96 99 104 107
102 100 98 103 107 108 107 106 106 104 101 99 95 93 91 91 91 90 90 91 90 90 91 90 89 87 85 85 86 86 86 85 86 88 88 89 91 95 97 101 105 108 109
101 101 102 102 103 104 106 107 107 107 107 105 101 98 95 94 93 92 93 94 94 93 91 89 89 89 88 89 89 89 89 90 92 93 92 94 98 101 103 106 109 110 113
95 97 98 100 102 103 104 106 107 108 108 109 109 105 104 101 99 98 97 96 95 95 94 93 93 94 93 93 94 94 96 97 98 99 99 101 102 103 106 108 111 114 117
93 96 97 98 99 103 105 105 105 107 109 110 110 109 108 107 106 104 102 99 98 98 97 98 98 98 97 98 97 99 100 101 102 102 102 104 104 109 109 112 116 120 120
94 95 95 97 97 100 101 103 105 106 106 109 110 111 112 112 111 109 108 105 104 104 103 102 101 101 101 101 101 103 103 105 105 106 108 109 111 112 116 119 121 119 124
94 95 95 98 99 99 100 102 104 106 107 108 109 112 113 114 114 113 113 112 111 110 108 106 105 105 104 105 105 107 108 110 112 112 112 115 116 120 122 121 121 123 114
87 92 97 99 99 100 101 103 104 104 105 107 109 110 111 115 115 114 114 114 114 113 112 111 111 112 112 112 112 112 113 113 114 116 117 118 119 122 120 119 117 109 104
81 86 91 96 100 103 103 103 103 104 104 106 106 107 108 110 114 117 118 118 117 116 115 116 117 117 116 117 116 119 120 123 121 121 121 120 116 114 110 107 104 99 101
78 82 86 91 95 99 102 103 103 105 105 105 104 104 106 106 107 110 113 114 115 116 117 117 118 119 119 118 117 116 114 114 115 112 113 107 104 98 104 98 94 93 91
76 80 82 84 86 89 91 94 96 98 98 100 101 101 101 101 103 105 106 107 109 111 112 113 113 113 113 111 110 105 103 100 99 100 102 101 98 98 94 92 96 84 82
75 75 77 79 81 83 84 85 86 87 87 90 93 94 95 95 93 93 93 94 96 98 98 97 95 98 100 101 96 96 99 101 98 100 97 97 94 86 89 85 80 76 73
71 72 72 74 75 76 78 79 80 82 83 85 86 87 87 86 87 86 87 86 86 87 89 88 89 88 89 87 85 85 87 87 86 86 86 86 85 82 76 73 70 69 66
66 67 67 68 69 71 73 75 77 77 78 78 79 80 81 81 80 80 80 80 80 79 79 83 84 84 81 85 85 86 83 82 82 83 82 76 70 68 66 65 65 63 66
61 64 63 64 65 67 69 69 70 71 73 74 74 76 76 76 76 76 75 75 74 73 77 77 77 78 78 78 78 77 79 77 72 70 68 65 65 63 58 60 62 63 64
54 56 59 62 63 65 65 66 66 66 68 68 68 68 68 68 68 68 69 70 70 69 68 70 70 69 70 70 69 69 66 67 65 63 61 61 57 58 58 58 59 59 61
47 48 51 55 57 57 58 60 61 64 65 66 66 67 68 69 68 67 66 66 66 66 64 63 64 64 65 65 64 64 64 62 58 56 57 57 57 57 57 58 59 60 61
43 44 44 45 46 47 48 49 52 54 56 57 59 58 59 61 62 62 62 63 63 62 61 62 61 61 62 61 60 59 57 55 54 54 53 58 59 60 60 59 59 60 62
41 42 43 44 44 45 45 47 47 47 48 50 51 51 50 52 52 53 54 55 57 58 58 59 59 58 59 58 57 55 55 55 57 55 59 62 59 52 50 54 59 61 63
38 40 42 44 45 45 46 47 48 49 50 50 50 51 51 52 52 52 52 53 53 53 53 53 56 57 58 57 57 57 59 58 58 60 61 61 54 50 53 58 61 62 65
41 40 40 41 43 45 47 48 49 49 51 53 54 54 53 52 53 52 51 52 51 50 49 49 49 49 51 53 55 57 55 54 53 53 55 51 48 50 55 61 65 65 67

GFSMW_250_spd_084.txt.gz
Wind_Speed
112 108 103 94 86 81 82 78 78 75 71 70 71 72 68 64 62 59 57 55 56 59 59 59 61 60 62 62 62 63 65 67 68 69 70 72 69 67 71 78 82 84 86
111 109 103 98 90 87 83 78 81 80 76 75 70 68 65 68 65 63 61 60 58 58 59 58 61 64 65 65 66 67 68 70 69 63 61 61 67 72 76 81 85 85 87
104 106 103 100 98 91 87 86 79 80 79 77 75 71 70 69 70 66 68 65 61 61 61 61 61 61 60 62 62 63 65 64 64 66 67 70 72 78 82 84 86 87 89
106 107 105 101 100 99 91 89 89 83 77 71 73 71 72 68 67 73 75 72 67 65 66 65 66 66 64 66 68 68 68 70 70 73 77 79 81 82 82 83 85 88 93
106 105 106 105 101 99 99 94 91 89 87 86 84 82 79 80 77 76 76 76 77 78 76 74 73 72 70 70 71 71 74 78 81 84 86 84 84 85 85 84 88 93 97
106 106 106 107 105 102 100 100 97 94 92 90 90 88 87 86 85 82 80 80 79 80 80 79 77 77 79 80 82 84 87 90 91 90 88 87 87 89 91 92 95 99 101
103 104 105 107 106 106 103 102 102 100 97 96 95 95 94 92 88 86 85 82 82 83 84 83 84 85 86 87 89 91 93 93 93 91 90 92 92 93 95 98 100 102 105
99 103 102 107 107 106 106 105 105 104 104 103 102 102 101 100 99 98 96 94 91 90 89 89 88 90 91 93 95 95 95 95 95 94 96 95 96 98 100 101 104 106 106
92 100 99 109 111 109 109 109 109 109 109 109 108 106 105 106 105 104 103 101 100 99 98 97 96 96 96 96 95 95 97 98 99 100 98 100 100 102 104 105 107 111 108
88 91 96 101 105 110 112 111 110 111 112 111 111 111 110 110 110 109 109 107 107 106 104 103 102 102 101 102 102 102 103 102 103 102 103 105 105 106 107 108 111 114 115
86 88 91 93 101 106 106 106 106 108 107 108 110 113 114 115 114 113 112 111 111 111 111 110 109 108 109 107 107 106 107 107 108 108 107 110 109 108 111 114 113 117 124
86 88 90 91 93 96 100 103 105 106 108 108 108 110 112 113 114 113 113 113 111 112 112 112 113 112 113 113 111 111 111 111 112 112 113 114 114 113 116 117 119 123 123
86 89 92 93 94 95 96 97 99 103 106 108 109 111 111 110 110 112 112 112 112 111 111 110 112 113 114 115 115 115 116 118 118 117 116 115 116 116 120 124 125 121 119
81 85 89 92 95 98 100 101 100 102 103 105 107 108 108 108 109 109 110 109 110 111 110 111 112 111 114 115 116 115 115 115 116 116 117 118 121 124 124 122 115 116 110
78 81 83 86 89 92 95 99 103 103 103 103 104 105 107 108 107 106 107 108 108 108 108 110 110 110 113 113 116 117 119 120 121 122 124 122 120 117 117 116 111 108 107
76 77 78 81 84 86 89 92 96 99 102 104 104 105 104 105 105 106 106 107 106 105 105 106 106 107 108 110 110 111 111 112 115 116 115 113 111 108 101 100 100 99 97
73 75 75 76 78 81 83 86 89 92 93 95 97 99 102 105 106 106 107 108 107 107 105 107 106 105 105 105 105 105 102 104 104 101 101 99 100 100 100 95 92 87 82
70 71 73 75 76 76 78 80 82 83 85 86 87 89 91 93 96 97 98 100 101 100 101 100 100 100 98 98 96 96 95 93 94 98 95 93 90 90 85 82 82 78 73
62 68 71 71 71 73 75 76 75 76 76 76 79 80 81 83 85 86 88 89 88 89 89 91 91 90 88 89 91 92 91 90 88 88 85 85 84 84 82 74 73 68 63
56 59 63 65 66 67 69 70 69 72 73 74 75 76 77 78 79 79 80 80 82 82 82 82 82 82 82 81 80 78 80 82 82 80 77 76 72 68 66 63 60 60 57
51 53 57 57 60 64 65 66 66 67 68 69 71 71 72 73 75 75 76 77 77 77 77 76 76 77 77 78 76 77 74 73 71 68 65 63 62 60 58 56 56 55 56
45 45 47 51 54 56 59 61 64 65 67 67 68 69 69 70 70 71 71 70 71 70 70 70 69 68 68 67 67 67 65 65 62 61 61 61 59 57 54 52 53 55 58
46 45 44 45 47 48 51 55 58 58 60 61 62 63 64 66 66 67 68 68 67 67 66 65 64 63 63 62 62 61 62 62 61 60 58 56 54 51 50 50 53 55 60
43 44 43 43 45 46 46 47 49 50 52 52 52 54 56 58 57 58 58 58 60 60 60 59 58 56 55 54 54 56 58 58 59 57 55 55 54 52 54 53 56 58 61
41 40 40 42 43 44 45 47 48 48 48 50 52 53 52 54 55 55 55 56 56 55 55 56 55 54 52 52 53 54 55 55 57 57 57 55 56 56 58 59 59 62 60
46 44 42 41 40 40 42 44 46 48 50 50 52 53 54 55 56 57 56 54 54 57 56 55 54 53 52 50 49 49 50 52 55 56 56 57 59 60 60 59 58 59 58

GFSMW_250_spd_087.txt.gz
Wind_Speed
107 106 100 89 90 92 89 88 81 77 74 73 72 71 71 68 67 66 66 69 68 68 65 61 55 54 54 56 59 59 61 63 64 65 65 65 62 63 66 67 69 72 78
109 112 105 98 93 90 91 88 88 83 82 73 70 72 66 64 68 66 63 70 73 71 68 66 61 59 59 58 58 58 59 60 63 62 58 61 69 71 67 70 74 81 85
110 107 108 105 98 92 87 92 87 84 80 80 73 69 66 67 63 63 62 63 65 67 68 68 68 67 67 65 64 64 65 65 68 68 68 70 71 71 73 77 83 88 88
102 110 108 106 109 103 96 95 91 89 85 77 74 69 66 66 71 72 68 61 64 69 68 70 70 70 70 68 67 66 68 69 75 75 77 75 73 75 80 85 89 90 91
103 101 110 110 115 111 106 103 102 97 93 89 78 79 76 77 74 72 73 76 71 70 67 66 67 70 73 74 76 77 78 77 79 80 81 82 83 85 87 90 93 93 92
96 99 102 106 106 111 110 109 110 109 104 102 101 97 89 83 83 84 78 77 77 76 75 74 76 79 79 79 78 79 82 82 83 84 84 85 88 90 92 94 95 95 97
90 93 99 103 105 104 106 107 109 110 107 102 103 100 104 102 98 92 85 83 81 82 81 82 85 84 83 85 85 84 85 86 87 88 88 90 92 93 96 97 97 99 100
85 87 94 98 99 104 107 107 106 105 106 107 103 101 101 102 103 102 102 101 99 98 98 97 94 92 93 93 92 92 92 92 92 93 95 95 95 96 98 101 103 103 106
81 82 85 94 97 100 105 107 106 105 106 108 107 106 104 103 103 103 102 101 101 101 100 99 99 99 100 101 99 99 98 98 99 98 98 99 100 102 103 103 105 107 109
78 79 81 87 90 94 101 104 107 107 108 109 109 110 110 110 109 108 106 108 107 105 105 104 105 106 107 107 107 106 106 105 106 105 105 105 106 106 107 109 110 111 112
76 76 79 85 86 90 96 101 105 112 110 109 110 111 113 113 113 112 111 111 111 111 113 113 113 113 113 112 111 110 110 111 111 109 110 110 110 112 112 115 114 115 117
77 77 78 84 86 87 92 96 101 106 112 116 115 115 114 113 113 113 115 115 117 117 116 115 115 115 114 114 114 115 114 115 115 113 112 113 114 114 114 115 115 115 116
76 78 80 83 86 86 87 90 94 98 107 110 114 120 117 115 116 116 118 118 120 120 119 116 113 113 111 111 112 112 111 111 111 112 113 111 112 112 113 115 115 116 119
77 79 81 84 87 87 88 89 90 94 98 102 107 111 115 120 122 125 124 123 120 118 118 117 116 115 113 112 110 110 109 109 109 108 109 110 110 111 112 110 112 112 111
77 78 79 81 85 88 90 91 93 95 96 98 101 104 107 111 114 117 115 115 114 114 114 114 114 114 112 111 111 109 109 108 107 107 108 107 107 107 107 106 105 106 105
75 75 77 78 80 82 85 88 93 97 99 100 101 102 104 106 107 110 109 109 109 109 109 109 108 108 107 108 108 107 106 105 104 105 105 105 103 104 105 104 102 102 99
74 75 74 75 77 80 80 82 86 89 92 95 98 101 103 105 107 108 109 110 109 108 108 107 107 107 106 105 105 105 105 105 105 106 106 104 104 101 100 99 97 94 93
73 73 73 75 75 75 77 79 81 82 84 85 88 91 92 93 94 95 97 99 100 102 104 104 105 105 104 105 105 104 102 102 102 100 100 99 97 95 92 91 89 88 87
62 63 65 69 70 71 74 77 80 80 79 78 79 79 80 81 83 86 87 89 90 92 93 94 95 94 95 96 96 95 95 93 92 91 92 87 85 84 83 81 78 76 75
53 55 56 59 64 66 70 72 72 72 73 73 74 76 76 77 78 79 79 81 83 85 86 86 88 88 89 88 88 87 85 84 83 82 80 79 78 79 78 75 72 68 63
51 53 54 56 59 62 63 65 68 69 69 71 70 70 71 74 75 77 78 79 80 80 81 80 81 81 82 82 81 82 80 79 76 75 74 73 71 70 70 65 62 60 58
50 50 49 50 54 58 60 62 64 66 66 67 67 68 70 71 71 72 73 74 74 74 75 74 74 75 75 75 75 73 71 69 67 66 67 65 63 62 61 59 58 56 55
49 49 48 47 47 48 51 54 57 59 60 61 62 64 67 67 67 68 68 69 70 70 70 70 69 69 68 66 63 62 61 59 60 59 59 60 59 58 57 56 55 54 51
49 48 48 48 47 47 47 47 47 48 50 52 56 59 60 61 62 62 62 62 63 63 62 61 59 60 58 55 54 51 49 49 49 50 51 52 52 52 54 54 52 50 49
51 50 48 48 46 47 46 46 46 47 47 47 48 50 52 53 53 55 56 55 56 56 55 55 54 54 54 53 52 51 50 48 47 48 48 49 50 51 52 52 52 52 53
55 54 52 50 48 47 46 46 46 46 46 46 46 47 49 50 51 51 51 52 53 53 53 53 54 53 52 52 51 52 51 51 50 49 48 48 49 50 51 51 54 54 55

GFSMW_250_spd_090.txt.gz
Wind_Speed
108 102 101 101 102 100 95 97 93 92 87 83 80 66 68 64 53 54 55 56 59 61 64 65 66 68 67 65 64 62 59 57 61 63 60 63 63 62 64 68 68 68 72
104 106 108 103 98 96 99 98 99 97 95 95 90 85 85 80 73 68 66 65 64 66 70 72 70 71 67 66 64 64 60 64 63 64 66 65 67 66 69 71 74 74 76
103 105 104 105 102 100 97 100 100 101 97 90 91 87 88 87 81 77 74 72 68 70 74 68 63 63 63 61 62 64 66 67 72 70 68 65 71 74 76 77 79 80 80
121 109 99 102 104 105 102 97 93 95 95 95 97 95 91 86 82 74 71 68 70 71 70 73 74 72 70 69 68 69 68 69 72 71 69 71 73 74 75 81 81 81 84
116 123 120 101 100 100 103 105 103 98 88 88 85 87 88 88 92 91 82 84 83 80 78 80 77 75 73 64 63 64 64 66 69 73 77 79 81 82 81 82 89 89 89
110 119 120 123 116 102 103 101 102 102 98 97 76 82 85 83 87 87 88 84 87 88 83 77 75 77 75 75 77 78 76 74 78 82 85 85 86 89 90 89 91 92 92
99 108 121 123 125 123 110 104 106 104 100 103 100 98 90 86 90 92 92 94 92 87 88 86 85 85 86 81 79 79 81 83 84 86 86 87 92 94 95 95 96 95 96
94 98 103 106 112 118 119 113 110 108 109 106 102 108 109 103 101 100 102 99 98 98 95 94 100 99 95 90 89 89 90 91 92 93 94 95 96 97 98 100 102 103 102
85 90 93 95 98 105 111 117 116 114 112 115 110 107 111 116 118 115 115 112 112 113 112 112 110 109 109 105 105 106 106 105 104 104 103 101 102 102 105 106 106 107 109
77 79 83 89 95 98 104 109 110 114 114 112 114 117 120 117 116 115 116 118 119 119 118 116 112 111 112 113 113 110 107 107 107 106 106 107 107 109 112 113 113 113 114
74 77 81 87 92 95 96 102 107 107 108 110 111 112 114 115 114 114 114 116 115 114 114 113 112 113 112 114 112 111 110 109 110 111 109 111 112 113 115 116 113 111 111
75 77 80 86 90 90 91 94 97 101 102 103 107 109 108 108 112 115 113 115 113 114 116 117 116 115 116 116 117 118 115 113 112 113 114 112 114 114 113 112 109 107 109
76 77 79 82 85 88 88 89 90 93 96 97 100 105 110 107 110 109 113 116 113 114 113 113 115 117 116 117 118 116 114 115 114 114 115 118 116 114 112 111 110 108 106
77 80 82 83 84 85 86 87 88 90 92 93 96 100 104 104 105 107 110 114 117 119 118 117 118 117 118 118 117 118 118 117 117 120 119 116 114 113 110 109 107 106 105
77 80 83 83 81 81 83 85 88 89 91 92 93 97 99 99 101 104 107 111 112 114 117 122 121 121 122 123 124 123 125 124 121 119 115 113 110 109 106 104 103 101 101
77 77 77 78 79 81 82 82 84 87 89 91 93 94 97 98 100 102 104 106 107 107 110 112 113 115 115 115 116 116 115 115 113 111 108 108 106 106 105 103 104 103 102
74 76 76 77 79 81 81 82 81 81 85 90 93 95 96 97 99 100 101 102 102 103 104 105 107 109 109 109 110 110 110 111 111 112 111 109 106 105 103 101 100 99 96
74 74 74 75 76 78 77 79 80 81 82 83 85 89 93 96 99 100 101 102 102 103 104 105 107 108 110 109 109 108 107 106 104 102 101 99 98 95 93 91 90 88 86
62 65 68 70 72 73 74 77 77 77 78 81 83 84 85 87 88 90 92 94 93 93 94 95 97 97 97 97 98 97 96 95 93 92 91 90 89 87 84 83 82 80 77
59 60 60 60 61 63 64 67 70 73 74 74 77 78 81 82 82 82 83 85 85 86 88 89 90 89 89 90 90 90 90 89 86 85 83 83 83 80 77 76 74 74 73
60 60 60 61 62 62 63 65 67 67 70 71 74 76 77 77 77 77 80 83 83 83 84 84 85 85 85 84 84 84 84 84 82 80 78 77 76 73 72 69 67 66 63
60 59 60 60 60 59 60 63 64 65 66 69 71 72 73 74 74 76 77 79 78 79 79 79 79 79 79 79 78 77 76 75 75 74 71 69 68 67 65 65 63 61 59
62 62 60 59 58 57 56 57 59 62 64 64 65 65 67 68 68 69 71 72 74 74 74 74 72 72 71 71 72 70 67 65 63 60 56 53 52 53 53 53 53 52 52
60 61 61 59 58 56 54 54 55 55 55 57 58 59 60 62 63 65 67 67 66 66 65 65 64 64 62 61 59 58 56 53 50 48 46 43 43 42 43 43 45 45 46
58 58 60 60 59 57 56 54 52 51 51 51 52 52 52 53 54 56 57 58 58 58 57 57 56 54 53 53 51 50 49 48 49 48 47 45 43 41 40 41 43 44 44
55 57 59 60 60 59 57 55 52 50 49 50 50 50 49 49 49 50 50 50 50 50 50 50 49 49 49 51 51 50 49 48 49 50 49 49 48 46 44 43 43 44 44

GFSMW_250_spd_093.txt.gz
Wind_Speed
106 101 89 86 88 92 92 85 87 88 86 88 82 76 67 75 71 65 56 56 51 52 54 57 58 56 60 62 60 60 64 67 64 61 61 62 64 64 65 67 69 64 66
106 106 100 84 90 93 88 76 75 77 86 88 87 77 82 79 81 76 72 70 64 59 51 58 62 63 64 66 68 69 69 72 73 73 75 73 69 65 68 69 64 66 70
108 108 105 107 96 88 88 89 83 83 86 84 86 83 85 85 77 78 85 78 72 72 72 73 75 74 77 78 77 75 72 75 71 68 67 67 70 70 65 68 71 72 74
106 107 98 95 89 97 99 82 75 85 79 71 86 87 89 87 94 93 88 85 88 87 89 92 90 88 88 85 80 78 81 77 72 71 68 63 62 65 70 75 77 77 79
106 107 112 112 111 106 107 103 99 92 91 95 73 76 84 82 84 90 90 93 91 93 90 88 92 90 84 79 81 83 79 78 77 75 74 73 69 75 77 80 84 82 85
111 111 109 111 111 112 114 109 107 106 104 96 98 86 84 91 91 91 90 84 86 91 92 93 94 95 93 94 94 89 84 84 85 81 79 81 83 86 84 82 84 86 91
111 110 107 104 104 113 114 114 114 114 112 111 107 104 101 94 87 89 92 92 93 95 96 90 89 95 99 97 95 94 93 91 91 90 90 89 97 97 94 95 101 99 98
106 110 111 110 111 110 108 108 114 115 115 114 114 111 106 103 102 97 96 102 100 95 97 99 97 94 96 98 100 101 101 98 98 98 96 106 104 103 105 105 101 102 100
99 105 110 113 116 114 113 113 110 107 108 110 110 113 115 113 115 112 109 106 107 111 107 107 109 104 103 102 100 101 103 105 108 110 109 108 107 109 104 109 108 106 106
94 97 102 110 113 118 121 118 117 115 112 110 109 112 116 115 116 115 115 115 115 118 116 117 117 119 118 116 115 117 116 116 116 116 119 119 114 110 108 108 110 110 111
85 90 96 102 107 113 113 118 123 124 120 116 118 118 116 112 111 116 118 120 122 121 121 119 121 122 121 120 121 121 121 119 117 116 117 114 113 113 112 113 114 115 115
79 82 86 90 94 98 102 104 112 119 121 123 123 121 122 120 118 119 121 118 120 120 123 125 127 124 123 124 124 125 121 119 118 117 117 117 116 116 117 117 114 110 110
76 78 81 83 85 89 94 98 103 109 116 119 124 127 128 128 124 123 123 122 123 125 125 125 125 126 124 123 121 123 121 120 120 118 117 114 113 114 112 113 115 116 116
76 77 79 80 83 85 89 92 95 98 106 111 116 119 121 123 126 124 124 124 123 122 122 125 127 127 124 119 117 115 115 117 116 115 114 113 115 115 115 114 113 113 111
78 80 83 86 87 87 85 84 87 90 94 98 103 107 111 114 117 116 115 116 117 119 118 118 119 118 117 117 117 116 113 113 112 110 109 110 112 112 111 109 110 108 108
78 80 82 83 84 83 83 84 85 86 86 88 91 97 101 104 107 109 109 109 110 110 111 112 112 112 111 112 112 111 109 109 110 107 108 108 107 106 106 105 105 105 107
77 79 81 81 82 83 85 86 86 85 85 85 86 86 88 93 96 99 100 101 103 104 106 107 107 107 106 106 106 105 105 106 106 106 106 105 105 105 105 106 106 104 100
75 77 79 81 82 83 83 82 81 82 82 84 84 86 86 85 87 90 93 96 99 100 101 102 103 102 102 103 104 104 105 105 106 106 106 107 107 105 103 99 97 94 89
72 74 76 78 80 82 82 80 80 81 81 82 82 83 81 81 83 85 87 90 92 94 97 100 102 102 102 103 104 106 106 106 105 104 101 98 97 96 94 89 87 84 80
73 75 76 76 77 79 79 80 79 79 81 81 81 79 79 80 82 83 85 87 87 88 90 92 94 95 96 96 97 97 98 98 97 96 94 91 90 89 87 84 83 80 76
75 76 76 76 78 78 76 76 77 76 78 76 74 74 78 83 83 83 83 82 83 84 86 87 88 90 90 90 91 91 92 92 91 90 89 88 85 83 81 77 73 72 70
68 74 75 77 77 76 74 75 75 75 72 72 72 74 76 78 79 80 81 82 82 82 82 83 83 82 83 83 83 83 84 85 84 82 80 78 73 71 70 67 65 63 60
55 63 69 72 73 73 72 73 74 73 71 70 72 72 72 72 72 73 75 76 75 77 77 77 77 78 79 77 76 77 77 76 73 72 69 66 62 58 53 51 48 46 44
49 53 60 66 68 68 67 68 68 67 67 67 68 70 70 68 67 67 68 69 69 70 69 69 69 70 69 67 65 65 64 63 60 60 56 52 49 47 44 43 42 40 38
44 47 50 57 62 65 64 64 65 65 63 62 62 63 63 62 61 60 59 60 60 61 61 61 62 62 62 61 59 56 54 53 53 52 49 48 47 46 46 45 44 42 40
40 41 45 50 56 60 63 63 63 63 62 61 59 59 58 58 58 57 55 55 55 55 55 54 53 52 52 51 50 49 49 50 50 50 48 47 47 48 48 47 46 46 46

GFSMW_250_spd_096.txt.gz
Wind_Speed
113 109 95 82 88 94 104 96 90 82 87 73 72 72 71 67 64 69 58 52 44 52 45 45 49 53 57 60 58 56 61 60 61 61 61 64 69 73 71 74 64 63 65
109 102 96 100 101 100 92 98 93 81 88 85 86 82 64 80 71 61 65 62 60 68 73 70 65 75 72 75 66 62 62 66 60 63 67 76 78 75 72 72 67 64 69
109 114 101 98 97 96 81 77 83 82 87 87 82 70 72 76 77 78 82 83 78 73 74 77 76 73 74 76 79 81 76 77 83 82 82 75 73 72 75 76 73 76 80
107 111 115 105 90 91 82 75 80 84 85 87 72 70 82 77 72 61 59 65 69 73 76 76 79 78 85 90 90 88 92 89 88 83 76 70 72 78 80 79 81 86 82
113 112 112 103 97 95 89 84 86 92 86 86 80 80 81 77 74 71 75 60 66 76 77 79 83 87 84 87 89 82 88 87 86 87 85 83 81 88 91 92 85 85 83
112 118 118 115 108 110 99 94 95 96 87 94 96 96 85 86 86 85 82 79 72 71 78 85 90 91 93 94 94 90 89 88 90 87 86 89 86 88 88 87 91 85 87
111 113 112 105 117 118 118 115 107 106 97 96 91 82 85 90 91 88 87 74 81 88 85 86 90 93 96 100 98 93 94 94 92 90 91 91 93 97 94 92 90 95 98
111 111 116 115 111 113 120 119 117 113 101 99 101 104 98 95 95 93 93 95 94 94 93 96 98 106 105 104 100 101 102 100 100 102 99 104 98 102 101 103 103 106 109
111 114 111 113 114 107 106 104 107 119 120 115 114 113 115 107 103 101 103 103 106 106 107 107 111 112 118 115 115 115 112 111 106 109 109 109 108 108 110 109 109 110 112
104 110 113 111 112 116 113 112 110 110 111 112 108 114 113 114 120 119 116 114 116 113 111 113 115 117 120 121 121 120 116 117 119 121 119 116 115 115 114 115 114 115 116
95 102 108 113 118 117 116 118 121 123 122 119 120 119 121 115 114 113 111 115 119 123 121 118 120 113 114 120 124 125 129 127 127 126 125 124 121 121 120 120 120 118 117
87 94 101 109 113 117 122 125 121 120 128 128 128 127 129 129 129 129 130 130 127 123 118 119 119 125 127 129 132 135 136 134 133 129 127 127 125 123 124 124 122 118 115
75 83 90 97 105 112 116 119 123 126 126 126 129 131 130 130 131 130 130 131 132 130 132 130 129 132 132 132 137 139 137 137 137 137 131 128 129 128 126 123 121 119 114
69 74 79 84 88 94 102 109 113 116 121 124 128 128 130 132 134 137 138 136 135 137 135 135 134 129 128 129 133 133 134 133 133 134 132 129 126 125 123 118 117 114 112
70 72 74 78 82 86 89 94 100 104 110 114 116 121 124 129 132 132 130 128 130 132 133 134 133 132 131 133 135 135 133 131 133 132 129 129 127 122 117 113 111 109 107
73 74 76 78 80 83 87 91 94 96 97 102 107 113 115 119 121 123 125 127 129 130 129 130 131 130 128 128 129 129 129 125 125 124 124 122 120 116 113 109 107 106 102
75 79 82 83 84 86 88 89 90 92 93 96 100 102 103 103 105 107 109 112 113 115 117 120 122 124 124 123 124 123 121 119 117 118 119 117 114 111 109 105 104 103 102
76 80 83 85 86 89 90 90 90 90 91 92 92 93 95 96 95 95 94 94 96 100 102 104 107 110 112 113 114 115 114 114 114 113 112 110 109 109 106 104 103 102 100
76 80 84 86 88 90 91 91 92 92 91 91 90 91 90 89 88 89 89 90 92 92 93 95 97 98 100 102 104 105 105 106 107 108 108 107 106 104 102 99 97 95 93
66 75 82 86 88 90 90 90 91 89 89 90 90 88 87 87 87 87 87 88 88 87 87 88 91 93 94 94 96 96 96 97 99 98 99 98 97 96 94 92 90 88 87
57 64 72 80 87 89 90 90 90 89 91 88 86 85 84 84 86 86 87 87 84 83 84 87 89 91 92 91 92 93 93 93 93 93 93 93 93 91 89 86 83 81 78
56 57 62 70 77 82 86 89 89 90 88 88 86 84 83 83 85 86 85 85 85 85 86 86 88 87 86 88 88 88 88 87 86 87 88 85 83 82 80 77 75 71 67
46 54 53 60 67 72 76 82 87 89 89 87 84 82 81 80 80 80 80 79 80 80 80 80 79 79 81 80 80 81 81 82 79 79 79 78 76 72 70 66 61 58 55
43 46 46 50 55 58 65 71 79 84 86 85 82 81 78 77 75 75 74 73 75 75 74 72 72 72 73 72 72 72 72 71 71 70 68 66 65 63 61 57 54 50 48
40 39 38 42 46 49 53 59 66 73 79 81 79 76 74 72 71 70 69 68 68 66 65 64 66 66 66 66 66 66 65 65 65 64 62 59 58 55 53 50 48 47 47
37 34 33 35 38 41 45 49 55 62 67 71 72 71 69 66 65 63 63 63 60 59 60 60 60 59 57 57 56 55 54 54 55 54 52 51 51 50 49 47 47 47 48

GFSMW_250_spd_099.txt.gz
Wind_Speed
83 84 84 77 76 79 84 83 74 76 71 67 65 58 56 62 63 66 57 57 55 56 54 54 53 47 40 48 55 62 66 65 59 62 61 58 58 56 57 63 71 75 74
94 89 83 87 86 85 88 80 78 83 72 70 68 66 67 66 64 59 57 57 68 67 66 67 57 59 62 66 66 75 81 80 75 72 66 70 61 66 67 72 77 79 79
112 95 96 91 80 84 83 86 88 81 84 77 76 67 64 69 70 74 78 74 73 64 62 65 69 68 74 72 80 82 82 84 82 78 75 76 74 74 77 78 79 77 73
121 108 105 103 96 95 93 95 96 87 86 83 78 70 72 80 76 77 79 79 83 76 67 73 78 81 74 75 77 78 85 85 83 82 80 80 79 81 82 79 75 73 71
112 115 106 101 104 100 98 96 90 89 95 86 85 72 75 72 76 71 67 72 73 75 64 50 56 57 63 70 74 80 87 84 84 86 87 86 81 83 82 80 81 78 85
119 118 111 106 101 110 98 94 97 89 97 91 96 98 94 72 69 80 77 74 72 68 64 57 63 69 70 74 80 68 75 87 93 93 92 90 91 89 79 87 99 101 103
122 121 123 114 106 104 113 101 102 99 95 99 101 99 99 94 90 84 86 83 78 75 73 72 71 75 77 61 53 79 84 84 89 97 95 99 96 98 105 106 107 110 107
124 120 112 121 120 108 101 103 101 100 101 103 105 105 103 91 99 94 91 91 87 87 84 81 81 79 78 75 85 90 95 101 102 102 107 111 112 114 115 117 116 115 113
127 125 114 122 124 119 112 114 103 110 111 111 113 106 97 93 99 100 95 89 95 92 89 96 98 95 94 92 101 105 110 114 116 115 117 113 115 120 119 119 117 118 117
118 129 125 121 117 121 120 123 123 115 113 115 110 106 104 97 97 102 101 95 97 105 105 94 94 97 101 106 108 111 111 114 120 119 116 117 121 116 121 116 115 115 118
113 118 127 127 126 128 120 112 117 123 122 120 120 116 110 107 108 104 108 110 111 109 114 109 110 110 109 112 112 113 110 115 119 121 124 117 120 127 125 123 125 128 130
117 116 117 122 131 125 123 123 124 123 120 117 119 117 122 121 116 117 119 119 118 124 120 114 116 123 127 123 123 123 123 118 118 122 127 130 126 130 131 135 137 139 140
106 120 120 119 119 123 129 130 130 129 127 125 131 132 129 128 131 132 131 130 130 129 125 124 124 129 131 135 129 128 127 131 131 127 129 134 136 136 137 140 145 141 137
71 90 111 123 121 122 124 126 127 130 136 137 133 130 129 128 132 133 132 131 126 129 134 135 130 131 132 133 129 131 131 129 135 136 136 142 144 144 144 146 145 142 137
64 73 86 99 110 124 129 130 129 129 129 129 132 138 140 139 136 135 134 134 135 135 136 136 138 138 139 139 137 138 143 143 146 150 145 146 147 146 145 143 138 134 133
64 69 76 83 91 101 111 121 131 135 137 140 140 139 138 134 136 140 145 143 143 144 144 145 147 147 147 149 147 146 146 148 149 146 142 139 139 137 135 133 132 127 123
67 72 76 80 85 92 99 105 113 120 127 130 133 138 142 145 146 145 144 146 147 147 145 145 147 146 146 149 149 148 147 143 142 141 138 134 131 128 125 122 118 117 115
60 67 74 81 87 90 93 95 101 107 112 117 121 125 128 131 135 138 142 143 146 146 144 142 142 139 137 137 134 133 131 128 126 125 124 120 118 116 114 113 111 108 107
49 61 69 77 84 89 92 95 97 100 103 108 111 115 117 119 121 124 125 127 126 127 128 127 125 124 122 121 118 116 116 114 113 111 110 108 107 106 105 102 101 98 96
39 52 60 71 79 87 88 91 97 99 102 103 104 106 107 107 109 110 111 110 110 108 109 108 106 106 106 107 104 102 104 105 105 105 104 102 100 98 98 96 93 90 88
48 45 52 64 68 77 81 85 90 94 98 99 101 102 101 100 100 101 100 100 100 100 99 97 97 99 98 97 96 95 96 97 96 97 96 94 92 91 90 89 87 84 82
60 47 44 52 65 70 68 76 81 88 92 96 99 101 100 100 100 100 100 99 97 97 94 93 94 95 94 92 90 90 91 92 89 88 87 86 84 82 82 82 80 77 75
69 55 47 46 54 64 65 61 71 76 81 87 93 96 97 99 100 98 97 95 93 90 89 92 91 90 88 87 84 85 85 83 81 79 78 76 73 73 72 71 70 68 65
76 60 48 43 46 49 53 56 62 65 71 76 80 85 88 90 91 91 91 91 90 87 88 87 85 83 82 81 79 77 75 74 72 72 71 68 67 66 64 63 63 61 61
75 60 47 43 42 42 45 49 55 57 61 66 69 73 77 83 87 87 87 87 85 83 81 78 75 76 76 74 73 71 69 67 66 65 63 62 62 61 61 60 57 56 55
79 57 43 39 37 36 37 40 44 48 54 58 60 64 69 76 78 82 83 80 77 74 73 73 73 68 67 65 64 62 60 59 58 56 54 53 52 52 53 53 51 49 48

GFSMW_250_spd_102.txt.gz
Wind_Speed
106 90 86 86 81 81 68 63 60 55 54 58 55 59 52 56 55 59 52 54 56 56 53 49 48 52 52 55 58 59 56 54 56 53 57 65 66 64 66 75 75 79 72
100 98 85 89 86 81 78 69 63 68 64 65 64 63 62 62 58 60 61 60 58 61 58 58 57 60 61 61 63 64 58 59 63 72 71 71 74 79 77 77 80 77 71
104 88 86 80 80 88 92 75 81 72 74 69 68 70 62 69 66 61 57 61 60 64 66 68 69 67 65 68 70 70 70 76 82 81 79 83 88 89 84 77 74 74 73
94 95 87 84 91 88 88 88 84 87 74 76 73 70 74 71 67 62 70 64 66 69 75 74 76 74 71 68 65 79 70 74 76 78 76 73 82 83 78 78 70 72 75
107 101 90 96 95 80 92 96 86 79 89 76 71 72 74 77 78 71 70 74 65 64 65 66 72 74 71 68 57 56 53 55 64 65 73 72 76 76 67 70 80 73 74
111 111 105 100 85 82 88 95 88 86 86 84 79 71 70 75 77 79 77 75 78 76 78 81 79 84 78 76 66 68 65 59 57 69 68 77 83 79 76 74 86 88 96
117 114 110 101 89 83 93 94 96 94 94 95 84 88 83 77 80 71 77 78 74 76 83 69 61 70 68 66 66 72 71 76 81 86 81 87 95 93 81 96 95 97 100
122 111 111 103 95 92 95 102 92 89 90 95 92 90 90 91 90 78 79 81 76 78 72 74 71 71 77 71 75 77 83 90 84 94 94 90 101 96 102 104 104 107 110
124 113 122 103 109 95 99 113 98 92 87 89 98 98 99 105 101 98 96 93 93 88 79 80 76 72 76 84 87 81 88 85 88 99 95 92 94 97 106 109 107 106 114
129 127 113 112 100 112 105 113 112 105 101 96 93 96 100 103 106 110 106 107 102 100 103 103 101 103 99 98 97 96 95 93 95 99 101 102 105 110 110 113 113 117 124
130 135 121 111 112 101 106 108 106 107 106 111 108 108 102 100 101 103 106 110 110 112 110 112 114 109 102 102 103 103 99 102 107 98 99 104 102 106 116 118 125 126 127
136 135 136 124 119 116 107 107 105 111 114 119 124 122 115 111 114 106 107 105 108 109 108 108 103 106 105 102 107 108 103 100 106 111 117 119 123 124 125 131 127 129 129
137 140 137 140 125 129 124 119 125 114 115 115 116 122 120 119 113 106 110 109 113 115 116 119 121 124 116 115 116 117 119 121 123 129 128 124 128 131 132 135 132 133 138
124 134 143 138 132 140 141 128 127 131 132 128 127 122 117 118 116 113 119 120 119 122 123 126 126 123 125 130 132 128 127 129 129 135 131 129 132 133 144 140 138 142 140
94 111 124 140 141 137 143 147 139 138 140 140 139 140 139 140 135 134 131 130 133 133 125 124 128 131 135 132 132 134 134 137 141 141 143 145 152 143 139 139 140 142 142
76 90 108 129 133 138 149 147 149 151 144 152 151 147 144 146 149 150 146 142 140 142 143 140 141 141 141 141 140 141 143 147 151 154 155 146 140 142 143 144 147 148 145
42 62 82 98 113 132 137 137 148 159 159 156 153 154 153 149 150 151 153 154 150 145 145 146 147 148 149 149 150 151 151 153 150 150 151 149 150 151 153 150 146 149 142
27 32 42 61 84 103 117 129 139 144 147 151 160 165 167 161 158 156 158 157 156 158 157 155 152 153 153 154 156 152 155 157 156 157 153 150 150 150 151 150 142 136 131
24 28 34 43 54 68 89 106 121 132 138 144 148 147 150 155 158 161 164 164 164 159 160 161 159 159 157 155 151 153 153 153 152 154 157 153 153 149 144 137 128 120 115
43 45 41 47 46 56 68 80 98 112 124 134 139 144 149 152 151 153 152 153 155 155 156 156 157 156 154 155 159 160 158 157 154 149 144 141 135 127 122 119 113 106 101
56 56 53 52 55 55 60 73 81 91 105 116 126 132 137 142 147 152 157 162 165 166 164 163 160 159 158 153 147 145 142 136 129 128 127 121 119 114 107 105 101 95 91
70 63 58 59 62 57 57 58 71 83 86 93 99 109 120 128 133 140 144 144 145 143 142 142 143 139 136 133 130 125 120 117 115 115 114 106 103 101 97 93 88 84 79
71 69 64 63 67 64 56 52 59 68 75 72 74 84 94 101 110 120 125 125 125 123 125 126 127 123 118 116 113 109 108 107 106 105 101 99 94 90 85 80 77 74 71
82 78 76 64 60 54 56 49 54 58 62 64 63 66 74 80 85 92 99 105 112 111 110 111 110 109 108 106 105 101 100 100 98 95 93 89 85 79 75 72 69 69 67
90 89 85 71 57 46 47 46 48 49 52 55 56 58 62 67 71 76 85 89 92 97 101 101 100 101 101 99 98 96 92 91 88 86 83 78 74 71 68 66 63 61 58
93 94 89 76 58 42 41 40 41 42 43 46 50 55 58 57 60 66 75 80 83 86 89 91 91 92 93 91 88 84 82 81 80 78 76 73 69 65 60 57 54 52 51

GFSMW_250_spd_105.txt.gz
Wind_Speed
100 102 84 88 92 86 73 76 68 57 58 55 50 55 59 58 62 65 64 65 65 61 59 57 63 60 59 49 52 50 52 52 55 57 59 62 64 63 60 59 71 78 74
94 88 84 90 86 92 83 80 67 59 54 53 52 53 57 61 60 62 64 63 57 62 61 60 59 60 58 54 54 51 54 58 60 61 62 66 69 67 67 69 76 79 78
98 90 89 87 77 90 91 82 74 73 73 64 52 55 57 52 54 52 51 54 54 64 56 55 57 60 64 63 61 61 60 63 65 68 67 67 66 66 72 71 70 67 72
105 103 104 91 91 92 89 90 80 82 80 63 62 65 58 58 58 64 61 61 55 65 66 61 59 64 66 65 66 66 72 72 72 73 71 71 71 67 75 80 68 65 94
103 103 103 100 102 96 98 91 87 72 76 71 67 71 71 71 72 72 70 73 67 61 61 66 68 70 71 73 74 73 73 76 77 77 78 75 77 78 82 88 93 84 90
101 113 101 99 97 106 90 94 89 84 86 77 78 80 77 77 74 75 77 74 76 72 69 69 71 70 74 77 71 66 71 74 73 72 81 86 87 90 86 87 86 93 89
114 106 110 105 101 97 100 92 95 98 96 90 89 85 83 83 80 83 81 82 78 80 79 76 76 78 73 76 72 73 79 75 83 81 77 77 77 79 82 86 91 92 92
114 107 114 104 94 103 103 101 91 95 96 96 104 103 92 89 88 83 87 87 89 87 86 82 83 83 78 77 77 84 87 81 81 76 75 74 77 81 84 91 88 92 97
114 103 103 111 100 94 96 104 91 94 99 103 88 100 105 98 94 87 85 87 87 91 94 96 102 99 91 91 91 81 85 76 75 78 79 78 81 86 88 87 89 97 92
114 109 97 100 110 98 99 105 98 101 96 103 102 104 106 103 94 91 94 95 90 82 81 86 85 90 90 84 84 84 80 87 75 76 79 80 88 93 100 97 104 106 98
110 113 110 97 105 112 114 110 105 100 100 96 100 99 106 108 100 94 95 94 89 93 99 96 91 87 87 89 85 80 80 79 88 97 98 105 98 111 117 110 107 96 114
121 124 112 108 103 115 113 113 104 98 99 102 99 97 98 102 102 102 92 97 100 105 101 103 102 100 96 97 104 104 105 105 106 109 114 116 118 119 110 113 110 113 101
123 119 120 115 103 109 117 117 115 107 104 107 104 105 101 100 102 105 104 103 104 103 101 104 104 102 104 106 111 110 113 113 112 114 116 118 115 110 110 107 108 111 116
122 124 124 123 124 116 117 117 115 110 108 107 111 111 109 109 110 111 111 106 108 107 106 104 104 110 110 113 113 113 113 109 114 108 111 111 103 111 116 123 133 135 137
127 127 132 125 127 124 117 124 128 127 126 117 116 114 113 116 117 120 120 117 114 115 113 118 116 116 108 110 117 114 118 118 113 120 114 120 123 121 129 132 135 135 136
133 124 132 129 128 136 131 133 129 130 126 127 128 125 125 123 126 125 126 129 135 129 126 126 132 121 119 108 112 117 118 118 119 123 129 134 136 140 136 141 135 140 150
133 128 133 135 138 139 140 141 138 137 138 139 133 134 137 136 132 133 134 137 137 131 126 127 129 130 130 132 132 126 127 135 134 136 133 136 140 143 148 147 156 160 157
74 115 128 137 135 135 137 145 151 155 153 152 151 149 143 141 142 141 138 137 137 138 138 138 136 134 132 134 136 136 142 142 146 147 149 154 154 154 159 156 161 160 158
17 22 35 52 78 94 108 136 156 167 169 171 168 168 170 165 160 155 151 152 154 155 156 150 151 151 148 148 152 154 156 158 157 160 163 164 164 164 163 155 159 163 165
24 24 25 31 36 55 62 78 89 99 120 142 166 177 187 191 180 178 180 176 171 165 163 162 164 161 159 162 162 167 169 168 166 165 166 165 167 167 159 165 165 163 152
46 39 42 46 47 46 52 63 82 102 105 106 120 132 140 147 160 173 182 193 186 184 182 180 179 175 172 170 170 171 172 174 173 173 170 171 169 169 167 160 154 161 151
51 59 65 61 62 61 61 66 76 85 91 98 110 124 127 127 129 137 144 148 166 189 197 186 184 181 177 173 174 175 173 172 168 176 173 166 160 157 160 162 152 141 132
67 70 72 75 77 76 70 67 71 75 82 84 86 90 99 106 107 114 119 124 135 144 147 154 167 177 180 180 174 170 168 168 169 170 172 171 159 151 142 140 138 122 111
74 78 82 84 85 84 75 67 61 63 63 63 62 59 69 80 84 86 96 104 112 121 129 135 139 140 143 147 150 153 152 149 146 144 136 133 132 126 116 113 108 105 98
80 86 86 88 94 80 72 61 55 54 52 52 53 52 55 60 64 67 72 79 89 99 109 116 124 132 137 138 138 138 136 132 126 124 118 114 112 104 100 98 95 93 87
86 89 90 89 93 78 65 57 52 48 45 45 45 46 47 50 54 58 60 65 70 78 84 87 90 100 109 111 115 119 119 114 110 107 101 94 88 86 87 88 86 81 75

GFSMW_250_spd_108.txt.gz
Wind_Speed
77 64 65 75 79 78 82 82 74 69 65 79 80 69 66 61 56 53 48 54 66 68 65 68 66 63 63 64 58 56 60 62 57 57 55 53 55 56 57 60 62 65 64
70 66 68 75 75 80 83 83 73 80 80 68 61 64 62 62 66 57 53 58 63 68 72 65 69 70 64 63 63 59 61 64 60 61 58 56 56 58 62 64 64 67 73
66 68 80 86 83 83 84 81 76 78 71 69 66 60 60 68 68 63 64 65 59 61 64 65 65 64 67 67 66 59 61 62 60 61 61 59 61 62 68 69 72 73 71
66 78 88 95 96 91 85 87 84 87 89 87 78 66 68 66 64 63 63 63 58 57 58 60 58 59 61 65 64 57 62 63 64 64 65 68 69 71 76 79 76 78 80
81 84 87 99 94 103 96 93 90 94 81 76 77 69 63 58 59 56 59 64 61 59 59 64 64 68 64 61 61 66 63 65 68 69 69 72 73 77 75 80 85 88 85
84 88 96 103 97 102 99 95 98 90 88 88 84 75 70 65 61 59 63 66 71 62 64 66 67 72 71 70 62 65 67 73 75 79 76 79 83 81 84 85 83 80 83
94 104 96 95 101 103 104 106 105 105 98 89 88 87 81 76 75 75 74 69 69 75 76 75 76 78 76 76 77 73 78 83 80 79 78 80 81 82 84 82 86 78 78
94 110 107 108 108 103 109 112 104 109 103 103 99 91 82 81 77 80 82 80 81 80 79 79 81 84 86 80 81 79 84 87 82 81 81 86 82 84 88 87 82 88 81
97 118 111 109 104 100 100 97 105 105 105 102 102 104 98 91 86 91 84 88 89 91 91 86 87 88 86 93 95 88 87 88 89 88 87 86 88 86 92 89 88 82 87
103 118 114 109 107 98 96 103 109 109 104 105 106 102 108 101 100 92 95 93 92 93 96 96 94 95 91 94 92 94 97 99 98 98 99 94 87 97 93 87 87 88 83
93 109 114 106 105 109 105 111 106 100 103 102 99 103 105 104 104 103 98 99 101 97 98 100 98 101 104 107 109 105 101 103 99 95 89 91 100 94 93 89 82 85 87
102 96 119 114 115 109 112 106 111 105 106 106 101 103 110 107 108 105 107 105 102 108 106 109 111 107 112 109 110 106 105 100 99 89 91 94 95 98 89 101 92 91 109
80 93 104 116 109 101 101 106 114 116 111 111 104 111 103 105 105 110 108 110 111 106 110 114 111 107 100 102 94 92 96 95 89 102 100 105 98 105 96 94 102 108 103
95 89 109 111 111 97 95 92 102 108 111 112 112 108 109 111 113 107 107 109 108 109 107 108 110 112 112 106 101 104 101 100 100 105 107 105 102 105 103 110 115 117 116
94 97 104 93 109 113 107 108 101 105 116 115 114 116 121 117 114 119 117 110 110 112 112 111 112 109 113 114 114 111 113 110 108 106 108 108 109 110 112 113 112 114 113
115 107 114 109 96 99 103 106 105 104 110 122 124 124 118 124 127 126 125 125 125 120 120 117 119 115 115 112 116 114 110 109 108 108 103 114 113 117 114 116 115 116 127
105 100 103 100 111 111 100 102 110 120 119 118 118 122 133 134 137 136 133 129 129 127 122 123 121 121 119 121 123 120 117 120 121 120 122 124 119 124 125 121 126 136 132
86 87 85 94 98 101 113 112 118 126 121 124 126 133 135 135 142 143 145 144 140 136 133 133 130 128 127 128 128 127 129 128 126 123 120 124 127 127 130 135 133 135 138
74 84 80 87 90 97 117 130 127 128 139 144 144 146 149 145 144 144 147 149 152 149 150 147 147 144 138 135 135 133 134 136 136 131 133 136 134 137 141 137 141 148 153
65 94 95 86 93 96 112 110 118 135 141 157 157 163 167 167 162 162 158 158 162 159 157 158 157 157 151 149 148 146 143 139 138 136 136 137 140 144 144 151 145 150 151
22 33 38 54 69 72 75 87 104 126 133 131 134 141 158 170 179 175 178 186 180 177 179 179 171 173 164 160 160 160 155 155 150 150 151 147 148 149 153 154 157 159 160
41 45 43 40 51 52 61 65 78 82 95 106 112 124 134 143 151 156 158 178 187 183 180 176 178 176 179 179 175 165 162 159 156 157 155 156 156 156 161 167 168 171 171
49 51 54 56 61 67 64 64 69 81 93 104 115 118 117 121 130 134 136 137 141 141 141 146 140 141 148 160 177 191 178 173 170 168 166 169 175 174 176 171 170 171 157
57 60 64 66 71 76 73 71 72 75 75 71 73 77 82 88 95 104 111 118 124 129 132 133 134 135 137 136 133 132 136 146 179 191 193 190 186 180 172 163 173 163 138
68 71 77 74 83 74 76 77 76 70 61 55 56 57 64 69 71 70 74 80 86 91 98 105 111 114 118 126 127 124 123 124 124 126 126 129 129 125 121 127 131 123 116
75 79 83 80 88 82 82 81 74 63 53 50 48 48 49 52 56 56 57 58 61 67 72 75 75 77 85 93 101 105 105 105 104 102 97 95 96 97 99 103 102 95 96

GFSMW_250_spd_111.txt.gz
Wind_Speed
85 87 81 80 72 61 60 66 74 66 62 57 62 62 63 68 65 68 66 61 52 50 52 54 52 54 60 62 61 69 59 62 63 67 66 62 58 56 63 54 54 59 59
83 88 82 79 73 61 63 67 78 68 67 71 61 64 68 65 76 74 71 63 57 59 58 58 55 54 66 69 71 66 72 77 71 71 74 70 62 63 63 59 61 62 61
80 80 80 78 70 64 65 69 78 73 72 74 68 69 74 77 79 75 63 61 57 58 57 57 56 62 67 73 73 73 72 77 79 74 70 65 60 63 64 63 64 64 64
69 73 74 78 72 66 67 77 85 83 76 70 70 80 74 68 82 88 74 69 64 71 66 65 66 71 72 74 73 73 76 68 65 65 66 69 65 64 70 72 68 70 71
72 70 74 76 74 64 73 79 83 86 77 78 69 78 80 80 73 66 67 77 68 67 67 68 71 75 68 67 69 69 67 65 63 65 70 69 68 69 69 71 71 72 74
73 77 78 82 71 70 76 83 85 89 87 89 88 85 76 75 77 75 69 65 69 73 72 73 70 64 69 65 65 62 67 68 67 67 69 71 77 77 72 72 74 74 73
73 77 82 79 76 75 77 83 82 85 88 91 95 82 82 78 77 77 77 74 67 65 71 68 71 72 68 66 70 71 73 74 76 78 81 84 81 75 71 75 78 76 80
75 82 81 84 78 79 81 85 83 90 92 91 94 85 88 89 82 82 87 82 80 74 75 74 77 77 80 80 76 73 76 80 81 79 86 85 78 79 80 83 85 85 87
78 83 85 84 85 92 92 89 95 95 96 96 95 93 96 94 97 95 94 81 79 76 79 81 80 83 85 84 84 84 85 83 84 91 88 88 88 91 88 87 89 95 93
82 86 93 91 93 92 97 97 99 97 102 102 104 101 105 102 101 100 99 91 93 93 91 87 89 91 90 87 82 84 85 84 88 89 91 92 91 85 88 93 100 101 97
83 91 93 101 103 99 101 103 99 104 102 101 101 104 105 103 104 105 104 102 104 103 93 93 93 97 96 93 91 93 91 94 93 96 95 95 96 94 100 104 105 106 106
83 85 94 102 106 107 107 107 101 102 101 105 108 110 109 106 110 107 108 104 106 106 104 108 105 107 106 109 106 102 100 104 101 102 98 100 102 107 110 111 104 102 95
83 88 98 95 96 109 109 109 101 96 100 98 105 105 108 111 113 113 116 114 114 114 113 109 108 104 106 105 106 106 104 106 109 109 112 116 116 113 115 116 106 100 99
85 84 93 91 104 103 107 110 109 105 102 105 102 107 107 108 108 114 115 116 113 118 119 118 120 117 115 113 114 109 108 110 114 110 107 110 110 107 104 101 100 103 106
84 83 78 93 85 97 101 104 101 104 102 107 103 109 111 116 119 117 120 117 108 112 114 115 119 119 121 120 110 109 109 107 105 102 108 112 108 109 109 107 107 109 107
85 80 80 86 80 75 104 97 106 94 96 107 108 104 112 115 121 124 123 116 120 128 126 124 120 122 126 123 120 119 118 119 117 113 112 111 113 110 110 109 106 107 106
88 77 84 74 74 87 85 104 102 97 103 102 105 110 115 121 121 124 128 133 139 134 127 127 124 123 127 130 127 124 126 127 120 125 126 113 114 116 116 115 114 111 112
66 68 80 85 87 83 84 98 95 102 108 113 122 124 119 121 126 133 133 134 139 141 145 148 145 146 140 139 135 129 127 121 124 130 130 126 123 116 117 120 116 118 117
58 59 59 80 73 71 80 90 105 106 113 124 128 131 135 136 145 142 149 144 146 149 143 147 148 145 143 143 143 142 142 136 134 134 138 127 129 128 132 131 128 127 128
54 57 56 59 78 78 81 85 96 107 115 125 136 139 140 152 158 156 156 153 151 146 145 145 149 148 147 148 147 146 146 142 139 138 135 133 134 135 135 131 132 131 129
38 46 52 60 74 85 95 98 100 108 119 120 129 137 156 153 156 166 167 169 164 167 164 165 169 164 162 162 158 156 152 150 148 146 146 147 144 140 139 139 136 140 139
17 16 20 29 32 39 43 50 56 67 79 101 113 115 113 114 127 138 143 163 176 175 167 158 167 183 180 171 171 174 175 169 164 161 156 155 152 155 157 151 150 148 148
30 35 37 46 49 51 54 61 65 70 67 69 75 82 92 101 110 117 120 126 132 141 147 144 137 134 136 167 179 177 172 161 165 177 180 174 177 170 172 170 165 167 169
48 53 57 63 67 78 75 77 84 77 76 77 79 76 70 69 71 75 83 90 96 100 107 115 121 131 135 136 143 143 138 138 137 137 139 133 135 133 134 138 147 143 135
54 59 64 69 76 84 85 86 89 84 83 84 80 70 59 56 59 63 66 69 74 77 78 82 85 89 95 102 108 115 123 130 135 133 135 131 124 121 121 120 114 108 105
62 65 72 78 81 89 91 90 92 88 86 83 77 65 56 54 55 56 59 61 63 65 69 70 70 71 74 78 82 86 89 94 102 111 116 122 120 117 113 111 107 100 93

GFSMW_250_spd_114.txt.gz
Wind_Speed
79 84 84 86 87 84 84 86 86 74 63 58 63 65 74 73 69 61 60 58 56 53 49 52 54 51 51 54 54 53 59 58 73 71 71 68 61 65 66 64 62 66 63
83 85 87 84 84 83 85 87 85 67 59 59 62 66 81 77 67 60 59 57 55 57 60 57 59 54 51 52 54 62 61 67 63 68 69 66 70 72 70 74 73 64 61
79 81 85 85 84 85 85 89 86 69 56 60 62 70 80 79 70 63 59 65 62 61 60 63 64 62 60 59 62 64 71 71 74 71 75 78 74 77 72 70 65 60 61
75 75 75 77 82 85 87 89 83 66 56 62 66 75 80 72 65 66 67 65 58 59 63 70 66 63 62 63 70 68 67 72 76 76 76 73 75 78 76 72 64 60 64
66 69 68 71 78 82 85 88 79 66 59 65 69 73 79 73 69 63 65 61 61 71 70 73 72 66 68 68 66 70 76 78 75 78 81 81 79 76 76 66 64 65 65
59 64 66 66 72 76 81 80 77 62 58 62 68 78 73 67 71 69 65 67 74 74 68 76 71 73 75 74 74 74 76 77 79 82 73 78 76 75 73 70 69 70 72
61 58 58 64 69 71 73 76 67 56 59 61 74 77 77 72 69 75 74 69 69 76 69 73 74 72 70 74 72 73 78 79 82 87 84 80 70 72 72 69 71 72 74
62 62 61 62 66 66 67 68 63 56 61 68 84 82 77 68 70 72 74 76 73 74 73 75 74 78 84 80 83 84 88 88 81 79 72 70 71 71 76 72 81 78 73
58 64 65 64 64 69 68 68 64 64 68 72 91 88 79 79 81 75 80 79 81 81 82 79 87 88 83 84 83 88 89 86 80 81 82 82 79 81 82 81 87 83 81
56 64 69 66 68 71 68 69 67 67 68 78 85 84 86 90 86 87 84 86 86 86 88 88 85 85 89 89 90 95 91 90 87 85 86 85 87 87 87 85 81 81 81
53 63 67 71 70 71 69 71 67 69 74 84 93 90 93 91 95 92 98 91 93 96 93 92 96 93 92 95 100 96 94 92 87 89 92 91 93 94 93 87 89 85 93
55 61 63 58 67 70 70 75 77 74 77 78 91 98 92 92 98 99 101 105 103 99 98 101 109 109 106 103 102 105 106 109 104 102 99 98 96 96 96 96 103 101 99
57 60 59 58 62 67 71 73 72 76 78 85 89 93 96 97 99 105 111 112 112 113 117 111 114 113 111 112 111 112 111 112 113 109 103 100 100 100 105 103 103 100 105
62 65 56 59 61 63 69 71 73 76 82 86 88 95 101 104 105 103 102 103 110 117 120 115 112 117 119 121 121 122 113 108 108 106 107 107 108 105 109 106 105 111 114
61 65 57 53 64 65 69 71 70 81 80 89 91 90 97 104 104 108 112 113 112 114 118 122 128 130 127 126 129 124 124 126 119 119 116 115 114 117 118 123 120 120 112
52 62 65 64 64 68 67 74 72 75 89 92 91 100 104 107 108 108 112 114 119 120 126 128 129 130 127 131 130 130 133 135 136 134 125 117 113 115 115 109 99 108 106
47 53 59 62 62 66 73 70 79 85 85 92 101 98 101 111 115 118 119 125 125 131 132 132 138 140 142 142 144 144 136 140 138 135 135 133 125 123 119 119 115 120 113
47 48 55 70 65 59 66 81 81 84 91 95 97 102 109 115 117 128 126 127 132 134 137 140 141 131 133 133 133 135 138 134 134 133 132 131 124 118 121 116 121 124 120
40 37 56 52 59 69 71 68 81 81 88 93 107 113 113 125 132 138 145 146 147 147 150 147 150 151 145 145 144 149 150 146 138 135 136 127 127 116 122 127 128 122 118
18 26 35 44 57 59 65 66 63 69 79 88 101 108 112 121 127 140 154 151 155 161 157 160 165 165 165 163 157 151 149 148 143 138 131 127 130 129 120 130 129 124 128
6 12 21 28 35 46 52 56 65 70 84 91 94 100 112 117 116 115 118 130 138 145 153 154 167 167 162 159 161 164 157 150 150 154 150 143 138 135 137 141 139 139 135
14 15 18 25 26 30 35 40 46 59 64 70 72 67 76 95 98 99 101 103 104 110 116 117 118 125 132 146 163 173 162 162 168 165 162 162 159 160 149 146 147 149 151
20 25 28 27 33 33 39 45 53 58 63 65 67 69 71 75 75 78 79 81 81 82 90 99 103 110 108 105 111 121 133 135 132 137 146 157 160 159 155 162 160 162 159
24 24 26 29 34 40 47 57 70 76 82 86 79 80 80 79 79 78 70 65 65 63 61 67 74 81 87 97 107 115 125 133 129 130 131 133 134 138 136 136 138 142 135
28 33 38 45 55 61 70 75 78 84 89 90 86 86 83 79 77 70 63 59 59 60 62 62 63 65 70 74 78 82 85 90 97 107 115 123 128 130 132 130 129 130 131
44 48 52 56 62 67 75 80 84 90 94 96 89 89 84 80 71 62 63 55 56 55 54 56 56 57 62 65 68 70 70 73 75 80 86 94 99 110 112 119 122 124 126

GFSMW_250_spd_117.txt.gz
Wind_Speed
92 88 83 84 87 83 77 80 80 81 79 78 76 78 80 66 66 67 72 76 76 69 55 62 58 55 56 55 54 56 57 54 50 51 57 58 57 66 65 68 66 66 69
79 80 81 80 88 88 82 80 80 81 83 83 82 83 84 79 64 67 69 73 72 68 53 60 61 58 60 56 51 50 52 53 51 57 63 64 69 68 73 73 67 70 70
75 76 81 86 85 85 82 82 84 82 81 83 83 85 86 80 60 68 69 78 71 72 72 73 74 65 64 57 51 56 56 58 56 59 66 63 71 74 73 71 74 71 68
67 67 70 77 84 82 81 84 85 84 82 83 83 85 85 80 63 67 69 86 81 77 74 72 67 65 61 62 59 52 63 64 67 70 70 69 74 77 71 72 70 71 68
59 59 60 67 73 74 77 82 86 87 85 83 83 85 79 77 65 65 70 81 83 86 78 71 64 64 63 62 62 59 68 69 69 68 71 71 75 73 75 76 78 75 67
53 57 59 61 67 70 74 78 82 84 83 84 83 81 76 70 61 65 69 71 75 76 76 73 67 70 68 63 65 69 74 79 74 74 77 78 79 80 82 78 77 74 70
48 51 54 54 59 64 69 70 72 76 77 78 77 78 67 63 59 62 60 67 71 72 77 73 73 70 65 73 79 77 78 77 77 74 74 79 82 78 76 80 75 75 71
52 51 52 53 54 57 61 65 66 69 71 72 72 67 63 59 58 60 60 68 71 72 76 77 73 72 79 75 80 78 77 79 79 78 79 84 84 86 84 83 82 83 75
47 50 52 52 48 49 54 59 61 60 63 64 65 58 58 57 58 59 60 70 76 75 79 82 79 80 77 85 89 91 91 87 86 85 90 90 90 89 89 86 87 82 73
39 46 49 52 46 43 49 53 54 56 55 58 52 51 53 53 59 59 65 69 75 78 86 87 86 84 90 90 87 91 90 89 88 90 96 91 89 92 84 86 86 82 81
36 42 49 44 49 43 42 41 47 50 51 48 48 51 52 54 61 65 67 70 75 77 76 83 86 83 87 90 98 92 94 94 90 93 91 87 84 87 89 87 88 89 96
35 38 45 43 43 46 41 42 45 47 44 45 51 53 54 57 65 74 77 81 79 81 82 83 89 89 88 89 89 92 94 96 97 95 97 97 95 93 95 99 96 95 96
34 37 41 43 40 48 44 42 43 45 51 56 59 59 61 65 66 81 83 84 89 91 94 95 96 97 94 92 99 100 100 95 97 97 105 105 104 104 107 107 106 101 101
34 37 40 43 43 45 49 46 49 49 52 54 62 62 65 66 72 80 92 94 96 98 101 103 110 115 110 113 114 114 115 116 116 116 115 112 110 112 118 106 107 105 110
24 25 34 37 36 40 48 48 51 50 51 52 57 63 65 68 76 85 94 100 102 108 111 113 111 116 119 120 127 127 123 126 125 125 125 124 123 123 116 112 106 102 107
24 22 28 31 32 41 44 45 51 55 55 58 60 63 68 74 77 90 100 105 110 115 118 119 120 121 123 126 128 132 135 136 134 135 133 133 127 125 126 125 125 126 130
15 26 33 30 36 34 38 43 50 52 55 59 60 64 70 76 85 88 98 105 113 121 123 127 133 133 134 135 136 135 135 134 132 129 124 122 124 126 127 128 126 121 122
16 13 18 33 40 39 44 46 50 48 53 58 64 65 70 76 81 90 97 108 118 124 130 134 136 141 143 147 145 143 145 139 134 133 131 128 128 131 127 118 118 125 124
9 9 12 19 24 34 44 52 54 55 59 64 68 73 77 83 90 98 103 111 119 123 131 139 144 148 151 151 153 153 154 150 149 146 139 129 128 127 128 117 113 114 116
8 7 6 7 13 19 26 32 42 53 61 62 64 70 74 83 89 101 113 121 125 128 136 143 151 153 153 147 153 157 159 160 159 154 147 150 146 139 130 123 117 122 119
11 12 16 20 24 26 31 33 37 38 41 49 61 68 72 82 90 97 105 110 116 125 128 124 128 127 128 131 126 128 143 152 164 163 161 158 158 153 147 138 129 134 131
18 20 21 20 25 27 30 34 39 45 51 57 63 72 81 85 90 94 95 95 104 94 105 110 110 111 113 108 106 111 115 124 130 132 137 141 136 150 156 147 146 152 150
26 27 27 32 33 34 39 43 38 43 49 53 60 64 73 76 81 83 81 84 84 84 83 79 79 81 86 90 93 95 97 104 109 112 114 117 122 126 128 136 141 137 137
34 35 35 33 35 35 34 37 41 48 55 56 67 71 78 82 89 87 86 82 77 72 69 68 64 63 67 70 73 76 78 80 83 91 97 101 105 109 113 117 121 121 119
29 31 32 32 33 34 37 42 48 56 62 65 73 78 85 87 91 91 87 79 68 63 60 60 59 58 58 59 62 64 67 68 71 72 74 76 80 90 97 103 106 109 115
29 31 34 36 37 41 45 50 55 63 70 73 78 83 88 90 92 87 87 82 61 62 56 53 53 53 53 52 53 55 58 60 60 61 66 67 67 67 68 77 90 99 107